[[{"header":{"parameterUnit":"m.s-1","parameterCategory":1,"la1":31.0,"la2":29.5877,"lo1":-88.7671,"lo2":-86.6584,"dy":0.0162,"dx":0.0185,"nx":115,"ny":88,"refTime":"2024-06-23T06:00:00:Z","depth":0,"parameterNumber":2,"parameterNumberName":"U-component_of_WINDS"},"data":[0.0,0.0,0.0,0.0,0.0,0.0,0.0,0.0,0.0,0.0,0.0,0.0,0.0,0.0,0.0,0.0,0.0,0.0,0.0,0.0,0.0,0.0,0.0,0.0,0.0,0.0,0.0,0.0,0.0,0.0,0.0,0.0,0.0,0.0,0.0,0.0,0.0,0.0,0.0,0.0,0.0,0.0,0.0,0.0,0.0,0.0,0.0,0.0,0.0,0.0,0.0,0.0,0.0,0.0,0.0,0.0,0.0,0.0,0.0,0.0,0.0,0.0,0.0,0.0,0.0,0.0,0.0,0.0,0.0,0.0,0.0,0.0,0.0,0.0,0.0,0.0,0.0,0.0,0.0,0.0,0.0,0.0,0.0,0.0,0.0,0.0,0.0,0.0,0.0,0.0,0.0,0.0,0.0,0.0,0.0,0.0,0.0,0.0,0.0,0.0,0.0,0.0,0.0,0.0,0.0,0.0,0.0,0.0,0.0,0.0,0.0,0.0,0.0,0.0,0.0,0.0,0.0,0.0,0.0,0.0,0.0,0.0,0.0,0.0,0.0,0.0,0.0,0.0,0.0,0.0,0.0,0.0,0.0,0.0,0.0,0.0,0.0,0.0,0.0,0.0,0.0,0.0,0.0,0.0,0.0,0.0,0.0,0.0,0.0,0.0,0.0,0.0,0.0,0.0,0.0,0.0,0.0,0.0,0.0,0.0,0.0,0.0,0.0,0.0,0.0,0.0,0.0,0.0,0.0,0.0,0.0,0.0,0.0,0.0,0.0,0.0,0.0,0.0,0.0,0.0,0.0,0.0,0.0,0.0,0.0,0.0,0.0,0.0,0.0,0.0,0.0,0.0,0.0,0.0,0.0,0.0,0.0,0.0,0.0,0.0,0.0,0.0,0.0,0.0,0.0,0.0,0.0,0.0,0.0,0.0,0.0,0.0,0.0,0.0,0.0,0.0,0.0,0.0,0.0,0.0,0.0,0.0,0.0,0.0,0.0,0.0,0.0,0.0,0.0,0.0,0.0,0.0,0.0,0.0,0.0,0.0,0.0,0.0,0.0,0.0,0.0,0.0,0.0,0.0,0.0,0.0,0.0,0.0,0.0,0.0,0.0,0.0,0.0,0.0,0.0,0.0,0.0,0.0,0.0,0.0,0.0,0.0,0.0,0.0,0.0,0.0,0.0,0.0,0.0,0.0,0.0,0.0,0.0,0.0,0.0,0.0,0.0,0.0,0.0,0.0,0.0,0.0,0.0,0.0,0.0,0.0,0.0,0.0,0.0,0.0,0.0,0.0,0.0,0.0,0.0,0.0,0.0,0.0,0.0,0.0,0.0,0.0,0.0,0.0,0.0,0.0,0.0,0.0,0.0,0.0,0.0,0.0,0.0,0.0,0.0,0.0,0.0,0.0,0.0,0.0,0.0,0.0,0.0,0.0,0.0,0.0,0.0,0.0,0.0,0.0,0.0,0.0,0.0,0.0,0.0,0.0,0.0,0.0,0.0,0.0,0.0,0.0,0.0,0.0,0.0,0.0,0.0,0.0,0.0,0.0,0.0,0.0,0.0,0.0,0.0,0.0,0.0,0.0,0.0,0.0,0.0,0.0,0.0,0.0,0.0,0.0,0.0,0.0,0.0,0.0,0.0,0.0,0.0,0.0,0.0,0.0,0.0,0.0,0.0,0.0,0.0,0.0,0.0,0.0,0.0,0.0,0.0,0.0,0.0,0.0,0.0,0.0,0.0,0.0,0.0,0.0,0.0,0.0,0.0,0.0,0.0,0.0,0.0,0.0,0.0,0.0,0.0,0.0,0.0,0.0,0.0,0.0,0.0,0.0,0.0,0.0,0.0,0.0,0.0,0.0,0.0,0.0,0.0,0.0,0.0,0.0,0.0,0.0,0.0,0.0,0.0,0.0,0.0,0.0,0.0,0.0,0.0,0.0,0.0,0.0,0.0,0.0,0.0,0.0,0.0,0.0,0.0,0.0,0.0,0.0,0.0,0.0,0.0,0.0,0.0,0.0,0.0,0.0,0.0,0.0,0.0,0.0,0.0,0.0,0.0,0.0,0.0,0.0,0.0,0.0,0.0,0.0,0.0,0.0,0.0,0.0,0.0,0.0,0.0,0.0,0.0,0.0,0.0,0.0,0.0,0.0,0.0,0.0,0.0,0.0,0.0,0.0,0.0,0.0,0.0,0.0,0.0,0.0,0.0,0.0,0.0,0.0,0.0,0.0,0.0,0.0,0.0,0.0,0.0,0.0,0.0,0.0,0.0,0.0,0.0,0.0,0.0,0.0,0.0,0.0,0.0,0.0,0.0,0.0,0.0,0.0,0.0,0.0,0.0,0.0,0.0,0.0,0.0,0.0,0.0,0.0,0.0,0.0,0.0,0.0,0.0,0.0,0.0,0.0,0.0,0.0,0.0,0.0,0.0,0.0,0.0,0.0,0.0,0.0,0.0,0.0,0.0,0.0,0.0,0.0,0.0,0.0,0.0,0.0,0.0,0.0,0.0,0.0,0.0,0.0,0.0,0.0,0.0,0.0,0.0,0.0,0.0,0.0,0.0,0.0,0.0,0.0,0.0,0.0,0.0,0.0,0.0,0.0,0.0,0.0,0.0,0.0,0.0,0.0,0.0,0.0,0.0,0.0,0.0,0.0,0.0,0.0,0.0,0.0,0.0,0.0,0.0,0.0,0.0,0.0,0.0,0.0,0.0,0.0,0.0,0.0,0.0,0.0,0.0,0.0,0.0,0.0,0.0,0.0,0.0,0.0,0.0,0.0,0.0,0.0,0.0,0.0,0.0,0.0,0.0,0.0,0.0,0.0,0.0,0.0,0.0,0.0,0.0,0.0,0.0,0.0,0.0,0.0,0.0,0.0,0.0,0.0,0.0,0.0,0.0,0.0,0.0,0.0,0.0,0.0,0.0,0.0,0.0,0.0,0.0,0.0,0.0,0.0,0.0,0.0,0.0,0.0,0.0,0.0,0.0,0.0,0.0,0.0,0.0,0.0,0.0,0.0,0.0,0.0,0.0,0.0,0.0,0.0,0.0,0.0,0.0,0.0,0.0,0.0,0.0,0.0,0.0,0.0,0.0,0.0,0.0,0.0,0.0,0.0,0.0,0.0,0.0,0.0,0.0,0.0,0.0,0.0,0.0,0.0,0.0,0.0,0.0,0.0,0.0,0.0,0.0,0.0,0.0,0.0,0.0,0.0,0.0,0.0,0.0,0.0,0.0,0.0,0.0,0.0,0.0,0.0,0.0,0.0,0.0,0.0,0.0,0.0,0.0,0.0,0.0,0.0,0.0,0.0,0.0,0.0,0.0,0.0,0.0,0.0,0.0,0.0,0.0,0.0,0.0,0.0,0.0,0.0,0.0,0.0,0.0,0.0,0.0,0.0,0.0,0.0,0.0,0.0,0.0,0.0,0.0,0.0,0.0,0.0,0.0,0.0,0.0,0.0,0.0,0.0,0.0,0.0,0.0,0.0,0.0,0.0,0.0,0.0,0.0,0.0,0.0,0.0,0.0,0.0,0.0,0.0,0.0,0.0,0.0,0.0,0.0,0.0,0.0,0.0,0.0,0.0,0.0,0.0,0.0,0.0,0.0,0.0,0.0,0.0,0.0,0.0,0.0,0.0,0.0,0.0,0.0,0.0,0.0,0.0,0.0,0.0,0.0,0.0,0.0,0.0,0.0,0.0,0.0,0.0,0.0,0.0,0.0,0.0,0.0,0.0,0.0,0.0,0.0,0.0,0.0,0.0,0.0,0.0,0.0,0.0,0.0,0.0,0.0,0.0,0.0,0.0,0.0,0.0,0.0,0.0,0.0,0.0,0.0,0.0,0.0,0.0,0.0,0.0,0.0,0.0,0.0,0.0,0.0,0.0,0.0,0.0,0.0,0.0,0.0,0.0,0.0,0.0,0.0,0.0,0.0,0.0,0.0,0.0,0.0,0.0,0.0,0.0,0.0,0.0,0.0,0.0,0.0,0.0,0.0,0.0,0.0,0.0,0.0,0.0,0.0,0.0,0.0,0.0,0.0,0.0,0.0,0.0,0.0,0.0,0.0,0.0,0.0,0.0,0.0,0.0,0.0,0.0,0.0,0.0,0.0,0.0,0.0,0.0,0.0,0.0,0.0,0.0,0.0,0.0,0.0,0.0,0.0,0.0,0.0,0.0,0.0,0.0,0.0,0.0,0.0,0.0,0.0,0.0,0.0,0.0,0.0,0.0,0.0,0.0,0.0,0.0,0.0,0.0,0.0,0.0,0.0,0.0,0.1547,0.0,0.0,0.0,0.0,0.0,0.0,0.0,0.0,0.0,0.0,0.0,0.0,0.0,0.0,0.0,0.0,0.0,0.0,0.0,0.0,0.0,0.0,0.0,0.0,0.0,0.0,0.0,0.0,0.0,0.0,0.0,0.0,0.0,0.0,0.0,0.0,0.0,0.0,0.0,0.0,0.0,0.0,0.0,0.0,0.0,0.0,0.0,0.0,0.0,0.0,0.0,0.0,0.0,0.0,0.0,0.0,0.0,0.0,0.0,0.0,0.0,0.0,0.0,0.0,0.0,0.0,0.0,0.0,0.0,0.0,0.0,0.0,0.0,0.0,0.0,0.0,0.0,0.0,0.0,0.0,0.0,0.0,0.0,0.0,0.0,0.0,0.0,0.0,0.0,0.0,0.0,0.0,0.0,0.0,0.0,0.0,0.0,0.0,0.0,0.0,0.0,0.0,0.0,0.0,0.0,0.0,0.0,0.0,0.0,0.0,0.1801,0.1791,0.1791,0.1811,0.1809,0.0,0.0,0.0,0.0,0.0,0.0,0.0,0.0,0.0,0.0,0.0,0.0,0.0,0.0,0.0,0.0,0.0,0.0,0.0,0.0,0.0,0.0,0.0,0.0,0.0,0.0,0.0,0.0,0.0,0.0,0.0,0.0,0.0,0.0,0.0,0.0,0.0,0.0,0.0,0.0,0.0,0.0,0.0,0.0,0.0,0.0,0.0,0.0,0.0,0.0,0.0,0.0,0.0,0.0,0.0,0.0,0.0,0.0,0.0,0.0,0.0,0.0,0.0,0.0,0.0,0.0,0.0,0.0,0.0,0.0,0.0,0.0,0.0,0.0,0.0,0.0,0.0,0.0,0.0,0.0,0.0,0.0,0.0,0.0,0.0,0.0,0.0,0.0,0.0,0.0,0.0,0.0,0.0,0.0,0.0,0.0,0.0,0.0,0.0,0.0,0.0,0.0,0.0,0.0,0.0,0.0,0.0,0.0,0.0,0.0,0.0,0.0,0.1934,0.1938,0.1951,0.0,0.0,0.0,0.0,0.0,0.0,0.0,0.0,0.0,0.0,0.0,0.0,0.0,0.0,0.0,0.0,0.0,0.0,0.0,0.0,0.0,0.0,0.0,0.0,0.0,0.0,0.0,0.0,0.0,0.0,0.0,0.0,0.0,0.0,0.0,0.0,0.0,0.0,0.0,0.0,0.0,0.0,0.0,0.0,0.0,0.0,0.0,0.0,0.0,0.0,0.0,0.0,0.0,0.0,0.0,0.0,0.0,0.0,0.0,0.0,0.0,0.0,0.0,0.0,0.0,0.0,0.0,0.0,0.0,0.0,0.0,0.0,0.0,0.0,0.0,0.0,0.0,0.0,0.0,0.0,0.0,0.0,0.0,0.0,0.0,0.0,0.0,0.0,0.0,0.0,0.0,0.0,0.0,0.0,0.0,0.0,0.0,0.0,0.0,0.0,0.0,0.0,0.0,0.0,0.0,0.0,0.0,0.0,0.0,0.0,0.1973,0.2345,0.2348,0.0,0.2407,0.0,0.0,0.0,0.0,0.0,0.0,0.0,0.0,0.0,0.0,0.0,0.0,0.0,0.0,0.0,0.0,0.0,0.0,0.0,0.0,0.0,0.0,0.0,0.0,0.0,0.0,0.0,0.0,0.0,0.0,0.0,0.0,0.0,0.0,0.0,0.0,0.0,0.0,0.0,0.0,0.0,0.0,0.0,0.0,0.0,0.0,0.0,0.0,0.0,0.0,0.0,0.0,0.0,0.0,0.0,0.0,0.0,0.0,0.0,0.0,0.0,0.0,0.0,0.0,0.0,0.0,0.0,0.0,0.0,0.0,0.0,0.0,0.0,0.0,0.0,0.0,0.0,0.0,0.0,0.0,0.0,0.0,0.0,0.0,0.0,0.0,0.0,0.0,0.0,0.0,0.0,0.0,0.0,0.0,0.0,0.0,0.0,0.0,0.0,0.0,0.0,0.0,0.0,0.0,0.0,0.0,0.0,0.0,0.0,0.0,0.2431,0.2288,0.2491,0.2406,0.0,0.0,0.0,0.0,0.0,0.0,0.0,0.0,0.0,0.0,0.0,0.0,0.0,0.0,0.0,0.0,0.0,0.0,0.0,0.0,0.0,0.0,0.0,0.0,0.0,0.0,0.0,0.0,0.0,0.0,0.0,0.0,0.0,0.0,0.0,0.0,0.0,0.0,0.0,0.0,0.0,0.0,0.0,0.0,0.0,0.0,0.0,0.0,0.0,0.0,0.0,0.0,0.0,0.0,0.0,0.0,0.0,0.0,0.0,0.0,0.0,0.0,0.0,0.0,0.0,0.0,0.0,0.0,0.0,0.0,0.0,0.0,0.0,0.0,0.0,0.0,0.0,0.0,0.0,0.0,0.0,0.0,0.0,0.0,0.0,0.0,0.0,0.0,0.0,0.0,0.0,0.0,0.0,0.0,0.0,0.0,0.0,0.0,0.0,0.0,0.0,0.0,0.0,0.0,0.0,0.0,0.0,0.0,0.0,0.0,0.2684,0.0,0.249,0.277,0.273,0.2299,0.0,0.0,0.0,0.0,0.0,0.0,0.0,0.0,0.0,0.0,0.0,0.0,0.0,0.0,0.0,0.0,0.0,0.0,0.0,0.0,0.0,0.0,0.0,0.0,0.0,0.0,0.0,0.0,0.0,0.0,0.0,0.0,0.0,0.0,0.0,0.0,0.0,0.0,0.0,0.0,0.0,0.0,0.0,0.0,0.0,0.0,0.0,0.0,0.0,0.0,0.0,0.0,0.0,0.0,0.0,0.0,0.0,0.0,0.0,0.0,0.0,0.0,0.0,0.0,0.0,0.0,0.0,0.0,0.0,0.0,0.0,0.0,0.0,0.0,0.0,0.0,0.0,0.0,0.0,0.0,0.0,0.0,0.0,0.0,0.0,0.0,0.0,0.0,0.0,0.0,0.0,0.0,0.0,0.0,0.0,0.0,0.0,0.0,0.0,0.0,0.0,0.0,0.0,0.0,0.0,0.0,0.0,0.0,0.0,0.2967,0.2818,0.308,0.3327,0.3459,0.0,0.0,0.0,0.0,0.0,0.0,0.0,0.0,0.0,0.0,0.0,0.0,0.0,0.0,0.0,0.0,0.0,0.0,0.0,0.0,0.0,0.0,0.0,0.0,0.0,0.0,0.0,0.0,0.0,0.0,0.0,0.0,0.0,0.0,0.0,0.0,0.0,0.0,0.0,0.0,0.0,0.0,0.0,0.0,0.0,0.0,0.0,0.0,0.0,0.0,0.0,0.0,0.0,0.0,0.0,0.0,0.0,0.0,0.0,0.0,0.0,0.0,0.0,0.0,0.0,0.0,0.0,0.0,0.0,0.0,0.0,0.0,0.0,0.0,0.0,0.0,0.0,0.0,0.0,0.0,0.0,0.0,0.0,0.0,0.0,0.0,0.0,0.0,0.0,0.0,0.0,0.0,0.0,0.0,0.0,0.0,0.0,0.0,0.0,0.0,0.0,0.0,0.0,0.0,0.0,0.0,0.0,0.0,0.0,0.3468,0.3302,0.3381,0.3729,0.3589,0.3507,0.0,0.0,0.0,0.0,0.0,0.0,0.0,0.0,0.0,0.0,0.0,0.0,0.0,0.0,0.0,0.0,0.0,0.0,0.0,0.0,0.0,0.0,0.0,0.0,0.0,0.0,0.0,0.0,0.0,0.0,0.0,0.0,0.0,0.0,0.0,0.0,0.0,0.0,0.0,0.0,0.0,0.0,0.0,0.0,0.0,0.0,0.0,0.0,0.0,0.0,0.0,0.0,0.0,0.0,0.0,0.0,0.0,0.0,0.0,0.0,0.0,0.0,0.0,0.0,0.0,0.0,0.0,0.0,0.0,0.0,0.0,0.0,0.0,0.0,0.0,0.0,0.0,0.0,0.0,0.0,0.0,0.0,0.0,0.0,0.0,0.0,0.0,0.0,0.0,0.0,0.0,0.0,0.0,0.0,0.0,0.0,0.0,0.0,0.0,0.0,0.0,0.0,0.0,0.0,0.0,0.0,0.0,0.0,0.0,0.3607,0.0,0.3907,0.0,0.3741,0.3584,0.0,0.0,0.0,0.0,0.0,0.0,0.0,0.0,0.0,0.0,0.0,0.0,0.0,0.0,0.0,0.0,0.0,0.0,0.0,0.0,0.0,0.0,0.0,0.0,0.0,0.0,0.0,0.0,0.0,0.0,0.0,0.0,0.0,0.0,0.0,0.0,0.0,0.0,0.0,0.0,0.0,0.0,0.0,0.0,0.0,0.0,0.0,0.0,0.0,0.0,0.0,0.0,0.0,0.0,0.0,0.0,0.0,0.0,0.0,0.0,0.0,0.0,0.0,0.0,0.0,0.0,0.0,0.0,0.0,0.0,0.0,0.0,0.0,0.0,0.0,0.0,0.0,0.0,0.0,0.0,0.0,0.0,0.0,0.0,0.0,0.0,0.0,0.0,0.0,0.0,0.0,0.0,0.0,0.0,0.0,0.0,0.0,0.0,0.0,0.0,0.0,0.0,0.0,0.0,0.0,0.0,0.0,0.0,0.3635,0.388,0.4204,0.4354,0.4293,0.3819,0.3795,0.0,0.0,0.0,0.0,0.0,0.0,0.0,0.0,0.0,0.0,0.0,0.0,0.0,0.0,0.0,0.0,0.0,0.0,0.0,0.0,0.0,0.0,0.0,0.0,0.0,0.0,0.0,0.0,0.0,0.0,0.0,0.0,0.0,0.0,0.0,0.0,0.0,0.0,0.0,0.0,0.0,0.0,0.0,0.0,0.0,0.0,0.0,0.0,0.0,0.0,0.0,0.0,0.0,0.0,0.0,0.0,0.0,0.0,0.0,0.0,0.0,0.0,0.0,0.0,0.0,0.0,0.0,0.0,0.0,0.0,0.0,0.0,0.0,0.0,0.0,0.0,0.0,0.0,0.0,0.0,0.0,0.0,0.0,0.0,0.0,0.0,0.0,0.0,0.0,0.0,0.0,0.0,0.0,0.0,0.0,0.0,0.0,0.0,0.0,0.0,0.0,0.0,0.0,0.0,0.0,0.0,0.0,0.0,0.0,0.3905,0.4409,0.4715,0.4771,0.4666,0.4657,0.0,0.0,0.0,0.0,0.0,0.0,0.0,0.0,0.0,0.0,0.0,0.0,0.0,0.0,0.0,0.0,0.0,0.0,0.0,0.0,0.0,0.0,0.0,0.0,0.0,0.0,0.0,0.0,0.0,0.0,0.0,0.0,0.0,0.0,0.0,0.0,0.0,0.0,0.0,0.0,0.0,0.0,0.0,0.0,0.0,0.0,0.0,0.0,0.0,0.0,0.0,0.0,0.0,0.0,0.0,0.0,0.0,0.0,0.0,0.0,0.0,0.0,0.0,0.0,0.0,0.0,0.0,0.0,0.0,0.0,0.0,0.0,0.0,0.0,0.0,0.0,0.0,0.0,0.0,0.0,0.0,0.0,0.0,0.0,0.0,0.0,0.0,0.0,0.0,0.0,0.0,0.0,0.0,0.0,0.0,0.0,0.0,0.0,0.0,0.0,0.0,0.0,0.0,0.0,0.0,0.0,0.0,0.0,0.0,0.4123,0.4711,0.5104,0.5312,0.5494,0.5413,0.5053,0.0,0.0,0.0,0.0,0.0,0.0,0.0,0.0,0.0,0.0,0.0,0.0,0.0,0.0,0.0,0.0,0.0,0.0,0.0,0.0,0.0,0.0,0.0,0.0,0.0,0.0,0.0,0.0,0.0,0.0,0.0,0.0,0.0,0.0,0.0,0.0,0.0,0.0,0.0,0.0,0.0,0.0,0.0,0.0,0.0,0.0,0.0,0.0,0.0,0.0,0.0,0.0,0.0,0.0,0.0,0.0,0.0,0.0,0.0,0.0,0.0,0.0,0.0,0.0,0.0,0.0,0.0,0.0,0.0,0.0,0.0,0.0,0.0,0.0,0.0,0.0,0.0,0.0,0.0,0.0,0.0,0.0,0.0,0.0,0.0,0.0,0.0,0.0,0.0,0.0,0.0,0.0,0.0,0.0,0.0,0.0,0.0,0.0,0.0,0.0,0.0,0.0,0.0,0.0,0.0,0.0,0.0,0.0,0.4532,0.5162,0.5596,0.583,0.6143,0.5958,0.0,0.0,0.0,0.0,0.0,0.0,0.0,0.0,0.0,0.0,0.0,0.0,0.0,0.0,0.0,0.0,0.0,0.0,0.0,0.0,0.0,0.0,0.0,0.0,0.0,0.0,0.0,0.0,0.0,0.0,0.0,0.0,0.0,0.0,0.0,0.0,0.0,0.0,0.0,0.0,0.0,0.0,0.0,0.0,0.0,0.0,0.0,0.0,0.0,0.0,0.0,0.0,0.0,0.0,0.0,0.0,0.0,0.0,0.0,0.0,0.0,0.0,0.0,0.0,0.0,0.0,0.0,0.0,0.0,0.0,0.0,0.0,0.0,0.0,0.0,0.0,0.0,0.0,0.0,0.0,0.0,0.0,0.0,0.0,0.0,0.0,0.0,0.0,0.0,0.0,0.0,0.0,0.0,0.0,0.0,0.0,0.0,0.0,0.0,0.0,0.0,0.0,0.0,0.0,0.0,0.0,0.0,0.0,0.0,0.6088,0.6361,0.6445,0.6322,0.5745,0.5626,0.0,0.0,0.0,0.0,0.0,0.0,0.0,0.0,0.0,0.0,0.0,0.0,0.0,0.0,0.0,0.0,0.0,0.0,0.0,0.0,0.0,0.0,0.0,0.0,0.0,0.0,0.0,0.0,0.0,0.0,0.0,0.0,0.0,0.0,0.0,0.0,0.0,0.0,0.0,0.0,0.0,0.0,0.0,0.0,0.0,0.0,0.0,0.0,0.0,0.0,0.0,0.0,0.0,0.0,0.0,0.0,0.0,0.0,0.0,0.0,0.0,0.0,0.0,0.0,0.0,0.0,0.0,0.0,0.0,0.0,0.0,0.0,0.0,0.0,0.0,0.0,0.0,0.0,0.0,0.0,0.0,0.0,0.0,0.0,0.0,0.0,0.0,0.0,0.0,0.0,0.0,0.0,0.0,0.0,0.0,0.0,0.0,0.0,0.0,0.0,0.0,0.0,0.0,0.0,0.0,0.0,0.0,0.0,0.5644,0.6087,0.6482,0.6637,0.6641,0.6367,0.6178,0.0,0.0,0.0,0.0,0.0,0.0,0.0,0.0,0.0,0.0,0.0,0.0,0.0,0.0,0.0,0.0,0.0,0.0,0.0,0.0,0.0,0.0,0.0,0.0,0.0,0.0,0.0,0.0,0.0,0.0,0.0,0.0,0.0,0.0,0.0,0.0,0.0,0.0,0.0,0.0,0.0,0.0,0.0,0.0,0.0,0.0,0.0,0.0,0.0,0.0,0.0,0.0,0.0,0.0,0.0,0.0,0.0,0.0,0.0,0.0,0.0,0.0,0.0,0.0,0.0,0.0,0.0,0.0,0.0,0.0,0.0,0.0,0.0,0.0,0.0,0.0,0.0,0.0,0.0,0.0,0.0,0.0,0.0,0.0,0.0,0.0,0.0,0.0,0.0,0.0,0.0,0.0,0.0,0.0,0.0,0.0,0.0,0.0,0.0,0.0,0.0,0.0,0.0,0.0,0.0,0.0,0.0,0.0,0.5493,0.5529,0.6131,0.6607,0.6928,0.7424,0.7105,0.0,0.0,0.0,0.0,0.0,0.0,0.0,0.0,0.0,0.0,0.0,0.0,0.0,0.0,0.0,0.0,0.0,0.0,0.0,0.0,0.0,0.0,0.0,0.0,0.0,0.0,0.0,0.0,0.0,0.0,0.0,0.0,0.0,0.0,0.0,0.0,0.0,0.0,0.0,0.0,0.0,0.0,0.0,0.0,0.0,0.0,0.0,0.0,0.0,0.0,0.0,0.0,0.0,0.0,0.0,0.0,0.0,0.0,0.0,0.0,0.0,0.0,0.0,0.0,0.0,0.0,0.0,0.0,0.0,0.0,0.0,0.0,0.0,0.0,0.0,0.0,0.0,0.0,0.0,0.0,0.0,0.0,0.0,0.0,0.0,0.0,0.0,0.0,0.0,0.0,0.0,0.0,0.0,0.0,0.0,0.0,0.0,0.0,0.0,0.0,0.0,0.0,0.0,0.0,0.0,0.0,0.0,0.0,0.7187,0.705,0.7419,0.7676,0.7747,0.7723,0.7152,0.0,0.0,0.0,0.0,0.0,0.0,0.0,0.0,0.0,0.0,0.0,0.0,0.0,0.0,0.0,0.0,0.0,0.0,0.0,0.0,0.0,0.0,0.0,0.0,0.0,0.0,0.0,0.0,0.0,0.0,0.0,0.0,0.0,0.0,0.0,0.0,0.0,0.0,0.0,0.0,0.0,0.0,0.0,0.0,0.0,0.0,0.0,0.0,0.5011,0.0,0.0,0.0,0.0,0.0,0.0,0.0,0.0,0.0,0.0,0.0,0.0,0.0,0.0,0.0,0.0,0.0,0.0,0.0,0.0,0.0,0.0,0.0,0.0,0.0,0.0,0.0,0.0,0.0,0.0,0.0,0.0,0.0,0.0,0.0,0.0,0.0,0.0,0.0,0.0,0.0,0.0,0.0,0.0,0.0,0.0,0.0,0.0,0.0,0.0,0.0,0.0,0.0,0.0,0.0,0.0,0.0,0.0,0.0,0.7103,0.6926,0.7065,0.728,0.7509,0.7265,0.6749,0.0,0.0,0.0,0.0,0.0,0.0,0.0,0.0,0.0,0.0,0.0,0.0,0.0,0.0,0.0,0.0,0.0,0.0,0.0,0.0,0.0,0.0,0.0,0.0,0.0,0.0,0.0,0.0,0.0,0.0,0.0,0.0,0.0,0.0,0.0,0.0,0.0,0.0,0.0,0.0,0.0,0.0,0.0,0.0,0.0,0.0,0.0,0.0,0.0,0.0,0.0,0.0,0.0,0.0,0.0,0.0,0.0,0.0,0.0,0.0,0.0,0.0,0.0,0.0,0.0,0.0,0.0,0.0,0.0,0.0,0.0,0.0,0.0,0.0,0.0,0.0,0.0,0.0,0.0,0.0,0.0,0.0,0.0,0.0,0.0,0.0,0.0,0.0,0.0,0.0,0.0,0.0,0.0,0.0,0.0,0.0,0.0,0.0,0.0,0.0,0.0,0.0,0.0,0.0,0.0,0.0,0.0,0.5999,0.6378,0.6499,0.6418,0.6635,0.712,0.6712,0.6226,0.583,0.0,0.0,0.0,0.0,0.0,0.0,0.0,0.0,0.0,0.0,0.0,0.0,0.0,0.0,0.0,0.0,0.0,0.0,0.0,0.0,0.0,0.0,0.0,0.0,0.0,0.0,0.0,0.0,0.0,0.0,0.0,0.0,0.0,0.0,0.0,0.0,0.0,0.0,0.5097,0.491,0.0,0.0,0.0,0.0,0.0,0.0,0.0,0.0,0.4597,0.0,0.0,0.0,0.0,0.0,0.0,0.0,0.0,0.0,0.0,0.0,0.0,0.0,0.0,0.0,0.0,0.0,0.0,0.0,0.0,0.0,0.0,0.0,0.0,0.0,0.0,0.0,0.0,0.0,0.0,0.0,0.0,0.0,0.0,0.0,0.0,0.0,0.0,0.0,0.0,0.0,0.0,0.0,0.0,0.0,0.0,0.0,0.0,0.0,0.0,0.0,0.0,0.0,0.0,0.0,0.0,0.6197,0.5729,0.6253,0.7803,0.743,0.7384,0.7709,0.6775,0.6002,0.5415,0.0,0.0,0.0,0.0,0.0,0.0,0.0,0.0,0.0,0.0,0.0,0.0,0.0,0.0,0.0,0.0,0.0,0.0,0.0,0.0,0.0,0.0,0.0,0.0,0.0,0.0,0.0,0.0,0.0,0.0,0.0,0.0,0.0,0.0,0.0,0.0,0.0,0.0,0.0,0.4833,0.4647,0.0,0.0,0.0,0.0,0.0,0.0,0.0,0.0,0.5093,0.0,0.0,0.0,0.0,0.0,0.0,0.0,0.0,0.0,0.0,0.0,0.0,0.0,0.0,0.0,0.0,0.0,0.0,0.0,0.0,0.0,0.0,0.0,0.0,0.0,0.0,0.0,0.0,0.0,0.0,0.0,0.0,0.0,0.0,0.0,0.0,0.0,0.0,0.0,0.0,0.0,0.0,0.0,0.0,0.0,0.0,0.0,0.0,0.0,0.0,0.0,0.0,0.0,0.0,0.0,0.5949,0.6353,0.6842,0.7438,0.7199,0.7181,0.7408,0.646,0.5718,0.0,0.0,0.0,0.0,0.0,0.0,0.0,0.0,0.0,0.0,0.0,0.0,0.0,0.0,0.0,0.0,0.0,0.0,0.0,0.0,0.0,0.0,0.0,0.0,0.0,0.0,0.0,0.0,0.0,0.0,0.0,0.0,0.0,0.0,0.0,0.0,0.0,0.0,0.0,0.0,0.5797,0.5283,0.5123,0.0,0.0,0.0,0.0,0.0,0.0,0.6493,0.6226,0.0,0.0,0.0,0.0,0.0,0.0,0.0,0.0,0.0,0.0,0.0,0.0,0.0,0.0,0.0,0.0,0.0,0.0,0.0,0.0,0.0,0.0,0.0,0.0,0.0,0.0,0.0,0.0,0.0,0.0,0.0,0.0,0.0,0.0,0.0,0.0,0.0,0.0,0.0,0.0,0.0,0.0,0.0,0.0,0.0,0.0,0.0,0.0,0.0,0.0,0.0,0.0,0.0,0.0,0.0,0.6024,0.7116,0.7472,0.7107,0.6905,0.6881,0.7059,0.6267,0.5615,0.0,0.0,0.0,0.0,0.0,0.0,0.0,0.0,0.0,0.0,0.0,0.0,0.0,0.0,0.0,0.0,0.0,0.0,0.0,0.0,0.0,0.0,0.0,0.0,0.0,0.0,0.0,0.0,0.0,0.0,0.0,0.0,0.0,0.0,0.0,0.0,0.0,0.0,0.0,0.0,0.0,0.5961,0.5582,0.5662,0.0,0.0,0.0,0.0,0.5306,0.6384,0.0,0.0,0.0,0.0,0.0,0.0,0.0,0.0,0.0,0.0,0.0,0.0,0.0,0.0,0.0,0.0,0.0,0.0,0.0,0.0,0.0,0.0,0.0,0.0,0.0,0.0,0.0,0.0,0.0,0.0,0.0,0.0,0.0,0.0,0.0,0.0,0.0,0.0,0.0,0.0,0.0,0.0,0.0,0.0,0.0,0.0,0.0,0.0,0.0,0.0,0.0,0.0,0.0,0.0,0.0,0.0,0.7379,0.7602,0.7805,0.7991,0.7225,0.6996,0.7342,0.6583,0.5721,0.0,0.0,0.0,0.0,0.0,0.0,0.0,0.0,0.0,0.0,0.0,0.0,0.0,0.0,0.0,0.0,0.0,0.0,0.0,0.0,0.0,0.0,0.0,0.0,0.0,0.0,0.0,0.0,0.0,0.0,0.0,0.0,0.0,0.0,0.0,0.0,0.0,0.0,0.0,0.0,0.0,0.6315,0.5983,0.5571,0.5262,0.0,0.0,0.6006,0.5398,0.5441,0.0,0.0,0.0,0.0,0.0,0.0,0.0,0.0,0.0,0.0,0.0,0.0,0.0,0.0,0.0,0.0,0.0,0.0,0.0,0.0,0.0,0.0,0.0,0.0,0.0,0.0,0.0,0.0,0.0,0.0,0.0,0.0,0.0,0.0,0.0,0.0,0.0,0.0,0.0,0.0,0.0,0.0,0.0,0.0,0.0,0.0,0.0,0.0,0.0,0.0,0.0,0.0,0.0,0.0,0.0,0.5951,0.762,0.7688,0.7859,0.8152,0.7341,0.7031,0.7367,0.6296,0.5401,0.0,0.0,0.0,0.0,0.0,0.0,0.0,0.0,0.0,0.0,0.0,0.0,0.0,0.0,0.0,0.0,0.0,0.0,0.0,0.0,0.0,0.0,0.0,0.0,0.0,0.0,0.0,0.0,0.0,0.0,0.0,0.0,0.0,0.0,0.0,0.0,0.0,0.0,0.0,0.0,0.0,0.0,0.6265,0.6139,0.0,0.0,0.0,0.623,0.5994,0.0,0.0,0.0,0.0,0.0,0.0,0.0,0.0,0.0,0.0,0.0,0.0,0.0,0.0,0.0,0.0,0.0,0.0,0.0,0.0,0.0,0.0,0.0,0.0,0.0,0.0,0.0,0.0,0.0,0.0,0.0,0.0,0.0,0.0,0.0,0.0,0.0,0.0,0.0,0.0,0.0,0.0,0.0,0.0,0.0,0.0,0.0,0.0,0.0,0.0,0.0,0.0,0.0,0.0,0.0,0.0,0.0,0.765,0.7693,0.7805,0.7976,0.7303,0.6976,0.71,0.5991,0.0,0.0,0.0,0.0,0.0,0.0,0.0,0.0,0.0,0.0,0.0,0.0,0.0,0.0,0.0,0.0,0.0,0.0,0.0,0.0,0.0,0.0,0.0,0.0,0.0,0.0,0.0,0.2716,0.0,0.0,0.0,0.0,0.0,0.0,0.0,0.0,0.0,0.0,0.0,0.0,0.0,0.0,0.6958,0.6612,0.66,0.6556,0.0,0.0,0.628,0.6479,0.6062,0.5639,0.0,0.0,0.0,0.0,0.0,0.0,0.0,0.0,0.0,0.0,0.0,0.0,0.0,0.0,0.0,0.0,0.0,0.0,0.0,0.0,0.0,0.0,0.0,0.0,0.0,0.0,0.0,0.0,0.0,0.0,0.0,0.0,0.0,0.0,0.0,0.0,0.0,0.0,0.0,0.0,0.0,0.0,0.0,0.0,0.0,0.0,0.0,0.0,0.0,0.0,0.0,0.0,0.0,0.0,0.0,0.7625,0.7693,0.7638,0.7529,0.7107,0.6743,0.6364,0.5943,0.5291,0.0,0.0,0.0,0.0,0.0,0.0,0.0,0.0,0.0,0.0,0.0,0.0,0.0,0.0,0.0,0.0,0.0,0.0,0.0,0.0,0.0,0.0,0.0,0.0,0.0,0.0,0.0,0.0,0.0,0.0,0.0,0.0,0.0,0.0,0.0,0.0,0.0,0.0,0.0,0.0,0.0,0.6512,0.7139,0.6649,0.6409,0.0,0.0,0.6288,0.6465,0.672,0.6514,0.5467,0.0,0.0,0.0,0.0,0.0,0.0,0.0,0.0,0.0,0.0,0.0,0.0,0.0,0.0,0.0,0.0,0.0,0.0,0.0,0.0,0.0,0.0,0.0,0.0,0.0,0.0,0.0,0.0,0.0,0.0,0.0,0.0,0.0,0.0,0.0,0.0,0.0,0.0,0.0,0.0,0.0,0.0,0.0,0.0,0.0,0.0,0.0,0.0,0.0,0.0,0.0,0.0,0.0,0.5967,0.765,0.7693,0.7935,0.837,0.7284,0.684,0.7229,0.6094,0.5117,0.0,0.0,0.0,0.0,0.0,0.0,0.0,0.0,0.0,0.0,0.0,0.0,0.0,0.0,0.0,0.0,0.0,0.0,0.0,0.0,0.0,0.0,0.0,0.0,0.0,0.0,0.0,0.0,0.2817,0.2856,0.3192,0.0,0.0,0.0,0.0,0.0,0.0,0.0,0.0,0.0,0.0,0.5497,0.6651,0.6465,0.0,0.0,0.6813,0.6721,0.6813,0.692,0.6663,0.5719,0.5204,0.0,0.0,0.0,0.0,0.0,0.0,0.0,0.0,0.0,0.0,0.0,0.0,0.0,0.0,0.0,0.0,0.0,0.0,0.0,0.0,0.0,0.0,0.0,0.0,0.0,0.0,0.0,0.0,0.0,0.0,0.0,0.0,0.0,0.0,0.0,0.0,0.0,0.0,0.0,0.0,0.0,0.0,0.0,0.0,0.0,0.0,0.0,0.0,0.0,0.0,0.0,0.0,0.5967,0.7674,0.7945,0.8242,0.8513,0.7326,0.6892,0.728,0.6025,0.5003,0.0,0.0,0.0,0.0,0.0,0.0,0.0,0.0,0.0,0.0,0.0,0.0,0.0,0.0,0.0,0.0,0.0,0.0,0.0,0.0,0.0,0.0,0.0,0.0,0.0,0.0,0.0,0.0,0.2831,0.2879,0.3238,0.0,0.0,0.0,0.0,0.0,0.0,0.0,0.0,0.0,0.0,0.455,0.5633,0.6026,0.6346,0.6689,0.6894,0.6975,0.6975,0.6987,0.6761,0.6078,0.0,0.0,0.0,0.0,0.0,0.0,0.0,0.0,0.0,0.0,0.0,0.0,0.0,0.0,0.0,0.0,0.0,0.0,0.0,0.0,0.0,0.0,0.0,0.0,0.0,0.0,0.0,0.5023,0.0,0.0,0.5429,0.0,0.0,0.0,0.0,0.0,0.0,0.0,0.0,0.0,0.0,0.0,0.0,0.0,0.0,0.0,0.0,0.0,0.0,0.0,0.0,0.0,0.0,0.5967,0.7685,0.8519,0.8484,0.7595,0.7249,0.6848,0.6376,0.5655,0.5007,0.4426,0.0,0.0,0.0,0.0,0.0,0.0,0.0,0.0,0.0,0.0,0.0,0.0,0.0,0.0,0.0,0.0,0.0,0.0,0.0,0.0,0.0,0.0,0.0,0.0,0.0,0.0,0.2224,0.2451,0.264,0.0,0.0,0.0,0.0,0.0,0.0,0.0,0.0,0.0,0.0,0.369,0.3735,0.4128,0.5321,0.615,0.6233,0.665,0.6982,0.6985,0.6951,0.6901,0.0,0.0,0.0,0.0,0.0,0.0,0.0,0.0,0.0,0.0,0.0,0.0,0.0,0.0,0.0,0.0,0.0,0.0,0.0,0.0,0.0,0.0,0.0,0.0,0.0,0.0,0.0,0.6095,0.643,0.0,0.0,0.0,0.0,0.0,0.0,0.0,0.0,0.0,0.0,0.0,0.8806,0.8803,0.0,0.0,0.0,0.0,0.0,0.0,0.0,0.0,0.0,0.0,0.0,0.0,0.5967,0.7659,0.8574,0.8568,0.7715,0.7286,0.6885,0.6424,0.5683,0.5003,0.4419,0.0,0.0,0.0,0.0,0.0,0.0,0.0,0.0,0.0,0.0,0.0,0.0,0.0,0.0,0.0,0.0,0.0,0.0,0.0,0.0,0.0,0.0,0.0,0.0,0.0,0.2191,0.0,0.0,0.0,0.0,0.0,0.0,0.0,0.0,0.0,0.0,0.0,0.3151,0.3619,0.3613,0.3829,0.4405,0.4576,0.5101,0.0,0.0,0.0,0.0,0.0,0.0,0.0,0.0,0.0,0.0,0.0,0.0,0.0,0.0,0.5098,0.3218,0.2794,0.3086,0.4363,0.0,0.0,0.0,0.0,0.0,0.0,0.0,0.0,0.0,0.0,0.0,0.0,0.0,0.0,0.7211,0.8067,0.7615,0.0,0.0,0.0,0.0,0.0,0.0,0.0,0.0,0.9592,1.0091,1.1029,1.1068,1.0626,0.0,0.789,0.6926,0.0,0.0,0.0,0.0,0.0,0.0,0.0,0.0,0.5951,0.7665,0.8545,0.8795,0.8347,0.7694,0.7113,0.6658,0.5663,0.4947,0.4535,0.4158,0.3865,0.0,0.0,0.0,0.0,0.0,0.0,0.0,0.0,0.0,0.0,0.0,0.0,0.0,0.0,0.0,0.0,0.0,0.0,0.0,0.0,0.0,0.0,0.0,0.2345,0.0,0.0,0.0,0.0,0.0,0.0,0.0,0.0,0.0,0.4071,0.3499,0.3119,0.3388,0.3542,0.3768,0.426,0.0,0.0,0.0,0.0,0.0,0.0,0.0,0.4008,0.516,0.4835,0.4561,0.4928,0.5047,0.5095,0.5118,0.0,0.0,0.3997,0.3359,0.3324,0.4281,0.5336,0.5713,0.4555,0.5232,0.5699,0.0,0.0,0.0,0.0,0.0,0.0,0.0,0.0,0.7469,0.8382,0.0,0.9132,0.0,0.0,0.0,0.0,0.8323,0.9928,0.0,0.0,1.0291,1.1701,1.3096,1.3047,1.2604,1.1609,0.9047,0.7625,0.7205,0.5923,0.0,0.0,0.0,0.0,0.0,0.0,0.5968,0.7662,0.8493,0.9077,0.9288,0.8308,0.7494,0.6898,0.5543,0.4792,0.4762,0.4501,0.3967,0.3152,0.3323,0.0,0.0,0.0,0.0,0.0,0.0,0.0,0.0,0.0,0.0,0.0,0.0,0.0,0.0,0.0,0.0,0.0,0.0,0.0,0.0,0.2277,0.0,0.0,0.0,0.0,0.0,0.0,0.0,0.0,0.0,0.0,0.4945,0.4228,0.3468,0.3189,0.0,0.0,0.0,0.0,0.411,0.4696,0.6448,0.7267,0.599,0.4565,0.4134,0.5499,0.0,0.0,0.4864,0.5103,0.5123,0.4792,0.4809,0.4977,0.5172,0.4294,0.372,0.4042,0.4958,0.5632,0.5494,0.4664,0.4026,0.8976,0.0,0.0,0.0,0.0,0.8089,0.8159,0.8699,0.8576,0.8814,0.9333,0.9221,0.0,0.0,0.0,0.0,0.0,0.0,1.0675,1.0153,1.0778,1.1828,1.3141,1.1786,1.0976,1.0686,0.9914,0.9192,0.8486,0.8064,0.7094,0.5551,0.0,0.0,0.0,0.0,0.6601,0.7627,0.7815,0.8096,0.8599,0.77,0.6781,0.5828,0.5055,0.456,0.4376,0.3991,0.3504,0.2988,0.2926,0.0,0.0,0.0,0.0,0.0,0.0,0.0,0.0,0.0,0.0,0.0,0.0,0.0,0.0,0.0,0.0,0.0,0.0,0.0,0.2221,0.2046,0.1979,0.0,0.0,0.0,0.0,0.0,0.0,0.0,0.0,0.0,0.3955,0.3825,0.3563,0.0,0.0,0.3635,0.3779,0.3896,0.4256,0.5016,0.534,0.0,0.5453,0.4764,0.4338,0.4626,0.455,0.4508,0.4588,0.4667,0.4682,0.4577,0.4566,0.4656,0.4695,0.4279,0.4114,0.4534,0.4783,0.4935,0.5035,0.5075,0.4949,1.0523,0.9481,0.9129,0.9266,0.9638,0.9187,0.932,0.9884,0.9588,0.9698,1.0059,1.002,0.9769,0.9424,1.0111,0.0,0.0,0.0,1.1016,1.1014,1.1108,1.1502,1.1928,1.0856,1.0064,0.9716,1.0106,1.0033,0.9494,0.9091,0.8078,0.659,0.0,0.0,0.683,0.6766,0.7045,0.7652,0.7406,0.7436,0.7768,0.7093,0.6219,0.5238,0.4657,0.4278,0.4107,0.3845,0.3457,0.2939,0.2841,0.2685,0.0,0.0,0.0,0.0,0.0,0.0,0.0,0.0,0.0,0.0,0.0,0.2336,0.2567,0.0,0.0,0.0,0.1754,0.2001,0.2113,0.2022,0.0,0.0,0.0,0.0,0.0,0.0,0.0,0.2996,0.3044,0.319,0.3542,0.3819,0.3866,0.3645,0.378,0.3983,0.4031,0.0,0.4351,0.4817,0.4667,0.4604,0.4911,0.473,0.4446,0.4317,0.4402,0.446,0.4462,0.4462,0.4462,0.4462,0.4462,0.4462,0.4462,0.4312,0.4297,0.466,0.4601,0.4549,0.4708,0.506,0.5083,1.1567,1.146,1.0683,1.0321,1.0342,1.0342,1.0479,1.0653,1.0366,1.0712,1.1373,1.108,1.1218,1.176,1.1857,0.0,1.0271,1.0799,1.1264,1.1599,1.1424,1.0983,1.0328,1.0318,0.9752,0.8747,0.9594,1.0092,1.0103,0.9064,0.8514,0.8396,0.7661,0.7213,0.7114,0.7189,0.7352,0.7621,0.7119,0.6835,0.6835,0.6412,0.5793,0.5053,0.4341,0.3958,0.3961,0.3891,0.3568,0.2909,0.2896,0.2575,0.183,0.0,0.0,0.0,0.0,0.0,0.0,0.0,0.0,0.0,0.0,0.0,0.0,0.0,0.0,0.0,0.1723,0.0,0.2042,0.2137,0.0,0.0,0.0,0.2741,0.3227,0.2699,0.2585,0.3455,0.0,0.0,0.3679,0.4168,0.4302,0.3744,0.4151,0.4453,0.4246,0.4387,0.4428,0.4326,0.4379,0.4458,0.4556,0.4498,0.4493,0.4446,0.4462,0.4462,0.4462,0.4462,0.4462,0.4462,0.4462,0.4462,0.4462,0.4505,0.4462,0.4501,0.4505,0.4508,0.4496,0.4555,0.4558,1.1004,1.0982,1.0762,1.0646,1.0511,1.0549,1.0275,0.9829,0.9863,0.9947,0.9991,1.0066,1.0595,1.1481,1.2306,1.2535,1.2307,1.2457,1.2222,1.1792,1.185,1.1343,1.032,1.0335,0.9716,0.8719,0.8089,0.8234,0.9011,0.7947,0.6958,0.6191,0.6744,0.6845,0.6394,0.7015,0.7267,0.7148,0.6197,0.5615,0.5382,0.5124,0.4818,0.442,0.3794,0.3458,0.3458,0.3171,0.2823,0.2391,0.232,0.2138,0.1811,0.1604,0.0,0.0,0.0,0.0,0.0,0.0,0.0,0.0,0.0,0.2376,0.2586,0.0,0.2133,0.0,0.1963,0.2194,0.2162,0.2315,0.0,0.0,0.2775,0.2914,0.3135,0.2984,0.2942,0.3202,0.3428,0.3757,0.423,0.4417,0.4453,0.4282,0.4423,0.4462,0.4415,0.4483,0.4467,0.4411,0.4491,0.4462,0.4462,0.4462,0.4462,0.4462,0.4462,0.4462,0.4462,0.4462,0.4462,0.4462,0.4462,0.4462,0.4462,0.4462,0.4462,0.4462,0.4462,0.4462,0.4462,0.4462,0.4462,1.0109,0.9896,0.9845,0.963,0.9346,1.0293,1.0457,1.0131,1.0429,1.0285,0.9788,0.9638,1.0049,1.0862,1.1199,1.1503,1.1767,1.1556,1.1543,1.1694,1.1267,1.0297,0.8843,0.9342,0.9019,0.7926,0.7282,0.7328,0.7835,0.627,0.5437,0.5292,0.5732,0.5903,0.5795,0.6709,0.7133,0.7001,0.5364,0.4725,0.503,0.4609,0.4243,0.409,0.34,0.3037,0.3045,0.2746,0.2503,0.2306,0.2146,0.1969,0.1791,0.1596,0.1439,0.0,0.0,0.0,0.0,0.0,0.0,0.0,0.0,0.0,0.0,0.0,0.2433,0.2226,0.2352,0.2362,0.2204,0.2436,0.2658,0.2849,0.295,0.3014,0.3064,0.3229,0.3338,0.3349,0.3741,0.4117,0.4418,0.4486,0.4497,0.447,0.4464,0.4466,0.4464,0.4474,0.4462,0.4462,0.4462,0.4462,0.4462,0.4462,0.4462,0.4462,0.4462,0.4462,0.4462,0.4462,0.4462,0.4467,0.4463,0.4465,0.4473,0.4473,0.447,0.4477,0.4479,0.4473,0.4463,0.4462,0.4462,0.8951,0.8414,0.8417,0.806,0.7606,0.9504,1.0301,1.0415,1.0912,1.0622,0.9678,0.9164,0.9314,0.9919,0.9449,0.9588,1.0197,0.9814,1.0326,1.1426,1.0415,0.8959,0.7294,0.7884,0.7734,0.7025,0.6979,0.6983,0.6916,0.4712,0.4077,0.5043,0.481,0.4854,0.5094,0.6073,0.6551,0.6545,0.4582,0.4089,0.5041,0.4322,0.393,0.384,0.3116,0.2688,0.2693,0.2462,0.2357,0.2362,0.2167,0.1956,0.1815,0.1639,0.1532,0.0,0.1148,0.0,0.0,0.0,0.0,0.0,0.0,0.0,0.0,0.1926,0.2384,0.2462,0.2405,0.2277,0.2113,0.2366,0.2619,0.2826,0.2915,0.2916,0.2927,0.3346,0.3584,0.3602,0.379,0.3929,0.3827,0.3914,0.3926,0.4325,0.4206,0.4019,0.4182,0.4349,0.4468,0.4467,0.4465,0.4468,0.4468,0.4467,0.4468,0.4467,0.4467,0.4465,0.4467,0.4465,0.4468,0.4477,0.4244,0.4244,0.4435,0.4485,0.4487,0.449,0.4496,0.449,0.4472,0.4467,0.4465,0.7106,0.6996,0.6999,0.6894,0.6845,0.7216,0.7664,0.808,0.8971,0.8563,0.7311,0.7165,0.7485,0.8132,0.8585,0.9177,0.9849,1.0338,1.0689,1.0926,1.0705,0.9844,0.8366,0.6293,0.5889,0.6925,0.6988,0.6969,0.696,0.4706,0.3696,0.3924,0.4443,0.4443,0.397,0.0,0.0,0.0,0.3825,0.3706,0.3886,0.3756,0.3546,0.3296,0.2888,0.0,0.2661,0.1924,0.1733,0.2216,0.2184,0.0,0.0,0.0,0.0,0.0,0.0,0.0,0.0,0.0,0.0,0.0,0.1071,0.1102,0.0978,0.0708,0.0695,0.1172,0.0807,0.0778,0.1412,0.1524,0.1576,0.1662,0.1865,0.2051,0.2069,0.2955,0.3623,0.3591,0.2004,-0.0,-0.0,0.0832,0.1839,0.3871,0.3416,0.268,0.2678,0.3691,0.4432,0.449,0.4432,0.4432,0.4487,0.4374,0.4317,0.4487,0.4489,0.4489,0.443,0.4374,0.4433,0.4435,0.3523,0.307,0.4152,0.4494,0.4438,0.4437,0.4442,0.4496,0.4489,0.4489,0.449,0.5873,0.5553,0.5553,0.5553,0.0,0.5553,0.5725,0.6064,0.7193,0.6912,0.5621,0.6068,0.6599,0.7149,0.7497,0.7846,0.819,0.8567,0.9148,0.981,0.9818,0.8693,0.6638,0.5198,0.4927,0.5766,0.6203,0.6055,0.5271,0.4157,0.3582,0.359,0.3981,0.3981,0.3633,0.359,0.3581,0.3615,0.2449,0.2095,0.2677,0.2678,0.2637,0.247,0.217,0.0,0.0,0.0,0.0,0.0,0.0,0.0,0.0,0.0,0.0,0.0101,0.0291,0.0386,0.0225,0.0453,0.0729,0.0893,0.1184,0.1335,0.1345,0.0532,0.0121,0.043,0.0199,0.0167,0.0612,0.0677,0.0651,0.0653,0.0826,0.0911,0.0979,0.144,0.1822,0.1745,0.0774,-0.0,-0.0,-0.0,-0.0,0.2015,0.2296,0.2183,0.2239,0.2854,0.3585,0.4325,0.3756,0.3076,0.2513,0.2963,0.3359,0.3416,0.3984,0.4098,0.3473,0.2738,0.2682,0.3874,0.2683,0.1449,0.2127,0.3423,0.405,0.269,0.2295,0.2578,0.3143,0.3363,0.3359,0.5001,0.4517,0.4462,0.4462,0.4462,0.4462,0.4462,0.457,0.5716,0.0,0.0,0.5335,0.5864,0.6228,0.6376,0.6423,0.6423,0.6534,0.7233,0.8422,0.8425,0.7017,0.4517,0.4469,0.4512,0.455,0.5231,0.4933,0.3777,0.3233,0.2981,0.3011,0.3366,0.36,0.36,0.3145,0.2962,0.2872,0.1025,0.049,0.147,0.1479,0.1489,0.1489,0.1206,0.1444,0.2164,0.1476,0.0748,0.0062,0.0476,0.0957,0.1451,0.1495,0.1034,-0.0,-0.0,-0.0,-0.0,0.0458,0.0749,0.0757,0.1202,0.1497,0.1465,0.057,-0.0,-0.0,-0.0,-0.0,-0.0,-0.0,-0.0,-0.0,-0.0,-0.0,-0.0,-0.0,-0.0,-0.0,-0.0,-0.0,-0.0,-0.0,-0.0,-0.0,0.1065,0.1797,0.1796,0.1791,0.2179,0.308,0.2461,0.1394,0.0557,0.1004,0.1786,0.1842,0.2799,0.3192,0.201,0.0836,0.1116,0.3031,0.1508,-0.0,-0.0,0.1962,0.2752,-0.0,-0.0,0.0336,0.1515,0.2297,0.2516,0.457,0.4462,0.4462,0.4462,0.4462,0.4462,0.4462,0.4519,0.4736,0.4675,0.45,0.462,0.4736,0.4846,0.538,0.5649,0.5706,0.631,0.6707,0.6882,0.6908,0.6039,0.4541,0.4469,0.4479,0.4506,0.4623,0.4589,0.4117,0.1784,0.051,-0.0,0.2593,0.3559,0.3428,0.1527,0.0494,0.0494,0.0179,0.0089,0.0269,0.0247,0.0275,0.0235,-0.0,0.0235,0.037,-0.0,0.0133,-0.0,0.0066,0.0164,-0.0,-0.0,0.0156,-0.0,-0.0,-0.0,-0.0,-0.0,0.0124,0.0131,0.0207,0.025,0.0252,0.0111,-0.0,-0.0,-0.0,-0.0,-0.0,-0.0,-0.0,-0.0,-0.0,-0.0,-0.0,-0.0,-0.0,-0.0,-0.0,-0.0,-0.0,-0.0,-0.0,-0.0,-0.0,-0.0,-0.0,0.0336,0.0392,0.056,0.0448,0.0224,-0.0,-0.0,-0.0,0.028,-0.0,-0.0,-0.0,-0.0,-0.0,-0.0,-0.0,-0.0,-0.0,0.0224,-0.0,-0.0,-0.0,-0.0,0.0729,0.2525,0.3257,0.4462,0.4462,0.4462,0.4462,0.4462,0.4467,0.4475,0.448,0.4479,0.4472,0.4462,0.4467,0.4473,0.4536,0.4805,0.4969,0.4969,0.5299,0.547,0.5468,0.5481,0.514,0.4513,0.4479,0.3634,0.2281,0.3754,0.3665,0.2021,0.0598,-0.0,-0.0,0.1132,0.2292,0.3348,0.1214,-0.0,-0.0,-0.0,-0.0,-0.0,-0.0,-0.0,-0.0,-0.0,-0.0,-0.0,-0.0,-0.0,-0.0,-0.0,-0.0,-0.0,-0.0,-0.0,-0.0,-0.0,-0.0,-0.0,-0.0,-0.0,-0.0,-0.0,-0.0,-0.0,-0.0,-0.0,-0.0,-0.0,-0.0,-0.0,-0.0,-0.0,-0.0,-0.0,-0.0,-0.0,-0.0,-0.0,-0.0,-0.0,-0.0,-0.0,-0.0,-0.0,-0.0,-0.0,-0.0,-0.0,-0.0,-0.0,-0.0,-0.0,-0.0,-0.0,-0.0,-0.0,-0.0,-0.0,-0.0,-0.0,-0.0,-0.0,-0.0,-0.0,-0.0,-0.0,-0.0,-0.0,-0.0,-0.0,-0.0,0.2021,0.366,0.3256,0.4463,0.4465,0.4465,0.4467,0.4468,0.4138,0.4146,0.4496,0.4497,0.4485,0.4473,0.448,0.4317,0.3982,0.3984,0.3984,0.3984,0.3984,0.4155,0.4497,0.4499,0.4155,0.353,0.3473,0.2234,0.0446,0.2402,0.2253,-0.0,-0.0,-0.0296,-0.0661,-0.0274,0.0944,0.2705,0.0944,-0.0,-0.0,-0.0,-0.0,-0.0,-0.0,-0.0,-0.0798,-0.0,-0.0536,-0.0309,-0.027,-0.0268,-0.0268,-0.0101,-0.0168,-0.0571,-0.0604,-0.0604,-0.0571,-0.0403,-0.0404,-0.0572,-0.0476,-0.0418,-0.0399,-0.0149,-0.0,-0.0,-0.0,-0.0,-0.0,-0.0,-0.0,-0.0,-0.0,-0.0,-0.0,-0.0,-0.0,-0.0,-0.0,-0.0,-0.0,-0.0,-0.0,-0.0,-0.0,-0.0,-0.0,-0.0,-0.0,-0.0,-0.0,-0.0,-0.0,-0.0,-0.0,-0.0,-0.0,-0.0,-0.0,-0.0,-0.0,-0.0,-0.0,-0.0,-0.0,-0.0,-0.0,-0.0,-0.0,-0.0,-0.0,-0.0,-0.0,0.3608,0.4291,0.388,0.4468,0.4477,0.4477,0.4484,0.4324,0.3073,0.3244,0.4327,0.4499,0.4494,0.4322,0.4494,0.3697,0.2513,0.2457,0.24,0.24,0.24,0.3132,0.427,0.4499,0.3076,-0.0,-0.0,-0.0,-0.0,-0.0,-0.0,-0.0,-0.0,-0.107,-0.2786,-0.108,0.009,0.0312,0.009,-0.0,-0.0,-0.0,-0.0,-0.0,-0.0,-0.105,-0.3195,-0.2701,-0.2042,-0.1225,-0.1202,-0.1172,-0.1138,-0.0435,-0.077,-0.2186,-0.2426,-0.2426,-0.2358,-0.165,-0.1552,-0.2276,-0.1941,-0.1629,-0.1571,-0.067,-0.0,-0.0,-0.0,-0.0,-0.0,-0.0,-0.0,-0.0,-0.0,-0.0,-0.0,-0.0,-0.0,-0.0,-0.0,-0.0,-0.0,-0.0,-0.0,-0.0,-0.0,-0.0,-0.0,-0.0,-0.0,-0.0,-0.0,-0.0,-0.0,-0.0,-0.0,-0.0,-0.0,-0.0,-0.0,-0.0,-0.0,-0.0,-0.0,-0.0,-0.0,-0.0,-0.0,-0.0,-0.0,-0.0,-0.0,-0.0,0.084,0.3544,0.4457,0.4109,0.4475,0.442,0.3519,0.3697,0.4333,0.3819,0.2857,0.2016,0.3771,0.3543,0.1959,0.1847,0.2464,0.3421,0.1734,0.0894,0.0895,0.0895,0.123,0.1847,0.1847,0.1174,-0.0,-0.0,-0.0,-0.0,-0.0,-0.0,-0.0,-0.0,-0.0535,-0.1495,-0.1802,-0.1439,-0.0224,-0.1394,-0.1484,-0.0,-0.0,-0.0674,-0.1974,-0.2123,-0.2599,-0.3428,-0.3384,-0.2909,-0.2244,-0.2104,-0.2117,-0.2122,-0.1764,-0.1909,-0.2635,-0.2702,-0.2679,-0.2683,-0.2684,-0.2732,-0.2914,-0.2709,-0.266,-0.2857,-0.2429,-0.157,-0.0,-0.0,-0.0,-0.0,-0.0,-0.0,-0.0,-0.0,-0.0,-0.0,-0.0,-0.0648,-0.2516,-0.1064,-0.0,-0.0,-0.0,-0.0,-0.0,-0.1565,-0.1734,-0.0726,-0.0671,-0.1063,-0.0,-0.0,-0.0,-0.0,-0.0,-0.0,-0.0,-0.0,-0.0,-0.0,-0.0,-0.0,-0.0,-0.0,-0.0,-0.0,-0.0,-0.0,-0.0,-0.0,-0.0,-0.0,-0.0,0.0448,0.1679,0.3257,0.4227,0.4485,0.4206,0.2401,0.2239,0.326,0.3261,0.2019,0.0393,0.2361,0.2022,-0.0,-0.0,0.1177,0.2752,0.0953,-0.0,-0.0,-0.0,-0.0,-0.0,-0.0,-0.0,-0.0,-0.0,-0.0,-0.0,-0.0,-0.0,-0.0,-0.0,-0.0,-0.0,-0.1757,-0.2074,-0.1212,-0.2254,-0.2118,-0.1122,-0.0987,-0.1706,-0.2925,-0.3423,-0.3595,-0.3577,-0.3566,-0.3315,-0.2924,-0.2827,-0.2814,-0.2788,-0.251,-0.2446,-0.2685,-0.2668,-0.2741,-0.2843,-0.3196,-0.3321,-0.3173,-0.3197,-0.3286,-0.348,-0.3577,-0.2778,-0.1065,-0.0269,-0.018,-0.0,-0.0961,-0.0,-0.1235,-0.0486,-0.0,-0.0,-0.0,-0.0,-0.3815,-0.2412,-0.0,-0.0724,-0.0,-0.1227,-0.1505,-0.302,-0.3531,-0.1956,-0.2178,-0.257,-0.1399,-0.0,-0.0,-0.0,-0.0,-0.0,-0.0,-0.0,-0.0,-0.0,-0.0,-0.0,-0.0,-0.0,-0.0,-0.0,-0.0,-0.0,-0.0,-0.0,-0.0,-0.0,-0.0,-0.0,-0.0,-0.0,-0.0,0.4501,0.3997,0.1345,-0.0,-0.0,-0.0,-0.0,-0.0,-0.0,-0.0,-0.0,-0.0,-0.0,-0.0,-0.0,-0.0,-0.0,-0.0,-0.0,-0.0,-0.0,-0.0,-0.0,-0.0,-0.0,-0.0,-0.0,-0.0,-0.0,-0.0,-0.0,-0.0,-0.0,-0.1302,-0.2511,-0.1211,-0.1301,-0.2965,-0.3151,-0.2922,-0.2235,-0.3086,-0.358,-0.3595,-0.3442,-0.3324,-0.3329,-0.3195,-0.3056,-0.2996,-0.2084,-0.1852,-0.2617,-0.2724,-0.2851,-0.3018,-0.302,-0.3062,-0.3283,-0.3345,-0.3394,-0.3373,-0.3528,-0.3207,-0.2269,-0.1074,-0.0806,-0.1653,-0.3019,-0.3916,-0.3704,-0.1819,-0.0,-0.0,-0.0,-0.1506,-0.4168,-0.4168,-0.3595,-0.2682,-0.3131,-0.3695,-0.4039,-0.4384,-0.4438,-0.4038,-0.4211,-0.4155,-0.3814,-0.2851,-0.1728,-0.0724,-0.0,-0.0,-0.0,-0.0,-0.0,-0.0,-0.0,-0.0,-0.0,-0.0,-0.0,-0.0,-0.0,-0.0,-0.0,-0.0,-0.0,-0.0,-0.0,-0.0,-0.0,-0.0,-0.0,0.3371,0.157,0.0448,-0.0,-0.0,-0.0,-0.0,-0.0,-0.0,-0.0,-0.0,-0.0,-0.0,-0.0,-0.0,-0.0,-0.0,-0.0,-0.0,-0.0,-0.0,-0.0,-0.0,-0.0,-0.0,-0.0,-0.0,-0.0,-0.0,-0.0,-0.0,-0.0,-0.0,-0.0493,-0.0984,-0.0448,-0.1207,-0.3326,-0.3602,-0.3369,-0.2994,-0.3399,-0.358,-0.3578,-0.3532,-0.3502,-0.3538,-0.3442,-0.3422,-0.3378,-0.2975,-0.2912,-0.3241,-0.3281,-0.3229,-0.315,-0.3237,-0.3349,-0.3324,-0.3456,-0.3497,-0.3502,-0.3544,-0.3488,-0.3171,-0.264,-0.251,-0.2958,-0.3432,-0.3961,-0.4034,-0.3315,-0.2463,-0.1584,-0.1441,-0.2236,-0.3869,-0.4497,-0.4265,-0.3909,-0.4247,-0.4473,-0.4475,-0.4473,-0.4479,-0.4482,-0.4479,-0.4482,-0.4433,-0.3919,-0.335,-0.3018,-0.2851,-0.2907,-0.0,-0.0,-0.0,-0.0,-0.0,-0.0,-0.0,-0.0,-0.0,-0.0,-0.0,-0.0,-0.0,-0.0,-0.0,-0.0,-0.0,-0.0,-0.0,-0.0,-0.0,0.185,-0.0,-0.0,-0.0,-0.0,-0.0,-0.0,-0.0,-0.0,-0.0,-0.0,-0.0,-0.0,-0.0,-0.0,-0.0,-0.0,-0.0,-0.0,-0.0,-0.0,-0.0,-0.0,-0.0,-0.0,-0.0,-0.0,-0.0,-0.0,-0.0,-0.0,-0.0,-0.0449,-0.0,-0.0,-0.0715,-0.2059,-0.3366,-0.359,-0.3588,-0.358,-0.358,-0.358,-0.3583,-0.3587,-0.3585,-0.358,-0.3618,-0.3371,-0.3133,-0.3378,-0.3267,-0.2567,-0.3205,-0.349,-0.3308,-0.3406,-0.3469,-0.3429,-0.3524,-0.3622,-0.358,-0.358,-0.358,-0.358,-0.3588,-0.3593,-0.3609,-0.3625,-0.3648,-0.3601,-0.3813,-0.3711,-0.306,-0.2963,-0.3354,-0.4312,-0.4487,-0.448,-0.441,-0.4406,-0.4463,-0.4462,-0.4462,-0.4467,-0.4472,-0.4467,-0.4468,-0.4479,-0.4479,-0.4475,-0.4482,-0.4311,-0.4196,-0.4084,-0.3859,-0.3868,-0.0,-0.0,-0.0,-0.067,-0.0447,-0.0,-0.0,-0.0,-0.0,-0.0,-0.0,-0.0,-0.0,-0.0,-0.0,-0.0,-0.0,-0.0,-0.0,-0.0,-0.0,-0.0,-0.0,-0.0,-0.0,-0.0,-0.0,-0.0,-0.0,-0.0,-0.0,-0.0,-0.0,-0.0,-0.0,-0.0,-0.0,-0.0,-0.0,-0.0,-0.0,-0.0,-0.0,-0.0,-0.0,-0.0,-0.0,-0.0,-0.136,-0.2698,-0.1256,-0.0,-0.0134,-0.2234,-0.3407,-0.3583,-0.3583,-0.358,-0.358,-0.358,-0.3585,-0.3592,-0.3595,-0.3542,-0.3534,-0.3573,-0.3153,-0.2293,-0.3059,-0.2447,-0.1234,-0.2448,-0.3571,-0.3531,-0.3434,-0.3437,-0.3546,-0.3619,-0.358,-0.358,-0.358,-0.358,-0.358,-0.3581,-0.3583,-0.3579,-0.3566,-0.3414,-0.3027,-0.3138,-0.356,-0.4263,-0.4206,-0.4315,-0.4423,-0.4477,-0.4473,-0.4465,-0.4462,-0.4462,-0.4462,-0.4462,-0.4465,-0.4463,-0.4462,-0.4462,-0.4465,-0.4465,-0.4463,-0.4463,-0.4467,-0.447,-0.4465,-0.4463,-0.4477,-0.0,-0.0,-0.3471,-0.2345,-0.1786,-0.0782,-0.0,-0.0,-0.0,-0.0,-0.0,-0.0,-0.0,-0.0,-0.0,-0.0,-0.0,-0.0,-0.0,-0.0,-0.0,-0.0,-0.0,-0.0,-0.0,-0.0,-0.0,-0.0,-0.0,-0.0,-0.0,-0.0,-0.0,-0.0,-0.0,-0.0,-0.0,-0.0,-0.0,-0.0,-0.0,-0.0,-0.0,-0.0,-0.0,-0.0,-0.0,-0.1634,-0.2957,-0.3253,-0.2865,-0.2506,-0.2407,-0.322,-0.3583,-0.358,-0.358,-0.358,-0.358,-0.358,-0.3583,-0.3583,-0.3587,-0.3268,-0.2455,-0.3143,-0.3394,-0.303,-0.3393,-0.3236,-0.2776,-0.3182,-0.359,-0.3621,-0.3539,-0.3519,-0.3565,-0.358,-0.358,-0.358,-0.358,-0.358,-0.358,-0.358,-0.3628,-0.361,-0.3619,-0.3522,-0.3617,-0.3874,-0.4135,-0.4472,-0.4473,-0.4473,-0.447,-0.4467,-0.4467,-0.4463,-0.4462,-0.4462,-0.4462,-0.4462,-0.4462,-0.4462,-0.4462,-0.4462,-0.4462,-0.4462,-0.4462,-0.4462,-0.4462,-0.4462,-0.4462,-0.4462,-0.4468,-0.4479,-0.4482,-0.4428,-0.3576,-0.2905,-0.1898,-0.0,-0.0,-0.0,-0.0,-0.0,-0.0,-0.0,-0.0,-0.0,-0.0,-0.0,-0.0,-0.0,-0.0,-0.0,-0.0,-0.0,-0.0,-0.0,-0.0,-0.0,-0.0,-0.0,-0.0,-0.0,-0.0,-0.0,-0.0,-0.1457,-0.0,-0.0,-0.0,-0.0,-0.0,-0.0,-0.1289,-0.168,-0.14,-0.0,-0.0,-0.0,-0.2361,-0.3578,-0.3576,-0.3619,-0.3544,-0.358,-0.358,-0.358,-0.358,-0.358,-0.358,-0.358,-0.358,-0.3583,-0.3537,-0.3173,-0.2544,-0.192,-0.2556,-0.3146,-0.3508,-0.3604,-0.3604,-0.3592,-0.359,-0.3404,-0.3084,-0.3353,-0.3622,-0.358,-0.358,-0.358,-0.358,-0.358,-0.358,-0.358,-0.3581,-0.3605,-0.3717,-0.3901,-0.4005,-0.4181,-0.4346,-0.4477,-0.4465,-0.4463,-0.4462,-0.4462,-0.4462,-0.4462,-0.4462,-0.4462,-0.4462,-0.4462,-0.4462,-0.4462,-0.4462,-0.4462,-0.4462,-0.4462,-0.4462,-0.4462,-0.4462,-0.4462,-0.4462,-0.4462,-0.4462,-0.4462,-0.4467,-0.447,-0.4472,-0.4075,-0.3919,-0.0,-0.0,-0.0,-0.0,-0.0,-0.0,-0.0,-0.0,-0.0,-0.0,-0.0,-0.0,-0.0,-0.0,-0.0224,-0.0,-0.0,-0.0,-0.0,-0.0,-0.0,-0.0,-0.0,-0.0,-0.0,-0.0,-0.0,-0.0,-0.1569,-0.3429,-0.0,-0.0,-0.0,-0.0,-0.0,-0.0,-0.2695,-0.3881,-0.3699,-0.1672,-0.0,-0.0852,-0.2672,-0.3624,-0.3594,-0.3582,-0.358,-0.3532,-0.3532,-0.326,-0.3578,-0.358,-0.358,-0.358,-0.358,-0.3583,-0.3592,-0.2683,-0.2142,-0.2144,-0.2235,-0.264,-0.3457,-0.3598,-0.3592,-0.3581,-0.358,-0.3127,-0.232,-0.3038,-0.349,-0.358,-0.358,-0.358,-0.358,-0.3581,-0.3534,-0.3357,-0.3047,-0.3232,-0.3792,-0.42,-0.4421,-0.4433,-0.446,-0.4468,-0.4465,-0.4462,-0.4462,-0.4462,-0.4462,-0.4462,-0.4462,-0.4462,-0.4462,-0.4462,-0.4462,-0.4462,-0.4462,-0.4462,-0.4462,-0.4462,-0.4462,-0.4462,-0.4462,-0.4462,-0.4462,-0.4462,-0.4462,-0.4462,-0.4463,-0.4465,-0.4467,-0.4415,-0.4374,-0.433,-0.0,-0.0,-0.0,-0.0,-0.0,-0.0,-0.0,-0.0,-0.0,-0.0,-0.0,-0.0,-0.1289,-0.3034,-0.0953,-0.0616,-0.1396,-0.0504,-0.0,-0.0,-0.0,-0.0,-0.0,-0.2413,-0.3146,-0.3147,-0.2069,-0.2123,-0.2741,-0.3138,-0.19,-0.0,-0.0,-0.0,-0.0,-0.3031,-0.4507,-0.427,-0.3526,-0.3337,-0.3346,-0.3631,-0.3757,-0.3602,-0.3604,-0.358,-0.3442,-0.1954,-0.1999,-0.335,-0.358,-0.358,-0.358,-0.358,-0.358,-0.3581,-0.3265,-0.3086,-0.3092,-0.3138,-0.3228,-0.3549,-0.3588,-0.3585,-0.358,-0.3534,-0.3353,-0.3217,-0.3352,-0.358,-0.358,-0.358,-0.358,-0.358,-0.3588,-0.3228,-0.2276,-0.1473,-0.1938,-0.3213,-0.4136,-0.443,-0.4372,-0.4441,-0.4458,-0.4465,-0.4462,-0.4462,-0.4462,-0.4462,-0.4462,-0.4462,-0.4462,-0.4462,-0.4462,-0.4462,-0.4462,-0.4462,-0.4462,-0.4462,-0.4462,-0.4462,-0.4462,-0.4462,-0.4462,-0.4462,-0.4462,-0.4462,-0.4462,-0.4462,-0.4463,-0.4465,-0.4364,-0.4266,-0.4276,-0.0,-0.0,-0.0,-0.0,-0.0,-0.0,-0.0,-0.0,-0.0,-0.0,-0.0,-0.0,-0.1958,-0.3479,-0.2353,-0.2012,-0.2176,-0.1956,-0.1174,-0.0,-0.0,-0.0783,-0.2074,-0.3598,-0.4504,-0.4389,-0.3531,-0.3186,-0.3297,-0.4095,-0.347,-0.2286,-0.0,-0.0,-0.1114,-0.3021,-0.4492,-0.4484,-0.4482,-0.4441,-0.4351,-0.4143,-0.3853,-0.364,-0.36,-0.3588,-0.3494,-0.1866,-0.1375,-0.272,-0.3263,-0.358,-0.358,-0.358,-0.358,-0.358,-0.358,-0.3583,-0.3588,-0.3592,-0.3593,-0.359,-0.3588,-0.3585,-0.3541,-0.3084,-0.3084,-0.349,-0.358,-0.358,-0.358,-0.3578,-0.3353,-0.3084,-0.3233,-0.3234,-0.2687,-0.188,-0.2384,-0.3489,-0.4078,-0.4176,-0.4264,-0.4365,-0.4455,-0.4463,-0.4462,-0.4462,-0.4462,-0.4462,-0.4462,-0.4462,-0.4462,-0.4462,-0.4462,-0.4462,-0.4462,-0.4462,-0.4462,-0.4462,-0.4462,-0.4462,-0.4462,-0.4462,-0.4462,-0.4462,-0.4462,-0.4462,-0.4462,-0.4462,-0.4465,-0.4467,-0.3968,-0.3812,-0.3083,-0.2466,-0.0952,-0.0,-0.0,-0.0,-0.0,-0.0,-0.0,-0.0,-0.0,-0.0,-0.0,-0.2454,-0.2566,-0.3923,-0.3695,-0.2791,-0.3809,-0.2906,-0.089,-0.0,-0.2066,-0.388,-0.4386,-0.4494,-0.4492,-0.4262,-0.443,-0.4421,-0.4428,-0.4428,-0.4086,-0.3917,-0.3013,-0.1442,-0.3291,-0.4416,-0.446,-0.451,-0.4483,-0.4411,-0.4137,-0.3827,-0.3657,-0.3609,-0.3593,-0.336,-0.2316,-0.1912,-0.2363,-0.3173,-0.3578,-0.358,-0.358,-0.358,-0.358,-0.358,-0.358,-0.3585,-0.3592,-0.3503,-0.3357,-0.332,-0.3005,-0.296,-0.2057,-0.2412,-0.3309,-0.358,-0.358,-0.3534,-0.3399,-0.2991,-0.241,-0.3056,-0.3471,-0.319,-0.3059,-0.3369,-0.3722,-0.3906,-0.4067,-0.4238,-0.4389,-0.4486,-0.445,-0.4462,-0.4462,-0.4462,-0.4462,-0.4462,-0.4462,-0.4462,-0.4462,-0.4462,-0.4462,-0.4462,-0.4462,-0.4462,-0.4462,-0.4462,-0.4462,-0.4462,-0.4462,-0.4462,-0.4462,-0.4462,-0.4462,-0.4462,-0.4462,-0.4468,-0.4301,-0.3404,-0.2794,-0.1564,-0.0,-0.0,-0.0,-0.0,-0.0,-0.0,-0.0,-0.0,-0.0,-0.0,-0.0,-0.0,-0.3981,-0.4028,-0.4379,-0.4314,-0.4076,-0.4374,-0.409,-0.3459,-0.3466,-0.3752,-0.4383,-0.4489,-0.4482,-0.4482,-0.4473,-0.4468,-0.4465,-0.447,-0.4467,-0.4467,-0.4477,-0.4245,-0.3498,-0.428,-0.4405,-0.4489,-0.4454,-0.4495,-0.4347,-0.3982,-0.368,-0.3628,-0.3602,-0.358,-0.3444,-0.2583,-0.2313,-0.308,-0.3488,-0.3578,-0.358,-0.358,-0.358,-0.358,-0.358,-0.358,-0.3583,-0.359,-0.3138,-0.2236,-0.0,-0.0,-0.0,-0.0,-0.1432,-0.2862,-0.3534,-0.358,-0.3488,-0.2904,-0.2274,-0.2364,-0.2961,-0.3197,-0.2327,-0.3149,-0.3569,-0.3727,-0.3853,-0.4065,-0.4312,-0.4269,-0.4368,-0.4431,-0.4462,-0.4462,-0.4462,-0.4462,-0.4462,-0.4462,-0.4462,-0.4462,-0.4462,-0.4462,-0.4462,-0.4462,-0.4462,-0.4462,-0.4462,-0.4462,-0.4462,-0.4462,-0.4462,-0.4462,-0.4462,-0.4462,-0.4462,-0.4462,-0.4467,-0.4468,-0.3516,-0.2511,-0.1563,-0.0,-0.0,-0.0,-0.0,-0.0,-0.0,-0.0,-0.0,-0.0,-0.0,-0.0,-0.0,-0.4477,-0.4472,-0.4477,-0.4473,-0.4463,-0.4473,-0.4475,-0.4473,-0.4475,-0.4479,-0.448,-0.4472,-0.4472,-0.4472,-0.4465,-0.4462,-0.4462,-0.446,-0.4479,-0.4489,-0.4415,-0.4381,-0.4423,-0.4325,-0.4231,-0.4267,-0.4428,-0.4435,-0.4205,-0.3883,-0.3617,-0.3599,-0.3612,-0.3583,-0.3578,-0.2943,-0.3033,-0.3396,-0.358,-0.358,-0.358,-0.358,-0.358,-0.358,-0.358,-0.358,-0.358,-0.3585,-0.3269,-0.2369,-0.0,-0.0,-0.0,-0.0,-0.0,-0.1656,-0.313,-0.3493,-0.3361,-0.3043,-0.2545,-0.2184,-0.305,-0.3139,-0.2865,-0.3279,-0.3504,-0.3614,-0.3741,-0.3941,-0.4214,-0.4234,-0.4261,-0.4423,-0.4462,-0.4462,-0.4462,-0.4462,-0.4462,-0.4462,-0.4462,-0.4462,-0.4462,-0.4462,-0.4462,-0.4462,-0.4462,-0.4462,-0.4462,-0.4462,-0.4462,-0.4462,-0.4462,-0.4462,-0.4462,-0.4462,-0.4462,-0.4462,-0.4463,-0.4465,-0.4127,-0.301,-0.1952,-0.0,-0.0,-0.0,-0.0,-0.0,-0.0,-0.0,-0.0,-0.0,-0.0,-0.0,-0.0,-0.4462,-0.4462,-0.4462,-0.4462,-0.4462,-0.4463,-0.4463,-0.4462,-0.4462,-0.4463,-0.4462,-0.4462,-0.4463,-0.4462,-0.4462,-0.4462,-0.4462,-0.451,-0.4462,-0.4449,-0.4275,-0.4195,-0.4198,-0.4044,-0.3899,-0.3994,-0.4255,-0.4224,-0.4038,-0.3765,-0.3595,-0.36,-0.3583,-0.358,-0.3578,-0.3578,-0.3532,-0.358,-0.358,-0.358,-0.358,-0.358,-0.358,-0.358,-0.358,-0.358,-0.358,-0.358,-0.3535,-0.3493,-0.1654,-0.0717,-0.0539,-0.0538,-0.0359,-0.0583,-0.2503,-0.3448,-0.359,-0.3494,-0.3083,-0.2142,-0.2957,-0.3546,-0.3541,-0.3499,-0.3592,-0.3605,-0.368,-0.3814,-0.4027,-0.4123,-0.4314,-0.4423,-0.4462,-0.4462,-0.4462,-0.4462,-0.4462,-0.4462,-0.4462,-0.4462,-0.4462,-0.4462,-0.4462,-0.4462,-0.4462,-0.4462,-0.4462,-0.4462,-0.4462,-0.4462,-0.4462,-0.4462,-0.4462,-0.4462,-0.4462,-0.4463,-0.4463,-0.4463,-0.4463,-0.385,-0.279,-0.1618,-0.0,-0.0,-0.0,-0.0,-0.0,-0.0,-0.0,-0.0,-0.0,-0.0,-0.0,-0.4462,-0.4462,-0.4462,-0.4462,-0.4462,-0.4462,-0.4462,-0.4462,-0.4462,-0.4462,-0.4462,-0.4462,-0.4462,-0.4462,-0.4462,-0.4462,-0.4448,-0.4486,-0.4471,-0.4451,-0.4206,-0.402,-0.3826,-0.3774,-0.366,-0.3756,-0.3934,-0.405,-0.3903,-0.3724,-0.3622,-0.3585,-0.358,-0.358,-0.358,-0.358,-0.358,-0.358,-0.358,-0.358,-0.358,-0.358,-0.358,-0.358,-0.358,-0.358,-0.358,-0.358,-0.358,-0.3578,-0.3219,-0.2954,-0.2733,-0.2775,-0.2325,-0.2011,-0.2726,-0.3581,-0.3583,-0.3581,-0.3532,-0.3399,-0.3496,-0.3544,-0.3542,-0.36,-0.3614,-0.3656,-0.3753,-0.3922,-0.4128,-0.4179,-0.4312,-0.4412,-0.4462,-0.4462,-0.4462,-0.4462,-0.4462,-0.4462,-0.4462,-0.4462,-0.4462,-0.4462,-0.4462,-0.4462,-0.4462,-0.4462,-0.4462,-0.4462,-0.4462,-0.4462,-0.4462,-0.4462,-0.4462,-0.4462,-0.4462,-0.4465,-0.4465,-0.4465,-0.4468,-0.4473,-0.3744,-0.2684,-0.1509,-0.0,-0.0,-0.0,-0.0,-0.0,-0.0,-0.0,-0.0,-0.0,-0.0,-0.4462,-0.4462,-0.4462,-0.4462,-0.4462,-0.4462,-0.4462,-0.4462,-0.4462,-0.4462,-0.4462,-0.4462,-0.4462,-0.4462,-0.4462,-0.4428,-0.4368,-0.435,-0.4388,-0.4377,-0.4108,-0.3834,-0.3618,-0.3617,-0.3597,-0.3638,-0.3731,-0.3781,-0.3773,-0.3667,-0.3626,-0.358,-0.358,-0.358,-0.358,-0.358,-0.358,-0.358,-0.358,-0.358,-0.358,-0.358,-0.358,-0.358,-0.358,-0.358,-0.358,-0.358,-0.358,-0.358,-0.3578,-0.3583,-0.3583,-0.3537,-0.3355,-0.295,-0.3263,-0.358,-0.358,-0.358,-0.3578,-0.3578,-0.3585,-0.3357,-0.3219,-0.3322,-0.3649,-0.3778,-0.3805,-0.398,-0.4162,-0.419,-0.4319,-0.4424,-0.4458,-0.4457,-0.4462,-0.4462,-0.4462,-0.4462,-0.4462,-0.4462,-0.4462,-0.4462,-0.4462,-0.4462,-0.4462,-0.4462,-0.4462,-0.4462,-0.4462,-0.4462,-0.4462,-0.4462,-0.4463,-0.4463,-0.4465,-0.4468,-0.447,-0.447,-0.4473,-0.4482,-0.4492,-0.4047,-0.2804,-0.1568,-0.0,-0.0,-0.0,-0.0,-0.0,-0.0,-0.0,-0.0,-0.0,-0.4625,-0.4519,-0.4624,-0.4625,-0.4517,-0.4462,-0.4462,-0.4462,-0.4462,-0.4462,-0.4462,-0.4462,-0.4462,-0.4462,-0.4445,-0.4389,-0.4205,-0.4204,-0.4251,-0.4267,-0.4066,-0.3823,-0.3664,-0.358,-0.3592,-0.3605,-0.3598,-0.358,-0.3641,-0.3629,-0.3626,-0.358,-0.358,-0.358,-0.358,-0.358,-0.358,-0.358,-0.358,-0.358,-0.358,-0.358,-0.358,-0.358,-0.358,-0.358,-0.358,-0.358,-0.358,-0.358,-0.358,-0.358,-0.358,-0.358,-0.358,-0.358,-0.358,-0.358,-0.358,-0.358,-0.358,-0.358,-0.3442,-0.3078,-0.3078,-0.3325,-0.3663,-0.3873,-0.4043,-0.4031,-0.4125,-0.4177,-0.4317,-0.4411,-0.4491,-0.4481,-0.4451,-0.4462,-0.4462,-0.4462,-0.4462,-0.4462,-0.4462,-0.4462,-0.4462,-0.4462,-0.4462,-0.4462,-0.4462,-0.4462,-0.4462,-0.4462,-0.4462,-0.4462,-0.4463,-0.4467,-0.4468,-0.4473,-0.4479,-0.448,-0.4485,-0.449,-0.4216,-0.3653,-0.4289,-0.0,-0.0,-0.0,-0.0,-0.0,-0.0,-0.0,-0.0,-0.0,-0.0,-0.5054,-0.4574,-0.5109,-0.5054,-0.4515,-0.4462,-0.4517,-0.4515,-0.4515,-0.4462,-0.468,-0.446,-0.4513,-0.4443,-0.4491,-0.4363,-0.4265,-0.419,-0.4091,-0.4033,-0.3956,-0.3795,-0.3641,-0.3624,-0.358,-0.358,-0.358,-0.358,-0.358,-0.358,-0.358,-0.358,-0.358,-0.358,-0.358,-0.358,-0.358,-0.358,-0.358,-0.358,-0.358,-0.358,-0.358,-0.358,-0.358,-0.358,-0.358,-0.358,-0.358,-0.358,-0.358,-0.358,-0.358,-0.358,-0.358,-0.358,-0.358,-0.358,-0.358,-0.358,-0.358,-0.3488,-0.3123,-0.2988,-0.3216,-0.3399,-0.361,-0.3629,-0.4014,-0.42,-0.4114,-0.4127,-0.4306,-0.4365,-0.438,-0.4397,-0.4429,-0.4462,-0.4462,-0.4462,-0.4462,-0.4462,-0.4462,-0.4462,-0.4462,-0.4462,-0.4462,-0.4462,-0.4462,-0.4462,-0.4465,-0.4465,-0.4463,-0.4463,-0.4465,-0.4468,-0.4301,-0.4363,-0.4193,-0.4087,-0.3527,-0.3078,-0.2573,-0.241,-0.0,-0.0,-0.0,-0.0,-0.0,-0.0,-0.0,-0.0,-0.0,-0.0,-0.0,-0.6088,-0.5056,-0.5001,-0.4787,-0.4517,-0.4462,-0.4734,-0.4944,-0.4659,-0.4988,-0.538,-0.4765,-0.4455,-0.4338,-0.4312,-0.4177,-0.4016,-0.4,-0.3883,-0.3813,-0.3767,-0.3731,-0.364,-0.358,-0.358,-0.358,-0.358,-0.358,-0.358,-0.358,-0.358,-0.358,-0.358,-0.358,-0.358,-0.358,-0.358,-0.358,-0.358,-0.358,-0.358,-0.358,-0.358,-0.358,-0.358,-0.358,-0.358,-0.358,-0.358,-0.358,-0.358,-0.358,-0.358,-0.358,-0.358,-0.358,-0.358,-0.358,-0.358,-0.358,-0.358,-0.3578,-0.3262,-0.3309,-0.3539,-0.3585,-0.3594,-0.3615,-0.3808,-0.3958,-0.4048,-0.4112,-0.4197,-0.4312,-0.4346,-0.4395,-0.4433,-0.4446,-0.4462,-0.4462,-0.4462,-0.4462,-0.4462,-0.4462,-0.4462,-0.4462,-0.4462,-0.4462,-0.4462,-0.4462,-0.4465,-0.447,-0.4468,-0.4467,-0.4468,-0.447,-0.4018,-0.385,-0.3225,-0.2895,-0.1897,-0.1284,-0.0,-0.0,-0.0,-0.0,-0.0,-0.0,-0.0,-0.0,-0.0,-0.0,-0.0,-0.0,-0.0,-0.7012,-0.598,-0.5332,-0.4897,-0.4732,-0.4574,-0.4787,-0.5162,-0.5164,-0.5433,-0.5632,-0.4877,-0.429,-0.417,-0.4115,-0.4022,-0.3854,-0.3835,-0.3749,-0.3667,-0.358,-0.3629,-0.358,-0.358,-0.358,-0.3622,-0.358,-0.358,-0.358,-0.358,-0.358,-0.358,-0.358,-0.358,-0.358,-0.358,-0.358,-0.358,-0.358,-0.358,-0.358,-0.358,-0.358,-0.358,-0.358,-0.358,-0.358,-0.358,-0.358,-0.358,-0.358,-0.358,-0.358,-0.358,-0.358,-0.358,-0.358,-0.358,-0.358,-0.358,-0.358,-0.358,-0.358,-0.3491,-0.3588,-0.359,-0.3614,-0.3604,-0.3648,-0.3792,-0.3955,-0.4076,-0.4177,-0.43,-0.4358,-0.4411,-0.4508,-0.4513,-0.4462,-0.4462,-0.4462,-0.4462,-0.4462,-0.4462,-0.4462,-0.4462,-0.4462,-0.4462,-0.4462,-0.4462,-0.4468,-0.4473,-0.4473,-0.4472,-0.4364,-0.4252,-0.3853,-0.3515,-0.2946,-0.2671,-0.2348,-0.0,-0.0,-0.0,-0.0,-0.0,-0.0,-0.0,-0.0,-0.0,-0.0,-0.0,-0.0,-0.0,-0.0,-0.7402,-0.7506,-0.674,-0.6029,-0.538,-0.473,-0.457,-0.4933,-0.5872,-0.557,-0.4826,-0.4412,-0.4316,-0.4022,-0.4003,-0.3899,-0.3785,-0.3788,-0.3695,-0.3615,-0.3622,-0.3621,-0.3619,-0.3621,-0.3622,-0.3619,-0.3622,-0.358,-0.358,-0.358,-0.358,-0.358,-0.358,-0.358,-0.358,-0.358,-0.358,-0.358,-0.358,-0.358,-0.358,-0.358,-0.358,-0.358,-0.358,-0.358,-0.358,-0.358,-0.358,-0.358,-0.358,-0.358,-0.358,-0.358,-0.358,-0.358,-0.358,-0.358,-0.358,-0.358,-0.358,-0.358,-0.358,-0.358,-0.3583,-0.3581,-0.3602,-0.3581,-0.3598,-0.3705,-0.3892,-0.4003,-0.4167,-0.4258,-0.4328,-0.4401,-0.4438,-0.4458,-0.4462,-0.4462,-0.4462,-0.4462,-0.4462,-0.4462,-0.4462,-0.4462,-0.4462,-0.4462,-0.4462,-0.4463,-0.4472,-0.4477,-0.4477,-0.4423,-0.4208,-0.3923,-0.3524,-0.3695,-0.3526,-0.3759,-0.3946,-0.0,-0.0,-0.0,-0.0,-0.0,-0.0,-0.0,-0.0,-0.0,-0.0,-0.0,-0.0,-0.0,-0.0,-0.7718,-0.7753,-0.7035,-0.6538,-0.6088,-0.5437,-0.5321,-0.5551,-0.5392,-0.4945,-0.4211,-0.4981,-0.4849,-0.4124,-0.3794,-0.3721,-0.3663,-0.3661,-0.3624,-0.3602,-0.3622,-0.3612,-0.3609,-0.361,-0.3614,-0.3602,-0.361,-0.358,-0.358,-0.358,-0.358,-0.358,-0.358,-0.358,-0.358,-0.358,-0.358,-0.358,-0.358,-0.358,-0.358,-0.358,-0.358,-0.358,-0.358,-0.358,-0.358,-0.358,-0.358,-0.3624,-0.3622,-0.358,-0.358,-0.358,-0.358,-0.358,-0.358,-0.358,-0.358,-0.358,-0.358,-0.358,-0.358,-0.358,-0.358,-0.358,-0.358,-0.3581,-0.358,-0.3676,-0.3719,-0.391,-0.408,-0.4187,-0.4292,-0.4385,-0.4429,-0.4455,-0.4462,-0.4462,-0.4462,-0.4462,-0.4462,-0.4462,-0.4462,-0.4462,-0.4462,-0.4462,-0.4462,-0.4463,-0.4472,-0.4307,-0.4252,-0.352,-0.3246,-0.3136,-0.3136,-0.3365,-0.3709,-0.3715,-0.3492,-0.0,-0.0,-0.0,-0.0,-0.0,-0.0,-0.0,-0.0,-0.0,-0.0,-0.0,-0.0,-0.0,-0.0,-0.7846,-0.7814,-0.7052,-0.663,-0.6315,-0.5646,-0.5466,-0.5508,-0.476,-0.4171,-0.3933,-0.4978,-0.4886,-0.394,-0.3641,-0.3636,-0.3593,-0.3592,-0.3585,-0.358,-0.3621,-0.3603,-0.3595,-0.3598,-0.3609,-0.3586,-0.3603,-0.358,-0.358,-0.358,-0.358,-0.358,-0.358,-0.358,-0.358,-0.358,-0.358,-0.358,-0.358,-0.358,-0.358,-0.358,-0.358,-0.358,-0.358,-0.3751,-0.3751,-0.375,-0.3753,-0.3751,-0.3709,-0.3622,-0.358,-0.358,-0.358,-0.358,-0.358,-0.358,-0.358,-0.358,-0.358,-0.358,-0.358,-0.358,-0.358,-0.358,-0.358,-0.358,-0.3581,-0.3605,-0.3658,-0.3921,-0.4117,-0.4253,-0.436,-0.4445,-0.4446,-0.4462,-0.4462,-0.4462,-0.4462,-0.4462,-0.4462,-0.4462,-0.4462,-0.4462,-0.4462,-0.4462,-0.4462,-0.4465,-0.447,-0.4195,-0.3859,-0.2904,-0.1954,-0.1957,-0.1959,-0.1621,-0.1958,-0.2354,-0.1905,-0.0,-0.0,-0.0,-0.0,-0.0,-0.0,-0.0,-0.0,-0.0,-0.0,-0.0,-0.0,-0.0,-0.0,-0.7642,-0.7788,-0.6948,-0.6393,-0.5941,-0.5217,-0.4679,-0.4458,-0.423,-0.4077,-0.399,-0.4049,-0.3916,-0.3658,-0.3672,-0.358,-0.358,-0.358,-0.358,-0.358,-0.3622,-0.3603,-0.3686,-0.3691,-0.3834,-0.3632,-0.3603,-0.358,-0.358,-0.358,-0.358,-0.358,-0.358,-0.358,-0.358,-0.358,-0.358,-0.358,-0.358,-0.358,-0.358,-0.358,-0.358,-0.358,-0.3709,-0.3922,-0.4094,-0.4052,-0.414,-0.4312,-0.397,-0.3799,-0.3624,-0.3624,-0.358,-0.358,-0.358,-0.358,-0.358,-0.358,-0.358,-0.358,-0.358,-0.358,-0.358,-0.358,-0.358,-0.358,-0.358,-0.3704,-0.3858,-0.4019,-0.4156,-0.4265,-0.436,-0.4462,-0.4462,-0.4462,-0.4462,-0.4462,-0.4462,-0.4462,-0.4462,-0.4462,-0.4462,-0.4462,-0.4462,-0.4462,-0.4462,-0.4465,-0.447,-0.4364,-0.3917,-0.2794,-0.1844,-0.112,-0.0784,-0.0391,-0.0783,-0.1736,-0.0,-0.0,-0.0,-0.0,-0.0,-0.0,-0.0,-0.0,-0.1795,-0.1344,-0.056,-0.0,-0.0,-0.0,-0.0,-0.7231,-0.723,-0.6609,-0.6043,-0.5525,-0.5186,-0.4832,-0.4658,-0.4833,-0.5222,-0.5413,-0.4434,-0.3821,-0.3966,-0.3753,-0.358,-0.358,-0.358,-0.358,-0.358,-0.358,-0.3603,-0.373,-0.4102,-0.4246,-0.3772,-0.3605,-0.358,-0.358,-0.358,-0.358,-0.358,-0.358,-0.358,-0.358,-0.358,-0.358,-0.358,-0.358,-0.358,-0.358,-0.358,-0.358,-0.3624,-0.388,-0.4222,-0.4478,-0.4441,-0.4744,-0.4916,-0.4535,-0.4102,-0.3755,-0.358,-0.358,-0.358,-0.358,-0.358,-0.358,-0.358,-0.358,-0.358,-0.358,-0.358,-0.358,-0.358,-0.358,-0.358,-0.358,-0.3665,-0.3698,-0.3924,-0.4075,-0.4148,-0.4255,-0.4411,-0.4462,-0.4462,-0.4462,-0.4462,-0.4462,-0.4462,-0.4462,-0.4462,-0.4462,-0.4462,-0.4462,-0.4463,-0.4465,-0.4465,-0.4468,-0.448,-0.4035,-0.2853,-0.1846,-0.1344,-0.1907,-0.241,-0.2297,-0.2522,-0.0,-0.0,-0.0,-0.0,-0.0,-0.2805,-0.2805,-0.2804,-0.3028,-0.2688,-0.1957,-0.1509,-0.0,-0.0,-0.0,-0.6975,-0.6937,-0.6435,-0.5962,-0.5568,-0.5068,-0.4713,-0.4582,-0.5059,-0.5915,-0.6385,-0.5005,-0.4202,-0.4218,-0.388,-0.3624,-0.358,-0.358,-0.358,-0.358,-0.358,-0.3602,-0.3865,-0.4242,-0.4054,-0.3727,-0.3603,-0.358,-0.358,-0.358,-0.358,-0.358,-0.358,-0.358,-0.358,-0.358,-0.358,-0.358,-0.358,-0.358,-0.358,-0.358,-0.358,-0.3751,-0.4051,-0.4478,-0.4739,-0.5087,-0.5392,-0.5351,-0.5096,-0.4493,-0.3928,-0.3615,-0.3617,-0.3619,-0.358,-0.358,-0.358,-0.358,-0.358,-0.358,-0.358,-0.358,-0.358,-0.358,-0.358,-0.358,-0.358,-0.3615,-0.368,-0.3907,-0.4021,-0.4097,-0.4238,-0.4397,-0.4438,-0.4493,-0.4503,-0.4503,-0.446,-0.446,-0.4462,-0.4462,-0.4462,-0.4462,-0.4462,-0.4465,-0.4468,-0.4468,-0.4472,-0.4485,-0.4437,-0.3534,-0.2577,-0.1848,-0.2694,-0.4228,-0.3884,-0.32,-0.0,-0.0,-0.0,-0.3598,-0.3593,-0.3532,-0.3302,-0.3299,-0.3583,-0.3692,-0.3462,-0.3128,-0.3018,-0.2178,-0.1172,-0.6975,-0.6894,-0.6435,-0.6179,-0.601,-0.5087,-0.4297,-0.3853,-0.4819,-0.5953,-0.6894,-0.5712,-0.4959,-0.4395,-0.3882,-0.3624,-0.358,-0.358,-0.358,-0.358,-0.358,-0.36,-0.3597,-0.3699,-0.3741,-0.369,-0.3607,-0.358,-0.358,-0.358,-0.358,-0.358,-0.358,-0.358,-0.358,-0.358,-0.358,-0.358,-0.358,-0.358,-0.358,-0.358,-0.358,-0.3751,-0.4094,-0.4565,-0.487,-0.5176,-0.5526,-0.5661,-0.5623,-0.4797,-0.4134,-0.3637,-0.3602,-0.3612,-0.3622,-0.358,-0.358,-0.358,-0.358,-0.358,-0.358,-0.358,-0.358,-0.358,-0.358,-0.358,-0.3583,-0.3706,-0.3754,-0.389,-0.3974,-0.4144,-0.428,-0.436,-0.4446,-0.4462,-0.4476,-0.4488,-0.4506,-0.4513,-0.4462,-0.4462,-0.4462,-0.4462,-0.4463,-0.4468,-0.4472,-0.4473,-0.448,-0.4494,-0.4388,-0.4276,-0.0,-0.0,-0.1736,-0.2692,-0.3713,-0.3371,-0.275,-0.2297,-0.2574,-0.319,-0.4096,-0.4262,-0.3914,-0.3968,-0.4252,-0.4249,-0.4075,-0.4019,-0.3687,-0.3862,-0.3073,-0.6975,-0.6937,-0.6438,-0.6179,-0.6136,-0.5833,-0.5368,-0.4905,-0.5232,-0.5953,-0.6917,-0.5812,-0.519,-0.4959,-0.4052,-0.3709,-0.358,-0.358,-0.358,-0.358,-0.358,-0.3615,-0.3614,-0.3617,-0.3615,-0.3614,-0.3619,-0.3622,-0.3621,-0.3621,-0.3621,-0.358,-0.3619,-0.3621,-0.3622,-0.358,-0.358,-0.358,-0.358,-0.358,-0.358,-0.358,-0.358,-0.3751,-0.4136,-0.4522,-0.4694,-0.5132,-0.5437,-0.5483,-0.6171,-0.5965,-0.5341,-0.4306,-0.3619,-0.3621,-0.358,-0.358,-0.358,-0.358,-0.358,-0.358,-0.358,-0.358,-0.358,-0.358,-0.358,-0.358,-0.358,-0.3684,-0.3695,-0.3809,-0.3909,-0.4005,-0.4133,-0.4209,-0.4248,-0.4362,-0.4385,-0.4511,-0.4477,-0.446,-0.4462,-0.4462,-0.4462,-0.4462,-0.4463,-0.447,-0.4304,-0.425,-0.3747,-0.3701,-0.3595,-0.32,-0.0,-0.0,-0.0,-0.1062,-0.2128,-0.3316,-0.3599,-0.3142,-0.2513,-0.2845,-0.3973,-0.4366,-0.4413,-0.447,-0.4472,-0.4468,-0.4351,-0.441,-0.4468,-0.4477,-0.4426,-0.6975,-0.6933,-0.6686,-0.652,-0.6513,-0.6523,-0.6286,-0.601,-0.5979,-0.6228,-0.6244,-0.5779,-0.5448,-0.5176,-0.4355,-0.3838,-0.358,-0.358,-0.358,-0.358,-0.358,-0.3622,-0.3622,-0.358,-0.3622,-0.358,-0.3621,-0.3615,-0.3653,-0.3639,-0.359,-0.36,-0.3605,-0.3615,-0.3621,-0.358,-0.358,-0.358,-0.358,-0.358,-0.358,-0.358,-0.358,-0.3709,-0.4136,-0.4303,-0.443,-0.4959,-0.5221,-0.5308,-0.6134,-0.6119,-0.5435,-0.436,-0.3622,-0.358,-0.358,-0.358,-0.358,-0.358,-0.358,-0.358,-0.358,-0.358,-0.358,-0.358,-0.358,-0.358,-0.358,-0.3595,-0.3644,-0.3697,-0.3749,-0.3851,-0.3912,-0.4021,-0.4099,-0.418,-0.4312,-0.4454,-0.4509,-0.4501,-0.4462,-0.4462,-0.4462,-0.4462,-0.4465,-0.447,-0.4078,-0.3573,-0.2679,-0.2011,-0.2014,-0.0,-0.0,-0.0,-0.0,-0.0671,-0.0783,-0.1961,-0.3373,-0.4054,-0.3478,-0.358,-0.3967,-0.4244,-0.4465,-0.4463,-0.4463,-0.4462,-0.4462,-0.4463,-0.4465,-0.4467,-0.447,-0.6975,-0.6975,-0.6975,-0.6937,-0.6975,-0.6979,-0.6933,-0.6975,-0.6888,-0.6455,-0.573,-0.5783,-0.569,-0.5379,-0.465,-0.4092,-0.3836,-0.3709,-0.358,-0.3621,-0.358,-0.358,-0.358,-0.358,-0.358,-0.358,-0.3665,-0.3746,-0.3849,-0.4198,-0.443,-0.384,-0.3585,-0.3597,-0.3609,-0.3621,-0.358,-0.358,-0.358,-0.358,-0.358,-0.358,-0.3622,-0.3667,-0.4008,-0.4306,-0.4434,-0.4783,-0.5178,-0.5178,-0.5137,-0.514,-0.4707,-0.4232,-0.3753,-0.358,-0.358,-0.358,-0.358,-0.358,-0.358,-0.358,-0.358,-0.358,-0.358,-0.358,-0.358,-0.358,-0.358,-0.358,-0.3619,-0.3656,-0.3698,-0.3727,-0.3795,-0.3855,-0.3897,-0.4039,-0.4231,-0.4379,-0.4479,-0.4462,-0.4462,-0.4462,-0.4462,-0.4462,-0.4463,-0.4468,-0.419,-0.3461,-0.251,-0.1283,-0.1005,-0.123,-0.0,-0.0,-0.0,-0.0672,-0.0727,-0.1231,-0.3084,-0.3937,-0.4458,-0.4378,-0.4242,-0.4353,-0.4462,-0.4462,-0.4462,-0.4462,-0.4462,-0.4462,-0.4462,-0.4462,-0.4463,-0.6975,-0.6975,-0.6975,-0.6975,-0.6972,-0.6975,-0.6975,-0.6975,-0.6975,-0.6833,-0.6522,-0.6127,-0.591,-0.5786,-0.4923,-0.4368,-0.4204,-0.3861,-0.3656,-0.3651,-0.3647,-0.3603,-0.3622,-0.3621,-0.3622,-0.358,-0.3709,-0.4014,-0.4668,-0.5392,-0.5946,-0.5755,-0.4854,-0.3921,-0.3595,-0.361,-0.3617,-0.3799,-0.3797,-0.3753,-0.3665,-0.3622,-0.3622,-0.3622,-0.3838,-0.3836,-0.3924,-0.3968,-0.4058,-0.4014,-0.4014,-0.4014,-0.3926,-0.3711,-0.3624,-0.358,-0.358,-0.358,-0.358,-0.358,-0.358,-0.358,-0.358,-0.358,-0.358,-0.358,-0.358,-0.358,-0.358,-0.358,-0.3588,-0.362,-0.3646,-0.3665,-0.3682,-0.3697,-0.3715,-0.3939,-0.4127,-0.4314,-0.4428,-0.4512,-0.451,-0.4462,-0.4462,-0.4462,-0.4462,-0.4465,-0.4467,-0.4019,-0.3404,-0.2229,-0.078,-0.078,-0.1396,-0.2014,-0.2014,-0.2236,-0.2515,-0.2796,-0.3022,-0.3701,-0.4496,-0.4479,-0.4462,-0.4462,-0.4462,-0.4462,-0.4462,-0.4462,-0.4462,-0.4462,-0.4462,-0.4462,-0.4462,-0.687,-0.6667,-0.6777,-0.683,-0.6854,-0.6922,-0.6975,-0.6975,-0.6975,-0.6975,-0.6975,-0.6565,-0.6334,-0.6172,-0.5326,-0.4777,-0.459,-0.4136,-0.4163,-0.4122,-0.3783,-0.3599,-0.3618,-0.3602,-0.3622,-0.3622,-0.3651,-0.4132,-0.5123,-0.5014,-0.5185,-0.5612,-0.4637,-0.4466,-0.3904,-0.3646,-0.3873,-0.4374,-0.4368,-0.423,-0.3968,-0.3796,-0.3622,-0.358,-0.358,-0.358,-0.358,-0.358,-0.3624,-0.3624,-0.3667,-0.3667,-0.3711,-0.3622,-0.3624,-0.358,-0.358,-0.3624,-0.3622,-0.3622,-0.3624,-0.358,-0.358,-0.358,-0.358,-0.358,-0.358,-0.358,-0.358,-0.358,-0.358,-0.3604,-0.3607,-0.3617,-0.3634,-0.3651,-0.3712,-0.3853,-0.4031,-0.4222,-0.4358,-0.4504,-0.4465,-0.4462,-0.4462,-0.4462,-0.4462,-0.4462,-0.4465,-0.4467,-0.3906,-0.3291,-0.2004,-0.1895,-0.2967,-0.3477,-0.3645,-0.3923,-0.3916,-0.3865,-0.3811,-0.4143,-0.4475,-0.4468,-0.4465,-0.4462,-0.4462,-0.4462,-0.4462,-0.4462,-0.4462,-0.4462,-0.4462,-0.4462,-0.4462,-0.661,-0.626,-0.6433,-0.6533,-0.657,-0.679,-0.6887,-0.6932,-0.6942,-0.6887,-0.6809,-0.6864,-0.6633,-0.6275,-0.5786,-0.5383,-0.4943,-0.4431,-0.4566,-0.4418,-0.4126,-0.3892,-0.3685,-0.3594,-0.3754,-0.3769,-0.3758,-0.4198,-0.4822,-0.4899,-0.4988,-0.4463,-0.4847,-0.5608,-0.432,-0.3769,-0.4067,-0.5164,-0.5435,-0.5099,-0.4574,-0.4012,-0.3796,-0.3667,-0.358,-0.358,-0.358,-0.358,-0.358,-0.358,-0.358,-0.358,-0.3797,-0.3884,-0.4056,-0.4054,-0.388,-0.3838,-0.3753,-0.3665,-0.3622,-0.358,-0.358,-0.358,-0.358,-0.358,-0.358,-0.358,-0.358,-0.358,-0.358,-0.358,-0.358,-0.3581,-0.3598,-0.3584,-0.3666,-0.3743,-0.3936,-0.415,-0.4328,-0.4424,-0.4509,-0.4506,-0.4513,-0.446,-0.4462,-0.4462,-0.4462,-0.4463,-0.4239,-0.4075,-0.3514,-0.3803,-0.432,-0.432,-0.4374,-0.4315,-0.4252,-0.4373,-0.449,-0.4479,-0.4472,-0.4473,-0.4468,-0.4463,-0.4462,-0.4462,-0.4462,-0.4462,-0.4462,-0.4462,-0.4462,-0.4462,-0.4462,-0.6297,-0.6199,-0.6253,-0.6277,-0.6324,-0.6347,-0.645,-0.6577,-0.6595,-0.6402,-0.6311,-0.6477,-0.6535,-0.6478,-0.5692,-0.5293,-0.5197,-0.4758,-0.4221,-0.3942,-0.442,-0.4184,-0.3955,-0.394,-0.425,-0.4377,-0.4252,-0.3878,-0.4794,-0.5653,-0.5848,-0.5187,-0.4069,-0.4576,-0.506,-0.4699,-0.4765,-0.5872,-0.6341,-0.6047,-0.5224,-0.4615,-0.401,-0.3796,-0.358,-0.358,-0.358,-0.358,-0.358,-0.358,-0.358,-0.358,-0.384,-0.4316,-0.4746,-0.4787,-0.4613,-0.4222,-0.4136,-0.388,-0.3796,-0.358,-0.358,-0.358,-0.358,-0.358,-0.358,-0.358,-0.358,-0.358,-0.358,-0.358,-0.358,-0.358,-0.359,-0.3606,-0.3632,-0.3686,-0.3794,-0.4063,-0.4296,-0.4403,-0.4489,-0.4512,-0.45,-0.4503,-0.4462,-0.4462,-0.4462,-0.4462,-0.4462,-0.4467,-0.447,-0.4467,-0.4468,-0.4416,-0.4415,-0.447,-0.4472,-0.4475,-0.4475,-0.4468,-0.4465,-0.4468,-0.4467,-0.4463,-0.4462,-0.4462,-0.4462,-0.4462,-0.4462,-0.4462,-0.4462,-0.4462,-0.4462]},{"header":{"parameterUnit":"m.s-1","parameterCategory":1,"la1":31.0,"la2":29.5877,"lo1":-88.7671,"lo2":-86.6584,"dy":0.0162,"dx":0.0185,"nx":115,"ny":88,"refTime":"2024-06-23T06:00:00:Z","depth":0,"parameterNumber":3,"parameterNumberName":"V-component_of_WINDS"},"data":[0.0,0.0,0.0,0.0,0.0,0.0,0.0,0.0,0.0,0.0,0.0,0.0,0.0,0.0,0.0,0.0,0.0,0.0,0.0,0.0,0.0,0.0,0.0,0.0,0.0,0.0,0.0,0.0,0.0,0.0,0.0,0.0,0.0,0.0,0.0,0.0,0.0,0.0,0.0,0.0,0.0,0.0,0.0,0.0,0.0,0.0,0.0,0.0,0.0,0.0,0.0,0.0,0.0,0.0,0.0,0.0,0.0,0.0,0.0,0.0,0.0,0.0,0.0,0.0,0.0,0.0,0.0,0.0,0.0,0.0,0.0,0.0,0.0,0.0,0.0,0.0,0.0,0.0,0.0,0.0,0.0,0.0,0.0,0.0,0.0,0.0,0.0,0.0,0.0,0.0,0.0,0.0,0.0,0.0,0.0,0.0,0.0,0.0,0.0,0.0,0.0,0.0,0.0,0.0,0.0,0.0,0.0,0.0,0.0,0.0,0.0,0.0,0.0,0.0,0.0,0.0,0.0,0.0,0.0,0.0,0.0,0.0,0.0,0.0,0.0,0.0,0.0,0.0,0.0,0.0,0.0,0.0,0.0,0.0,0.0,0.0,0.0,0.0,0.0,0.0,0.0,0.0,0.0,0.0,0.0,0.0,0.0,0.0,0.0,0.0,0.0,0.0,0.0,0.0,0.0,0.0,0.0,0.0,0.0,0.0,0.0,0.0,0.0,0.0,0.0,0.0,0.0,0.0,0.0,0.0,0.0,0.0,0.0,0.0,0.0,0.0,0.0,0.0,0.0,0.0,0.0,0.0,0.0,0.0,0.0,0.0,0.0,0.0,0.0,0.0,0.0,0.0,0.0,0.0,0.0,0.0,0.0,0.0,0.0,0.0,0.0,0.0,0.0,0.0,0.0,0.0,0.0,0.0,0.0,0.0,0.0,0.0,0.0,0.0,0.0,0.0,0.0,0.0,0.0,0.0,0.0,0.0,0.0,0.0,0.0,0.0,0.0,0.0,0.0,0.0,0.0,0.0,0.0,0.0,0.0,0.0,0.0,0.0,0.0,0.0,0.0,0.0,0.0,0.0,0.0,0.0,0.0,0.0,0.0,0.0,0.0,0.0,0.0,0.0,0.0,0.0,0.0,0.0,0.0,0.0,0.0,0.0,0.0,0.0,0.0,0.0,0.0,0.0,0.0,0.0,0.0,0.0,0.0,0.0,0.0,0.0,0.0,0.0,0.0,0.0,0.0,0.0,0.0,0.0,0.0,0.0,0.0,0.0,0.0,0.0,0.0,0.0,0.0,0.0,0.0,0.0,0.0,0.0,0.0,0.0,0.0,0.0,0.0,0.0,0.0,0.0,0.0,0.0,0.0,0.0,0.0,0.0,0.0,0.0,0.0,0.0,0.0,0.0,0.0,0.0,0.0,0.0,0.0,0.0,0.0,0.0,0.0,0.0,0.0,0.0,0.0,0.0,0.0,0.0,0.0,0.0,0.0,0.0,0.0,0.0,0.0,0.0,0.0,0.0,0.0,0.0,0.0,0.0,0.0,0.0,0.0,0.0,0.0,0.0,0.0,0.0,0.0,0.0,0.0,0.0,0.0,0.0,0.0,0.0,0.0,0.0,0.0,0.0,0.0,0.0,0.0,0.0,0.0,0.0,0.0,0.0,0.0,0.0,0.0,0.0,0.0,0.0,0.0,0.0,0.0,0.0,0.0,0.0,0.0,0.0,0.0,0.0,0.0,0.0,0.0,0.0,0.0,0.0,0.0,0.0,0.0,0.0,0.0,0.0,0.0,0.0,0.0,0.0,0.0,0.0,0.0,0.0,0.0,0.0,0.0,0.0,0.0,0.0,0.0,0.0,0.0,0.0,0.0,0.0,0.0,0.0,0.0,0.0,0.0,0.0,0.0,0.0,0.0,0.0,0.0,0.0,0.0,0.0,0.0,0.0,0.0,0.0,0.0,0.0,0.0,0.0,0.0,0.0,0.0,0.0,0.0,0.0,0.0,0.0,0.0,0.0,0.0,0.0,0.0,0.0,0.0,0.0,0.0,0.0,0.0,0.0,0.0,0.0,0.0,0.0,0.0,0.0,0.0,0.0,0.0,0.0,0.0,0.0,0.0,0.0,0.0,0.0,0.0,0.0,0.0,0.0,0.0,0.0,0.0,0.0,0.0,0.0,0.0,0.0,0.0,0.0,0.0,0.0,0.0,0.0,0.0,0.0,0.0,0.0,0.0,0.0,0.0,0.0,0.0,0.0,0.0,0.0,0.0,0.0,0.0,0.0,0.0,0.0,0.0,0.0,0.0,0.0,0.0,0.0,0.0,0.0,0.0,0.0,0.0,0.0,0.0,0.0,0.0,0.0,0.0,0.0,0.0,0.0,0.0,0.0,0.0,0.0,0.0,0.0,0.0,0.0,0.0,0.0,0.0,0.0,0.0,0.0,0.0,0.0,0.0,0.0,0.0,0.0,0.0,0.0,0.0,0.0,0.0,0.0,0.0,0.0,0.0,0.0,0.0,0.0,0.0,0.0,0.0,0.0,0.0,0.0,0.0,0.0,0.0,0.0,0.0,0.0,0.0,0.0,0.0,0.0,0.0,0.0,0.0,0.0,0.0,0.0,0.0,0.0,0.0,0.0,0.0,0.0,0.0,0.0,0.0,0.0,0.0,0.0,0.0,0.0,0.0,0.0,0.0,0.0,0.0,0.0,0.0,0.0,0.0,0.0,0.0,0.0,0.0,0.0,0.0,0.0,0.0,0.0,0.0,0.0,0.0,0.0,0.0,0.0,0.0,0.0,0.0,0.0,0.0,0.0,0.0,0.0,0.0,0.0,0.0,0.0,0.0,0.0,0.0,0.0,0.0,0.0,0.0,0.0,0.0,0.0,0.0,0.0,0.0,0.0,0.0,0.0,0.0,0.0,0.0,0.0,0.0,0.0,0.0,0.0,0.0,0.0,0.0,0.0,0.0,0.0,0.0,0.0,0.0,0.0,0.0,0.0,0.0,0.0,0.0,0.0,0.0,0.0,0.0,0.0,0.0,0.0,0.0,0.0,0.0,0.0,0.0,0.0,0.0,0.0,0.0,0.0,0.0,0.0,0.0,0.0,0.0,0.0,0.0,0.0,0.0,0.0,0.0,0.0,0.0,0.0,0.0,0.0,0.0,0.0,0.0,0.0,0.0,0.0,0.0,0.0,0.0,0.0,0.0,0.0,0.0,0.0,0.0,0.0,0.0,0.0,0.0,0.0,0.0,0.0,0.0,0.0,0.0,0.0,0.0,0.0,0.0,0.0,0.0,0.0,0.0,0.0,0.0,0.0,0.0,0.0,0.0,0.0,0.0,0.0,0.0,0.0,0.0,0.0,0.0,0.0,0.0,0.0,0.0,0.0,0.0,0.0,0.0,0.0,0.0,0.0,0.0,0.0,0.0,0.0,0.0,0.0,0.0,0.0,0.0,0.0,0.0,0.0,0.0,0.0,0.0,0.0,0.0,0.0,0.0,0.0,0.0,0.0,0.0,0.0,0.0,0.0,0.0,0.0,0.0,0.0,0.0,0.0,0.0,0.0,0.0,0.0,0.0,0.0,0.0,0.0,0.0,0.0,0.0,0.0,0.0,0.0,0.0,0.0,0.0,0.0,0.0,0.0,0.0,0.0,0.0,0.0,0.0,0.0,0.0,0.0,0.0,0.0,0.0,0.0,0.0,0.0,0.0,0.0,0.0,0.0,0.0,0.0,0.0,0.0,0.0,0.0,0.0,0.0,0.0,0.0,0.0,0.0,0.0,0.0,0.0,0.0,0.0,0.0,0.0,0.0,0.0,0.0,0.0,0.0,0.0,0.0,0.0,0.0,0.0,0.0,0.0,0.0,0.0,0.0,0.0,0.0,0.0,0.0,0.0,0.0,0.0,0.0,0.0,0.0,0.0,0.0,0.0,0.0,0.0,0.0,0.0,0.0,0.0,0.0,0.0,0.0,0.0,0.0,0.0,0.0,0.0,0.0,0.0,0.0,0.0,0.0,0.0,0.0,0.0,0.0,0.0,0.0,0.0,0.0,0.0,0.0,0.0,0.0,0.0,0.0,0.0,0.0,0.0,0.0,0.0,0.0,0.0,0.0,0.0,0.0,0.0,0.0,0.0,0.0,0.0,0.0,0.0,0.0,0.0,0.0,0.0,0.0,0.0,0.0,0.0,0.0,0.0,0.0,0.0,0.0,0.0,0.0,0.0,0.0,0.0,0.0,0.0,0.0,0.0,0.0,0.0,0.0,0.0,0.0,-1.0196,0.0,0.0,0.0,0.0,0.0,0.0,0.0,0.0,0.0,0.0,0.0,0.0,0.0,0.0,0.0,0.0,0.0,0.0,0.0,0.0,0.0,0.0,0.0,0.0,0.0,0.0,0.0,0.0,0.0,0.0,0.0,0.0,0.0,0.0,0.0,0.0,0.0,0.0,0.0,0.0,0.0,0.0,0.0,0.0,0.0,0.0,0.0,0.0,0.0,0.0,0.0,0.0,0.0,0.0,0.0,0.0,0.0,0.0,0.0,0.0,0.0,0.0,0.0,0.0,0.0,0.0,0.0,0.0,0.0,0.0,0.0,0.0,0.0,0.0,0.0,0.0,0.0,0.0,0.0,0.0,0.0,0.0,0.0,0.0,0.0,0.0,0.0,0.0,0.0,0.0,0.0,0.0,0.0,0.0,0.0,0.0,0.0,0.0,0.0,0.0,0.0,0.0,0.0,0.0,0.0,0.0,0.0,0.0,0.0,0.0,-1.0214,-1.0156,-1.0156,-1.0142,-1.0133,0.0,0.0,0.0,0.0,0.0,0.0,0.0,0.0,0.0,0.0,0.0,0.0,0.0,0.0,0.0,0.0,0.0,0.0,0.0,0.0,0.0,0.0,0.0,0.0,0.0,0.0,0.0,0.0,0.0,0.0,0.0,0.0,0.0,0.0,0.0,0.0,0.0,0.0,0.0,0.0,0.0,0.0,0.0,0.0,0.0,0.0,0.0,0.0,0.0,0.0,0.0,0.0,0.0,0.0,0.0,0.0,0.0,0.0,0.0,0.0,0.0,0.0,0.0,0.0,0.0,0.0,0.0,0.0,0.0,0.0,0.0,0.0,0.0,0.0,0.0,0.0,0.0,0.0,0.0,0.0,0.0,0.0,0.0,0.0,0.0,0.0,0.0,0.0,0.0,0.0,0.0,0.0,0.0,0.0,0.0,0.0,0.0,0.0,0.0,0.0,0.0,0.0,0.0,0.0,0.0,0.0,0.0,0.0,0.0,0.0,0.0,0.0,-1.0189,-1.0089,-1.0037,0.0,0.0,0.0,0.0,0.0,0.0,0.0,0.0,0.0,0.0,0.0,0.0,0.0,0.0,0.0,0.0,0.0,0.0,0.0,0.0,0.0,0.0,0.0,0.0,0.0,0.0,0.0,0.0,0.0,0.0,0.0,0.0,0.0,0.0,0.0,0.0,0.0,0.0,0.0,0.0,0.0,0.0,0.0,0.0,0.0,0.0,0.0,0.0,0.0,0.0,0.0,0.0,0.0,0.0,0.0,0.0,0.0,0.0,0.0,0.0,0.0,0.0,0.0,0.0,0.0,0.0,0.0,0.0,0.0,0.0,0.0,0.0,0.0,0.0,0.0,0.0,0.0,0.0,0.0,0.0,0.0,0.0,0.0,0.0,0.0,0.0,0.0,0.0,0.0,0.0,0.0,0.0,0.0,0.0,0.0,0.0,0.0,0.0,0.0,0.0,0.0,0.0,0.0,0.0,0.0,0.0,0.0,0.0,0.0,0.0,-1.052,-1.1153,-1.0482,0.0,-0.9837,0.0,0.0,0.0,0.0,0.0,0.0,0.0,0.0,0.0,0.0,0.0,0.0,0.0,0.0,0.0,0.0,0.0,0.0,0.0,0.0,0.0,0.0,0.0,0.0,0.0,0.0,0.0,0.0,0.0,0.0,0.0,0.0,0.0,0.0,0.0,0.0,0.0,0.0,0.0,0.0,0.0,0.0,0.0,0.0,0.0,0.0,0.0,0.0,0.0,0.0,0.0,0.0,0.0,0.0,0.0,0.0,0.0,0.0,0.0,0.0,0.0,0.0,0.0,0.0,0.0,0.0,0.0,0.0,0.0,0.0,0.0,0.0,0.0,0.0,0.0,0.0,0.0,0.0,0.0,0.0,0.0,0.0,0.0,0.0,0.0,0.0,0.0,0.0,0.0,0.0,0.0,0.0,0.0,0.0,0.0,0.0,0.0,0.0,0.0,0.0,0.0,0.0,0.0,0.0,0.0,0.0,0.0,0.0,0.0,0.0,-1.0744,-1.0536,-1.0178,-0.9927,0.0,0.0,0.0,0.0,0.0,0.0,0.0,0.0,0.0,0.0,0.0,0.0,0.0,0.0,0.0,0.0,0.0,0.0,0.0,0.0,0.0,0.0,0.0,0.0,0.0,0.0,0.0,0.0,0.0,0.0,0.0,0.0,0.0,0.0,0.0,0.0,0.0,0.0,0.0,0.0,0.0,0.0,0.0,0.0,0.0,0.0,0.0,0.0,0.0,0.0,0.0,0.0,0.0,0.0,0.0,0.0,0.0,0.0,0.0,0.0,0.0,0.0,0.0,0.0,0.0,0.0,0.0,0.0,0.0,0.0,0.0,0.0,0.0,0.0,0.0,0.0,0.0,0.0,0.0,0.0,0.0,0.0,0.0,0.0,0.0,0.0,0.0,0.0,0.0,0.0,0.0,0.0,0.0,0.0,0.0,0.0,0.0,0.0,0.0,0.0,0.0,0.0,0.0,0.0,0.0,0.0,0.0,0.0,0.0,0.0,-1.0865,0.0,-0.9987,-0.9903,-0.9843,-0.9762,0.0,0.0,0.0,0.0,0.0,0.0,0.0,0.0,0.0,0.0,0.0,0.0,0.0,0.0,0.0,0.0,0.0,0.0,0.0,0.0,0.0,0.0,0.0,0.0,0.0,0.0,0.0,0.0,0.0,0.0,0.0,0.0,0.0,0.0,0.0,0.0,0.0,0.0,0.0,0.0,0.0,0.0,0.0,0.0,0.0,0.0,0.0,0.0,0.0,0.0,0.0,0.0,0.0,0.0,0.0,0.0,0.0,0.0,0.0,0.0,0.0,0.0,0.0,0.0,0.0,0.0,0.0,0.0,0.0,0.0,0.0,0.0,0.0,0.0,0.0,0.0,0.0,0.0,0.0,0.0,0.0,0.0,0.0,0.0,0.0,0.0,0.0,0.0,0.0,0.0,0.0,0.0,0.0,0.0,0.0,0.0,0.0,0.0,0.0,0.0,0.0,0.0,0.0,0.0,0.0,0.0,0.0,0.0,0.0,-1.0791,-0.991,-0.9842,-0.9802,-0.9767,0.0,0.0,0.0,0.0,0.0,0.0,0.0,0.0,0.0,0.0,0.0,0.0,0.0,0.0,0.0,0.0,0.0,0.0,0.0,0.0,0.0,0.0,0.0,0.0,0.0,0.0,0.0,0.0,0.0,0.0,0.0,0.0,0.0,0.0,0.0,0.0,0.0,0.0,0.0,0.0,0.0,0.0,0.0,0.0,0.0,0.0,0.0,0.0,0.0,0.0,0.0,0.0,0.0,0.0,0.0,0.0,0.0,0.0,0.0,0.0,0.0,0.0,0.0,0.0,0.0,0.0,0.0,0.0,0.0,0.0,0.0,0.0,0.0,0.0,0.0,0.0,0.0,0.0,0.0,0.0,0.0,0.0,0.0,0.0,0.0,0.0,0.0,0.0,0.0,0.0,0.0,0.0,0.0,0.0,0.0,0.0,0.0,0.0,0.0,0.0,0.0,0.0,0.0,0.0,0.0,0.0,0.0,0.0,0.0,-1.0753,-1.0088,-0.9959,-1.0458,-0.9928,-0.9635,0.0,0.0,0.0,0.0,0.0,0.0,0.0,0.0,0.0,0.0,0.0,0.0,0.0,0.0,0.0,0.0,0.0,0.0,0.0,0.0,0.0,0.0,0.0,0.0,0.0,0.0,0.0,0.0,0.0,0.0,0.0,0.0,0.0,0.0,0.0,0.0,0.0,0.0,0.0,0.0,0.0,0.0,0.0,0.0,0.0,0.0,0.0,0.0,0.0,0.0,0.0,0.0,0.0,0.0,0.0,0.0,0.0,0.0,0.0,0.0,0.0,0.0,0.0,0.0,0.0,0.0,0.0,0.0,0.0,0.0,0.0,0.0,0.0,0.0,0.0,0.0,0.0,0.0,0.0,0.0,0.0,0.0,0.0,0.0,0.0,0.0,0.0,0.0,0.0,0.0,0.0,0.0,0.0,0.0,0.0,0.0,0.0,0.0,0.0,0.0,0.0,0.0,0.0,0.0,0.0,0.0,0.0,0.0,0.0,-0.9776,0.0,-1.0111,0.0,-0.9809,-0.9524,0.0,0.0,0.0,0.0,0.0,0.0,0.0,0.0,0.0,0.0,0.0,0.0,0.0,0.0,0.0,0.0,0.0,0.0,0.0,0.0,0.0,0.0,0.0,0.0,0.0,0.0,0.0,0.0,0.0,0.0,0.0,0.0,0.0,0.0,0.0,0.0,0.0,0.0,0.0,0.0,0.0,0.0,0.0,0.0,0.0,0.0,0.0,0.0,0.0,0.0,0.0,0.0,0.0,0.0,0.0,0.0,0.0,0.0,0.0,0.0,0.0,0.0,0.0,0.0,0.0,0.0,0.0,0.0,0.0,0.0,0.0,0.0,0.0,0.0,0.0,0.0,0.0,0.0,0.0,0.0,0.0,0.0,0.0,0.0,0.0,0.0,0.0,0.0,0.0,0.0,0.0,0.0,0.0,0.0,0.0,0.0,0.0,0.0,0.0,0.0,0.0,0.0,0.0,0.0,0.0,0.0,0.0,0.0,-0.9723,-0.9544,-1.0277,-1.0257,-0.9366,-0.9453,-0.9452,0.0,0.0,0.0,0.0,0.0,0.0,0.0,0.0,0.0,0.0,0.0,0.0,0.0,0.0,0.0,0.0,0.0,0.0,0.0,0.0,0.0,0.0,0.0,0.0,0.0,0.0,0.0,0.0,0.0,0.0,0.0,0.0,0.0,0.0,0.0,0.0,0.0,0.0,0.0,0.0,0.0,0.0,0.0,0.0,0.0,0.0,0.0,0.0,0.0,0.0,0.0,0.0,0.0,0.0,0.0,0.0,0.0,0.0,0.0,0.0,0.0,0.0,0.0,0.0,0.0,0.0,0.0,0.0,0.0,0.0,0.0,0.0,0.0,0.0,0.0,0.0,0.0,0.0,0.0,0.0,0.0,0.0,0.0,0.0,0.0,0.0,0.0,0.0,0.0,0.0,0.0,0.0,0.0,0.0,0.0,0.0,0.0,0.0,0.0,0.0,0.0,0.0,0.0,0.0,0.0,0.0,0.0,0.0,0.0,-0.9545,-1.0201,-1.0407,-1.0059,-0.9513,-0.9496,0.0,0.0,0.0,0.0,0.0,0.0,0.0,0.0,0.0,0.0,0.0,0.0,0.0,0.0,0.0,0.0,0.0,0.0,0.0,0.0,0.0,0.0,0.0,0.0,0.0,0.0,0.0,0.0,0.0,0.0,0.0,0.0,0.0,0.0,0.0,0.0,0.0,0.0,0.0,0.0,0.0,0.0,0.0,0.0,0.0,0.0,0.0,0.0,0.0,0.0,0.0,0.0,0.0,0.0,0.0,0.0,0.0,0.0,0.0,0.0,0.0,0.0,0.0,0.0,0.0,0.0,0.0,0.0,0.0,0.0,0.0,0.0,0.0,0.0,0.0,0.0,0.0,0.0,0.0,0.0,0.0,0.0,0.0,0.0,0.0,0.0,0.0,0.0,0.0,0.0,0.0,0.0,0.0,0.0,0.0,0.0,0.0,0.0,0.0,0.0,0.0,0.0,0.0,0.0,0.0,0.0,0.0,0.0,0.0,-1.0015,-1.0581,-1.0701,-1.0259,-0.9761,-0.9616,-0.981,0.0,0.0,0.0,0.0,0.0,0.0,0.0,0.0,0.0,0.0,0.0,0.0,0.0,0.0,0.0,0.0,0.0,0.0,0.0,0.0,0.0,0.0,0.0,0.0,0.0,0.0,0.0,0.0,0.0,0.0,0.0,0.0,0.0,0.0,0.0,0.0,0.0,0.0,0.0,0.0,0.0,0.0,0.0,0.0,0.0,0.0,0.0,0.0,0.0,0.0,0.0,0.0,0.0,0.0,0.0,0.0,0.0,0.0,0.0,0.0,0.0,0.0,0.0,0.0,0.0,0.0,0.0,0.0,0.0,0.0,0.0,0.0,0.0,0.0,0.0,0.0,0.0,0.0,0.0,0.0,0.0,0.0,0.0,0.0,0.0,0.0,0.0,0.0,0.0,0.0,0.0,0.0,0.0,0.0,0.0,0.0,0.0,0.0,0.0,0.0,0.0,0.0,0.0,0.0,0.0,0.0,0.0,0.0,-1.0807,-1.1459,-1.1286,-1.02,-1.0174,-0.9818,0.0,0.0,0.0,0.0,0.0,0.0,0.0,0.0,0.0,0.0,0.0,0.0,0.0,0.0,0.0,0.0,0.0,0.0,0.0,0.0,0.0,0.0,0.0,0.0,0.0,0.0,0.0,0.0,0.0,0.0,0.0,0.0,0.0,0.0,0.0,0.0,0.0,0.0,0.0,0.0,0.0,0.0,0.0,0.0,0.0,0.0,0.0,0.0,0.0,0.0,0.0,0.0,0.0,0.0,0.0,0.0,0.0,0.0,0.0,0.0,0.0,0.0,0.0,0.0,0.0,0.0,0.0,0.0,0.0,0.0,0.0,0.0,0.0,0.0,0.0,0.0,0.0,0.0,0.0,0.0,0.0,0.0,0.0,0.0,0.0,0.0,0.0,0.0,0.0,0.0,0.0,0.0,0.0,0.0,0.0,0.0,0.0,0.0,0.0,0.0,0.0,0.0,0.0,0.0,0.0,0.0,0.0,0.0,0.0,-1.2012,-1.3412,-1.3437,-1.189,-1.0693,-1.0202,0.0,0.0,0.0,0.0,0.0,0.0,0.0,0.0,0.0,0.0,0.0,0.0,0.0,0.0,0.0,0.0,0.0,0.0,0.0,0.0,0.0,0.0,0.0,0.0,0.0,0.0,0.0,0.0,0.0,0.0,0.0,0.0,0.0,0.0,0.0,0.0,0.0,0.0,0.0,0.0,0.0,0.0,0.0,0.0,0.0,0.0,0.0,0.0,0.0,0.0,0.0,0.0,0.0,0.0,0.0,0.0,0.0,0.0,0.0,0.0,0.0,0.0,0.0,0.0,0.0,0.0,0.0,0.0,0.0,0.0,0.0,0.0,0.0,0.0,0.0,0.0,0.0,0.0,0.0,0.0,0.0,0.0,0.0,0.0,0.0,0.0,0.0,0.0,0.0,0.0,0.0,0.0,0.0,0.0,0.0,0.0,0.0,0.0,0.0,0.0,0.0,0.0,0.0,0.0,0.0,0.0,0.0,0.0,-1.2313,-1.3281,-1.456,-1.4908,-1.4241,-1.291,-1.168,0.0,0.0,0.0,0.0,0.0,0.0,0.0,0.0,0.0,0.0,0.0,0.0,0.0,0.0,0.0,0.0,0.0,0.0,0.0,0.0,0.0,0.0,0.0,0.0,0.0,0.0,0.0,0.0,0.0,0.0,0.0,0.0,0.0,0.0,0.0,0.0,0.0,0.0,0.0,0.0,0.0,0.0,0.0,0.0,0.0,0.0,0.0,0.0,0.0,0.0,0.0,0.0,0.0,0.0,0.0,0.0,0.0,0.0,0.0,0.0,0.0,0.0,0.0,0.0,0.0,0.0,0.0,0.0,0.0,0.0,0.0,0.0,0.0,0.0,0.0,0.0,0.0,0.0,0.0,0.0,0.0,0.0,0.0,0.0,0.0,0.0,0.0,0.0,0.0,0.0,0.0,0.0,0.0,0.0,0.0,0.0,0.0,0.0,0.0,0.0,0.0,0.0,0.0,0.0,0.0,0.0,0.0,0.0,-1.2786,-1.4499,-1.527,-1.5951,-1.6622,-1.5653,-1.3576,0.0,0.0,0.0,0.0,0.0,0.0,0.0,0.0,0.0,0.0,0.0,0.0,0.0,0.0,0.0,0.0,0.0,0.0,0.0,0.0,0.0,0.0,0.0,0.0,0.0,0.0,0.0,0.0,0.0,0.0,0.0,0.0,0.0,0.0,0.0,0.0,0.0,0.0,0.0,0.0,0.0,0.0,0.0,0.0,0.0,0.0,0.0,0.0,0.0,0.0,0.0,0.0,0.0,0.0,0.0,0.0,0.0,0.0,0.0,0.0,0.0,0.0,0.0,0.0,0.0,0.0,0.0,0.0,0.0,0.0,0.0,0.0,0.0,0.0,0.0,0.0,0.0,0.0,0.0,0.0,0.0,0.0,0.0,0.0,0.0,0.0,0.0,0.0,0.0,0.0,0.0,0.0,0.0,0.0,0.0,0.0,0.0,0.0,0.0,0.0,0.0,0.0,0.0,0.0,0.0,0.0,0.0,0.0,-1.3099,-1.4782,-1.628,-1.7139,-1.7299,-1.5322,-1.3595,0.0,0.0,0.0,0.0,0.0,0.0,0.0,0.0,0.0,0.0,0.0,0.0,0.0,0.0,0.0,0.0,0.0,0.0,0.0,0.0,0.0,0.0,0.0,0.0,0.0,0.0,0.0,0.0,0.0,0.0,0.0,0.0,0.0,0.0,0.0,0.0,0.0,0.0,0.0,0.0,0.0,0.0,0.0,0.0,0.0,0.0,0.0,0.0,-0.9325,0.0,0.0,0.0,0.0,0.0,0.0,0.0,0.0,0.0,0.0,0.0,0.0,0.0,0.0,0.0,0.0,0.0,0.0,0.0,0.0,0.0,0.0,0.0,0.0,0.0,0.0,0.0,0.0,0.0,0.0,0.0,0.0,0.0,0.0,0.0,0.0,0.0,0.0,0.0,0.0,0.0,0.0,0.0,0.0,0.0,0.0,0.0,0.0,0.0,0.0,0.0,0.0,0.0,0.0,0.0,0.0,0.0,0.0,0.0,-1.3289,-1.5741,-1.6745,-1.7575,-1.8241,-1.6413,-1.4556,0.0,0.0,0.0,0.0,0.0,0.0,0.0,0.0,0.0,0.0,0.0,0.0,0.0,0.0,0.0,0.0,0.0,0.0,0.0,0.0,0.0,0.0,0.0,0.0,0.0,0.0,0.0,0.0,0.0,0.0,0.0,0.0,0.0,0.0,0.0,0.0,0.0,0.0,0.0,0.0,0.0,0.0,0.0,0.0,0.0,0.0,0.0,0.0,0.0,0.0,0.0,0.0,0.0,0.0,0.0,0.0,0.0,0.0,0.0,0.0,0.0,0.0,0.0,0.0,0.0,0.0,0.0,0.0,0.0,0.0,0.0,0.0,0.0,0.0,0.0,0.0,0.0,0.0,0.0,0.0,0.0,0.0,0.0,0.0,0.0,0.0,0.0,0.0,0.0,0.0,0.0,0.0,0.0,0.0,0.0,0.0,0.0,0.0,0.0,0.0,0.0,0.0,0.0,0.0,0.0,0.0,0.0,-1.1773,-1.3447,-1.6605,-1.694,-1.7746,-1.917,-1.7716,-1.5705,-1.3172,0.0,0.0,0.0,0.0,0.0,0.0,0.0,0.0,0.0,0.0,0.0,0.0,0.0,0.0,0.0,0.0,0.0,0.0,0.0,0.0,0.0,0.0,0.0,0.0,0.0,0.0,0.0,0.0,0.0,0.0,0.0,0.0,0.0,0.0,0.0,0.0,0.0,0.0,-0.7962,-0.9533,0.0,0.0,0.0,0.0,0.0,0.0,0.0,0.0,-0.9914,0.0,0.0,0.0,0.0,0.0,0.0,0.0,0.0,0.0,0.0,0.0,0.0,0.0,0.0,0.0,0.0,0.0,0.0,0.0,0.0,0.0,0.0,0.0,0.0,0.0,0.0,0.0,0.0,0.0,0.0,0.0,0.0,0.0,0.0,0.0,0.0,0.0,0.0,0.0,0.0,0.0,0.0,0.0,0.0,0.0,0.0,0.0,0.0,0.0,0.0,0.0,0.0,0.0,0.0,0.0,0.0,-1.118,-1.2079,-1.372,-1.6088,-1.7087,-1.805,-1.8961,-1.765,-1.6053,-1.4292,0.0,0.0,0.0,0.0,0.0,0.0,0.0,0.0,0.0,0.0,0.0,0.0,0.0,0.0,0.0,0.0,0.0,0.0,0.0,0.0,0.0,0.0,0.0,0.0,0.0,0.0,0.0,0.0,0.0,0.0,0.0,0.0,0.0,0.0,0.0,0.0,0.0,0.0,0.0,-1.0364,-1.115,0.0,0.0,0.0,0.0,0.0,0.0,0.0,0.0,-1.0271,0.0,0.0,0.0,0.0,0.0,0.0,0.0,0.0,0.0,0.0,0.0,0.0,0.0,0.0,0.0,0.0,0.0,0.0,0.0,0.0,0.0,0.0,0.0,0.0,0.0,0.0,0.0,0.0,0.0,0.0,0.0,0.0,0.0,0.0,0.0,0.0,0.0,0.0,0.0,0.0,0.0,0.0,0.0,0.0,0.0,0.0,0.0,0.0,0.0,0.0,0.0,0.0,0.0,0.0,0.0,-1.1248,-1.2139,-1.3797,-1.6228,-1.6857,-1.7774,-1.905,-1.7279,-1.571,0.0,0.0,0.0,0.0,0.0,0.0,0.0,0.0,0.0,0.0,0.0,0.0,0.0,0.0,0.0,0.0,0.0,0.0,0.0,0.0,0.0,0.0,0.0,0.0,0.0,0.0,0.0,0.0,0.0,0.0,0.0,0.0,0.0,0.0,0.0,0.0,0.0,0.0,0.0,0.0,-1.0732,-1.1393,-1.1112,0.0,0.0,0.0,0.0,0.0,0.0,-1.1361,-1.1232,0.0,0.0,0.0,0.0,0.0,0.0,0.0,0.0,0.0,0.0,0.0,0.0,0.0,0.0,0.0,0.0,0.0,0.0,0.0,0.0,0.0,0.0,0.0,0.0,0.0,0.0,0.0,0.0,0.0,0.0,0.0,0.0,0.0,0.0,0.0,0.0,0.0,0.0,0.0,0.0,0.0,0.0,0.0,0.0,0.0,0.0,0.0,0.0,0.0,0.0,0.0,0.0,0.0,0.0,0.0,-1.133,-1.2141,-1.3834,-1.6344,-1.6568,-1.7358,-1.888,-1.6986,-1.5426,0.0,0.0,0.0,0.0,0.0,0.0,0.0,0.0,0.0,0.0,0.0,0.0,0.0,0.0,0.0,0.0,0.0,0.0,0.0,0.0,0.0,0.0,0.0,0.0,0.0,0.0,0.0,0.0,0.0,0.0,0.0,0.0,0.0,0.0,0.0,0.0,0.0,0.0,0.0,0.0,0.0,-1.189,-1.1836,-1.2423,0.0,0.0,0.0,0.0,-1.297,-1.2803,0.0,0.0,0.0,0.0,0.0,0.0,0.0,0.0,0.0,0.0,0.0,0.0,0.0,0.0,0.0,0.0,0.0,0.0,0.0,0.0,0.0,0.0,0.0,0.0,0.0,0.0,0.0,0.0,0.0,0.0,0.0,0.0,0.0,0.0,0.0,0.0,0.0,0.0,0.0,0.0,0.0,0.0,0.0,0.0,0.0,0.0,0.0,0.0,0.0,0.0,0.0,0.0,0.0,0.0,0.0,0.0,-1.1148,-1.2166,-1.3795,-1.5941,-1.642,-1.6995,-1.7835,-1.7149,-1.572,0.0,0.0,0.0,0.0,0.0,0.0,0.0,0.0,0.0,0.0,0.0,0.0,0.0,0.0,0.0,0.0,0.0,0.0,0.0,0.0,0.0,0.0,0.0,0.0,0.0,0.0,0.0,0.0,0.0,0.0,0.0,0.0,0.0,0.0,0.0,0.0,0.0,0.0,0.0,0.0,0.0,-1.339,-1.2758,-1.289,-1.3272,0.0,0.0,-1.3979,-1.388,-1.4553,0.0,0.0,0.0,0.0,0.0,0.0,0.0,0.0,0.0,0.0,0.0,0.0,0.0,0.0,0.0,0.0,0.0,0.0,0.0,0.0,0.0,0.0,0.0,0.0,0.0,0.0,0.0,0.0,0.0,0.0,0.0,0.0,0.0,0.0,0.0,0.0,0.0,0.0,0.0,0.0,0.0,0.0,0.0,0.0,0.0,0.0,0.0,0.0,0.0,0.0,0.0,0.0,0.0,0.0,0.0,-1.0848,-1.1139,-1.2423,-1.4033,-1.5914,-1.5832,-1.6366,-1.7677,-1.6297,-1.4839,0.0,0.0,0.0,0.0,0.0,0.0,0.0,0.0,0.0,0.0,0.0,0.0,0.0,0.0,0.0,0.0,0.0,0.0,0.0,0.0,0.0,0.0,0.0,0.0,0.0,0.0,0.0,0.0,0.0,0.0,0.0,0.0,0.0,0.0,0.0,0.0,0.0,0.0,0.0,0.0,0.0,0.0,-1.4154,-1.4729,0.0,0.0,0.0,-1.5714,-1.5513,0.0,0.0,0.0,0.0,0.0,0.0,0.0,0.0,0.0,0.0,0.0,0.0,0.0,0.0,0.0,0.0,0.0,0.0,0.0,0.0,0.0,0.0,0.0,0.0,0.0,0.0,0.0,0.0,0.0,0.0,0.0,0.0,0.0,0.0,0.0,0.0,0.0,0.0,0.0,0.0,0.0,0.0,0.0,0.0,0.0,0.0,0.0,0.0,0.0,0.0,0.0,0.0,0.0,0.0,0.0,0.0,0.0,-1.1131,-1.2615,-1.4153,-1.5653,-1.531,-1.5761,-1.7037,-1.5608,0.0,0.0,0.0,0.0,0.0,0.0,0.0,0.0,0.0,0.0,0.0,0.0,0.0,0.0,0.0,0.0,0.0,0.0,0.0,0.0,0.0,0.0,0.0,0.0,0.0,0.0,0.0,-0.4588,0.0,0.0,0.0,0.0,0.0,0.0,0.0,0.0,0.0,0.0,0.0,0.0,0.0,0.0,-1.3805,-1.5207,-1.6134,-1.6751,0.0,0.0,-1.7138,-1.699,-1.677,-1.5925,0.0,0.0,0.0,0.0,0.0,0.0,0.0,0.0,0.0,0.0,0.0,0.0,0.0,0.0,0.0,0.0,0.0,0.0,0.0,0.0,0.0,0.0,0.0,0.0,0.0,0.0,0.0,0.0,0.0,0.0,0.0,0.0,0.0,0.0,0.0,0.0,0.0,0.0,0.0,0.0,0.0,0.0,0.0,0.0,0.0,0.0,0.0,0.0,0.0,0.0,0.0,0.0,0.0,0.0,0.0,-1.1147,-1.2615,-1.3921,-1.4938,-1.5068,-1.5235,-1.5555,-1.5585,-1.4536,0.0,0.0,0.0,0.0,0.0,0.0,0.0,0.0,0.0,0.0,0.0,0.0,0.0,0.0,0.0,0.0,0.0,0.0,0.0,0.0,0.0,0.0,0.0,0.0,0.0,0.0,0.0,0.0,0.0,0.0,0.0,0.0,0.0,0.0,0.0,0.0,0.0,0.0,0.0,0.0,0.0,-1.525,-1.5398,-1.6251,-1.7142,0.0,0.0,-1.8006,-1.8005,-1.8588,-1.8019,-1.4919,0.0,0.0,0.0,0.0,0.0,0.0,0.0,0.0,0.0,0.0,0.0,0.0,0.0,0.0,0.0,0.0,0.0,0.0,0.0,0.0,0.0,0.0,0.0,0.0,0.0,0.0,0.0,0.0,0.0,0.0,0.0,0.0,0.0,0.0,0.0,0.0,0.0,0.0,0.0,0.0,0.0,0.0,0.0,0.0,0.0,0.0,0.0,0.0,0.0,0.0,0.0,0.0,0.0,-1.1106,-1.1131,-1.2615,-1.4024,-1.5257,-1.469,-1.4837,-1.5862,-1.5275,-1.4059,0.0,0.0,0.0,0.0,0.0,0.0,0.0,0.0,0.0,0.0,0.0,0.0,0.0,0.0,0.0,0.0,0.0,0.0,0.0,0.0,0.0,0.0,0.0,0.0,0.0,0.0,0.0,0.0,-0.7245,-0.7846,-0.8711,0.0,0.0,0.0,0.0,0.0,0.0,0.0,0.0,0.0,0.0,-1.6078,-1.7102,-1.8005,0.0,0.0,-1.8845,-1.8847,-1.8845,-1.8264,-1.7244,-1.5502,-1.4297,0.0,0.0,0.0,0.0,0.0,0.0,0.0,0.0,0.0,0.0,0.0,0.0,0.0,0.0,0.0,0.0,0.0,0.0,0.0,0.0,0.0,0.0,0.0,0.0,0.0,0.0,0.0,0.0,0.0,0.0,0.0,0.0,0.0,0.0,0.0,0.0,0.0,0.0,0.0,0.0,0.0,0.0,0.0,0.0,0.0,0.0,0.0,0.0,0.0,0.0,0.0,0.0,-1.1106,-1.1114,-1.2838,-1.4276,-1.5357,-1.4614,-1.4781,-1.5882,-1.5007,-1.3747,0.0,0.0,0.0,0.0,0.0,0.0,0.0,0.0,0.0,0.0,0.0,0.0,0.0,0.0,0.0,0.0,0.0,0.0,0.0,0.0,0.0,0.0,0.0,0.0,0.0,0.0,0.0,0.0,-0.8341,-0.886,-0.9678,0.0,0.0,0.0,0.0,0.0,0.0,0.0,0.0,0.0,0.0,-1.7131,-1.8283,-1.9112,-1.9532,-1.9427,-1.9335,-1.9295,-1.9295,-1.8563,-1.7614,-1.6587,0.0,0.0,0.0,0.0,0.0,0.0,0.0,0.0,0.0,0.0,0.0,0.0,0.0,0.0,0.0,0.0,0.0,0.0,0.0,0.0,0.0,0.0,0.0,0.0,0.0,0.0,0.0,-0.5045,0.0,0.0,-0.5899,0.0,0.0,0.0,0.0,0.0,0.0,0.0,0.0,0.0,0.0,0.0,0.0,0.0,0.0,0.0,0.0,0.0,0.0,0.0,0.0,0.0,0.0,-1.1106,-1.113,-1.3308,-1.4621,-1.4905,-1.4946,-1.5113,-1.5392,-1.4827,-1.3756,-1.2159,0.0,0.0,0.0,0.0,0.0,0.0,0.0,0.0,0.0,0.0,0.0,0.0,0.0,0.0,0.0,0.0,0.0,0.0,0.0,0.0,0.0,0.0,0.0,0.0,0.0,0.0,-0.7509,-0.8145,-0.8914,0.0,0.0,0.0,0.0,0.0,0.0,0.0,0.0,0.0,0.0,-1.6997,-1.8564,-1.862,-1.9188,-1.9656,-1.962,-1.9451,-1.9314,-1.9323,-1.9905,-1.9902,0.0,0.0,0.0,0.0,0.0,0.0,0.0,0.0,0.0,0.0,0.0,0.0,0.0,0.0,0.0,0.0,0.0,0.0,0.0,0.0,0.0,0.0,0.0,0.0,0.0,0.0,0.0,-0.7136,-0.6956,0.0,0.0,0.0,0.0,0.0,0.0,0.0,0.0,0.0,0.0,0.0,-1.0085,-1.0727,0.0,0.0,0.0,0.0,0.0,0.0,0.0,0.0,0.0,0.0,0.0,0.0,-1.1106,-1.1196,-1.333,-1.4618,-1.4821,-1.4939,-1.5107,-1.5319,-1.4806,-1.3747,-1.2141,0.0,0.0,0.0,0.0,0.0,0.0,0.0,0.0,0.0,0.0,0.0,0.0,0.0,0.0,0.0,0.0,0.0,0.0,0.0,0.0,0.0,0.0,0.0,0.0,0.0,-0.8471,0.0,0.0,0.0,0.0,0.0,0.0,0.0,0.0,0.0,0.0,0.0,-1.4985,-1.6492,-1.796,-1.9033,-1.9469,-2.0221,-2.0649,0.0,0.0,0.0,0.0,0.0,0.0,0.0,0.0,0.0,0.0,0.0,0.0,0.0,0.0,-1.854,-1.547,-1.4718,-1.4519,-1.4382,0.0,0.0,0.0,0.0,0.0,0.0,0.0,0.0,0.0,0.0,0.0,0.0,0.0,0.0,-0.9026,-0.9239,-0.9035,0.0,0.0,0.0,0.0,0.0,0.0,0.0,0.0,-1.0746,-1.1608,-1.1827,-1.24,-1.2552,0.0,-1.2504,-1.1584,0.0,0.0,0.0,0.0,0.0,0.0,0.0,0.0,-1.1192,-1.158,-1.3741,-1.5005,-1.5214,-1.5347,-1.5518,-1.5686,-1.4657,-1.3591,-1.2545,-1.1196,-1.0201,0.0,0.0,0.0,0.0,0.0,0.0,0.0,0.0,0.0,0.0,0.0,0.0,0.0,0.0,0.0,0.0,0.0,0.0,0.0,0.0,0.0,0.0,0.0,-0.9319,0.0,0.0,0.0,0.0,0.0,0.0,0.0,0.0,0.0,-1.4315,-1.5008,-1.6047,-1.7845,-1.888,-1.9612,-2.0041,0.0,0.0,0.0,0.0,0.0,0.0,0.0,-2.0381,-2.0695,-2.0532,-2.0365,-2.0329,-2.0823,-2.1223,-2.1117,0.0,0.0,-1.8219,-1.7483,-1.7301,-1.717,-1.7454,-1.7582,-1.7149,-1.8097,-1.8936,0.0,0.0,0.0,0.0,0.0,0.0,0.0,0.0,-1.0423,-1.0973,0.0,-1.1227,0.0,0.0,0.0,0.0,-0.847,-1.0192,0.0,0.0,-1.2765,-1.3701,-1.4292,-1.4363,-1.4184,-1.3958,-1.4763,-1.4117,-1.2111,-1.0685,0.0,0.0,0.0,0.0,0.0,0.0,-1.1404,-1.2382,-1.4491,-1.5722,-1.6006,-1.6131,-1.6256,-1.6349,-1.4441,-1.3346,-1.3263,-1.2537,-1.1441,-0.9921,-0.9721,0.0,0.0,0.0,0.0,0.0,0.0,0.0,0.0,0.0,0.0,0.0,0.0,0.0,0.0,0.0,0.0,0.0,0.0,0.0,0.0,-0.9306,0.0,0.0,0.0,0.0,0.0,0.0,0.0,0.0,0.0,0.0,-1.6828,-1.6649,-1.7043,-1.8804,0.0,0.0,0.0,0.0,-2.1396,-2.1405,-2.1943,-2.2365,-2.2356,-2.2949,-2.3149,-2.2472,0.0,0.0,-2.1497,-2.1884,-2.219,-2.1394,-2.215,-2.2683,-2.2629,-2.1838,-2.1368,-2.129,-2.1265,-2.139,-2.1244,-2.1712,-2.2544,-1.5238,0.0,0.0,0.0,0.0,-1.2516,-1.2807,-1.3459,-1.3143,-1.3067,-1.3207,-1.3047,0.0,0.0,0.0,0.0,0.0,0.0,-1.2226,-1.265,-1.4046,-1.4937,-1.5386,-1.5855,-1.5895,-1.5549,-1.5788,-1.5451,-1.4552,-1.3622,-1.1983,-0.9762,0.0,0.0,0.0,0.0,-1.235,-1.3345,-1.5012,-1.6063,-1.6431,-1.6419,-1.5974,-1.5085,-1.4578,-1.4034,-1.3467,-1.326,-1.2425,-1.0866,-1.0204,0.0,0.0,0.0,0.0,0.0,0.0,0.0,0.0,0.0,0.0,0.0,0.0,0.0,0.0,0.0,0.0,0.0,0.0,0.0,-0.9339,-0.9838,-1.03,0.0,0.0,0.0,0.0,0.0,0.0,0.0,0.0,0.0,-1.9017,-1.8595,-1.8547,0.0,0.0,-2.1155,-2.1159,-2.2378,-2.3246,-2.3104,-2.3362,0.0,-2.3386,-2.3158,-2.3122,-2.3524,-2.4255,-2.462,-2.4168,-2.4292,-2.4369,-2.411,-2.4341,-2.4523,-2.4436,-2.3371,-2.2468,-2.2287,-2.2265,-2.2262,-2.225,-2.2891,-2.3538,-1.7954,-1.5779,-1.5193,-1.5121,-1.535,-1.5066,-1.5283,-1.5818,-1.5646,-1.537,-1.5054,-1.5139,-1.4484,-1.3274,-1.2883,0.0,0.0,0.0,-1.3911,-1.4161,-1.5359,-1.6051,-1.6417,-1.6797,-1.7,-1.6999,-1.6987,-1.678,-1.6361,-1.5906,-1.4425,-1.2012,0.0,0.0,-1.1889,-1.286,-1.3826,-1.4777,-1.5974,-1.6701,-1.6947,-1.6711,-1.6096,-1.5104,-1.4884,-1.456,-1.4091,-1.4104,-1.3369,-1.1788,-1.0986,-1.0381,0.0,0.0,0.0,0.0,0.0,0.0,0.0,0.0,0.0,0.0,0.0,-0.6248,-0.5473,0.0,0.0,0.0,-0.7753,-0.9838,-1.0502,-1.0908,0.0,0.0,0.0,0.0,0.0,0.0,0.0,-1.5594,-1.7045,-1.8566,-2.009,-2.0358,-2.0607,-2.1213,-2.1714,-2.2026,-2.2017,0.0,-2.4063,-2.3944,-2.4292,-2.4543,-2.4413,-2.4051,-2.3986,-2.4485,-2.4966,-2.5293,-2.5303,-2.5303,-2.5303,-2.5303,-2.5303,-2.5303,-2.5303,-2.4457,-2.3765,-2.3697,-2.3668,-2.3678,-2.3667,-2.4064,-2.4438,-2.0238,-2.0153,-1.8786,-1.815,-1.8003,-1.8003,-1.7878,-1.7729,-1.7955,-1.7739,-1.7264,-1.7477,-1.671,-1.5188,-1.4512,0.0,-1.3817,-1.5352,-1.6087,-1.6113,-1.6701,-1.7157,-1.7446,-1.7429,-1.7684,-1.8235,-1.8236,-1.8021,-1.7588,-1.7598,-1.6892,-1.5544,-1.4485,-1.431,-1.5,-1.5072,-1.5589,-1.6531,-1.7187,-1.7575,-1.7575,-1.7036,-1.6472,-1.5906,-1.5264,-1.4903,-1.4913,-1.4911,-1.4177,-1.2598,-1.1949,-1.1152,-1.0119,0.0,0.0,0.0,0.0,0.0,0.0,0.0,0.0,0.0,0.0,0.0,0.0,0.0,0.0,0.0,-0.9771,0.0,-1.1579,-1.2276,0.0,0.0,0.0,-1.4101,-1.4118,-1.5707,-1.6794,-1.6797,0.0,0.0,-2.0602,-2.1952,-2.293,-2.2988,-2.2958,-2.2911,-2.2911,-2.3669,-2.4188,-2.4226,-2.4832,-2.5284,-2.5197,-2.5187,-2.5159,-2.5216,-2.5303,-2.5303,-2.5303,-2.5303,-2.5303,-2.5303,-2.5303,-2.5303,-2.5303,-2.5226,-2.5303,-2.5207,-2.5226,-2.5245,-2.5178,-2.5187,-2.5206,-2.2437,-2.2393,-2.2066,-2.1121,-1.9872,-1.984,-1.9951,-2.0153,-2.0223,-2.0171,-2.004,-2.0079,-1.9616,-1.8735,-1.8074,-1.7736,-1.7658,-1.8041,-1.8377,-1.8598,-1.8422,-1.851,-1.881,-1.8455,-1.837,-1.8487,-1.8494,-1.8494,-1.8476,-1.8385,-1.8365,-1.837,-1.8038,-1.6941,-1.5247,-1.5755,-1.6615,-1.7693,-1.7872,-1.8084,-1.8317,-1.7579,-1.6803,-1.6073,-1.5359,-1.4977,-1.4977,-1.508,-1.4354,-1.2746,-1.2074,-1.1264,-1.0142,-0.8761,0.0,0.0,0.0,0.0,0.0,0.0,0.0,0.0,0.0,-0.777,-0.6402,0.0,-0.8717,0.0,-1.0462,-1.2603,-1.2421,-1.3128,0.0,0.0,-1.5347,-1.6116,-1.671,-1.8323,-1.9397,-1.9396,-2.1051,-2.2451,-2.3102,-2.3544,-2.4024,-2.4601,-2.4159,-2.3784,-2.3823,-2.4486,-2.5014,-2.5014,-2.5149,-2.5303,-2.5303,-2.5303,-2.5303,-2.5303,-2.5303,-2.5303,-2.5303,-2.5303,-2.5303,-2.5303,-2.5303,-2.5303,-2.5303,-2.5303,-2.5303,-2.5303,-2.5303,-2.5303,-2.5303,-2.5303,-2.5303,-2.3387,-2.3457,-2.3478,-2.2965,-2.2152,-2.1825,-2.1801,-2.1976,-2.1988,-2.1808,-2.1478,-2.1149,-2.0719,-2.0216,-1.9997,-1.9824,-1.968,-1.9816,-1.9993,-2.0154,-1.9914,-1.9675,-1.9516,-1.926,-1.9015,-1.8787,-1.8847,-1.8966,-1.9152,-1.9156,-1.9277,-1.9581,-1.9507,-1.872,-1.7318,-1.7707,-1.8224,-1.8849,-1.8861,-1.8951,-1.9105,-1.7983,-1.7179,-1.6714,-1.566,-1.5098,-1.5136,-1.4816,-1.4017,-1.2752,-1.2017,-1.1166,-1.0156,-0.9169,-0.8264,0.0,0.0,0.0,0.0,0.0,0.0,0.0,0.0,0.0,0.0,0.0,-1.0643,-1.0359,-1.3171,-1.4704,-1.3918,-1.4959,-1.5883,-1.6365,-1.717,-1.8011,-1.8815,-2.0104,-2.1075,-2.1449,-2.2662,-2.3648,-2.413,-2.4505,-2.487,-2.5351,-2.4995,-2.4697,-2.4687,-2.5053,-2.5303,-2.5303,-2.5303,-2.5303,-2.5303,-2.5303,-2.5303,-2.5303,-2.5303,-2.5303,-2.5303,-2.5303,-2.5303,-2.5332,-2.5313,-2.5322,-2.537,-2.537,-2.5351,-2.539,-2.5399,-2.537,-2.5313,-2.5303,-2.5303,-2.3781,-2.3925,-2.3934,-2.4088,-2.4307,-2.3671,-2.341,-2.3392,-2.3401,-2.3041,-2.2392,-2.172,-2.1294,-2.103,-2.1224,-2.1162,-2.0907,-2.1166,-2.129,-2.1265,-2.1236,-2.0852,-2.0177,-2.0143,-1.9887,-1.9433,-1.9439,-1.9583,-1.9804,-1.9819,-1.9819,-1.9858,-1.9845,-1.9835,-1.9875,-1.9864,-1.9866,-1.9847,-1.9849,-1.9877,-1.9848,-1.8355,-1.7544,-1.7504,-1.6028,-1.5243,-1.5272,-1.4519,-1.3715,-1.2901,-1.2132,-1.1237,-1.0161,-0.9538,-0.9536,0.0,-0.8724,0.0,0.0,0.0,0.0,0.0,0.0,0.0,0.0,-1.0786,-1.241,-1.3786,-1.6338,-1.7292,-1.5787,-1.7103,-1.8063,-1.8101,-1.8937,-1.9806,-2.0505,-2.143,-2.2312,-2.307,-2.393,-2.4462,-2.4508,-2.5067,-2.551,-2.5505,-2.5475,-2.5377,-2.5331,-2.5313,-2.5341,-2.5332,-2.5322,-2.5341,-2.5341,-2.5332,-2.5341,-2.5332,-2.5332,-2.5322,-2.5332,-2.5322,-2.5341,-2.539,-2.536,-2.536,-2.5476,-2.5438,-2.5447,-2.5466,-2.5495,-2.5466,-2.5361,-2.5332,-2.5322,-2.4579,-2.4601,-2.461,-2.465,-2.4684,-2.4557,-2.4493,-2.4503,-2.4482,-2.4349,-2.4101,-2.3808,-2.374,-2.3785,-2.3271,-2.3002,-2.2925,-2.2816,-2.2794,-2.2779,-2.257,-2.2373,-2.2228,-2.1948,-2.1787,-2.1633,-2.1038,-2.0828,-2.0954,-2.0181,-1.9944,-2.0188,-2.0041,-2.0041,-2.0189,0.0,0.0,0.0,-2.0148,-2.024,-2.0226,-1.8669,-1.7825,-1.7783,-1.617,0.0,-1.5288,-1.5122,-1.4644,-1.3798,-1.3595,0.0,0.0,0.0,0.0,0.0,0.0,0.0,0.0,0.0,0.0,0.0,-1.1944,-1.1441,-1.0158,-1.158,-1.3263,-1.4886,-1.6807,-1.7825,-1.7453,-1.8335,-1.8968,-1.9,-2.0295,-2.1298,-2.1492,-2.2827,-2.3887,-2.403,-2.4773,-2.5264,-2.5254,-2.5426,-2.55,-2.5519,-2.5515,-2.5494,-2.5475,-2.5456,-2.5457,-2.5466,-2.5457,-2.5457,-2.5447,-2.5457,-2.5457,-2.5447,-2.5457,-2.5457,-2.5447,-2.5457,-2.5467,-2.5476,-2.547,-2.546,-2.5494,-2.5486,-2.5495,-2.5486,-2.5515,-2.5495,-2.5457,-2.5457,-2.5466,-2.4943,-2.5046,-2.5046,-2.5046,0.0,-2.5046,-2.5047,-2.5018,-2.4879,-2.4716,-2.459,-2.4564,-2.4629,-2.4729,-2.433,-2.4148,-2.4126,-2.4026,-2.3989,-2.3979,-2.3849,-2.3565,-2.3149,-2.2974,-2.2694,-2.2294,-2.1994,-2.165,-2.1341,-2.0899,-2.0579,-2.036,-2.0247,-2.0247,-2.0342,-2.036,-2.0312,-2.0246,-2.0312,-2.0361,-2.0332,-1.8755,-1.7912,-1.7857,-1.6213,0.0,0.0,0.0,0.0,0.0,0.0,0.0,0.0,0.0,0.0,-1.1611,-1.1129,-1.1058,-1.1482,-1.1534,-1.1911,-1.2772,-1.3199,-1.3253,-1.2801,-1.2821,-1.3906,-1.641,-1.8251,-1.9101,-1.8681,-1.9373,-1.9892,-1.996,-2.1029,-2.1954,-2.243,-2.355,-2.4512,-2.4949,-2.534,-2.5596,-2.5605,-2.5596,-2.5596,-2.5604,-2.56,-2.56,-2.5596,-2.5544,-2.5511,-2.5505,-2.5516,-2.5509,-2.5511,-2.5512,-2.5512,-2.5515,-2.5511,-2.5513,-2.5517,-2.5517,-2.5514,-2.5538,-2.5523,-2.5525,-2.5595,-2.5573,-2.557,-2.5591,-2.5591,-2.5603,-2.5599,-2.5541,-2.5512,-2.5142,-2.5293,-2.5303,-2.5303,-2.5303,-2.5303,-2.5303,-2.5274,-2.5009,0.0,0.0,-2.4834,-2.4905,-2.4977,-2.4879,-2.4837,-2.4837,-2.4818,-2.4817,-2.4811,-2.482,-2.4473,-2.3794,-2.3823,-2.3486,-2.2872,-2.2886,-2.2483,-2.1695,-2.1635,-2.1208,-2.0453,-2.0388,-2.0417,-2.0417,-2.0433,-2.0431,-2.0434,-2.0414,-2.0414,-2.0386,-1.879,-1.7917,-1.7917,-1.6225,-1.5352,-1.5396,-1.4662,-1.4267,-1.4306,-1.3634,-1.3266,-1.3251,-1.3118,-1.3133,-1.3311,-1.3066,-1.2969,-1.3096,-1.3117,-1.3182,-1.3338,-1.4089,-1.4866,-1.5576,-1.45,-1.5019,-1.7988,-1.9678,-2.0283,-1.96,-2.0156,-2.0654,-2.082,-2.1602,-2.2451,-2.3252,-2.4092,-2.4932,-2.5557,-2.5674,-2.5693,-2.5693,-2.5693,-2.5693,-2.5693,-2.5681,-2.5699,-2.5689,-2.5611,-2.5552,-2.5547,-2.5556,-2.5528,-2.5541,-2.5547,-2.5543,-2.5539,-2.556,-2.5534,-2.5536,-2.5523,-2.5552,-2.5612,-2.5571,-2.5586,-2.5674,-2.5648,-2.5644,-2.5693,-2.5693,-2.5701,-2.5688,-2.561,-2.554,-2.5274,-2.5303,-2.5303,-2.5303,-2.5303,-2.5303,-2.5303,-2.5303,-2.5243,-2.5225,-2.5197,-2.5235,-2.5243,-2.5222,-2.5044,-2.4965,-2.4962,-2.4846,-2.4813,-2.4815,-2.4909,-2.4913,-2.4803,-2.5024,-2.5082,-2.4918,-2.435,-2.3611,-2.2765,-2.2047,-2.1244,-2.0508,-2.0383,-2.0444,-2.0487,-2.0549,-2.057,-2.056,-2.0507,-2.0508,-2.0535,-1.8885,-1.7986,-1.7918,-1.6299,-1.5399,-1.5406,-1.5273,-1.5214,-1.5205,-1.5088,-1.5028,-1.5019,-1.4307,-1.4267,-1.4893,-1.3701,-1.3203,-1.3877,-1.3926,-1.4257,-1.5009,-1.5848,-1.6385,-1.6502,-1.6992,-1.7803,-1.9053,-2.0029,-2.0566,-2.0439,-2.0518,-2.0889,-2.1631,-2.248,-2.333,-2.4092,-2.4941,-2.5518,-2.5674,-2.5693,-2.5693,-2.5693,-2.5693,-2.5693,-2.5693,-2.5693,-2.5693,-2.5693,-2.5681,-2.5671,-2.5668,-2.567,-2.5673,-2.5654,-2.5674,-2.5654,-2.5662,-2.5664,-2.5644,-2.5654,-2.5654,-2.5674,-2.5684,-2.5674,-2.5674,-2.5693,-2.5692,-2.5684,-2.5693,-2.5693,-2.5693,-2.5693,-2.5638,-2.5604,-2.5303,-2.5303,-2.5303,-2.5303,-2.5303,-2.5332,-2.538,-2.5409,-2.5399,-2.5361,-2.5303,-2.5332,-2.537,-2.5399,-2.531,-2.5268,-2.5268,-2.5201,-2.5194,-2.5185,-2.5242,-2.5264,-2.5274,-2.5399,-2.5455,-2.5435,-2.5121,-2.4523,-2.3693,-2.2853,-2.2031,-2.124,-2.0741,-2.0517,-2.0559,-2.0579,-2.0596,-2.0596,-2.0566,-2.0566,-2.0576,-1.9355,-1.8496,-1.7998,-1.6738,-1.5879,-1.543,-1.541,-1.541,-1.541,-1.541,-1.541,-1.5391,-1.5029,-1.498,-1.5342,-1.4678,-1.4424,-1.4766,-1.4805,-1.5176,-1.6025,-1.6465,-1.7119,-1.8047,-1.8047,-1.8555,-1.9844,-2.0391,-2.0596,-2.0596,-2.0596,-2.0947,-2.1807,-2.2676,-2.3516,-2.4336,-2.5166,-2.5684,-2.5693,-2.5693,-2.5693,-2.5693,-2.5693,-2.5693,-2.5693,-2.5693,-2.5693,-2.5693,-2.5693,-2.5693,-2.5693,-2.5693,-2.5693,-2.5693,-2.5693,-2.5693,-2.5693,-2.5693,-2.5693,-2.5693,-2.5693,-2.5693,-2.5693,-2.5693,-2.5693,-2.5693,-2.5693,-2.5693,-2.5693,-2.5693,-2.5693,-2.5682,-2.5638,-2.5594,-2.5313,-2.5322,-2.5322,-2.5332,-2.5341,-2.5407,-2.5456,-2.5495,-2.5505,-2.5438,-2.537,-2.5409,-2.5457,-2.5501,-2.5511,-2.5511,-2.5511,-2.5511,-2.5513,-2.5505,-2.5515,-2.5513,-2.5519,-2.5517,-2.5537,-2.5533,-2.5532,-2.5124,-2.4316,-2.3496,-2.2576,-2.1621,-2.0916,-2.0594,-2.0545,-2.0584,-2.0596,-2.0576,-2.0596,-2.0596,-2.0576,-1.9736,-1.8975,-1.8274,-1.7236,-1.6378,-1.571,-1.5466,-1.5378,-1.5378,-1.5371,-1.538,-1.538,-1.5379,-1.5379,-1.538,-1.5385,-1.5415,-1.5419,-1.5569,-1.5971,-1.6626,-1.704,-1.7842,-1.9014,-1.8877,-1.9121,-2.0352,-2.0586,-2.0596,-2.0635,-2.082,-2.124,-2.21,-2.2959,-2.3828,-2.4609,-2.5312,-2.5693,-2.5693,-2.5693,-2.5693,-2.5693,-2.5693,-2.5693,-2.5693,-2.5693,-2.5693,-2.5693,-2.5693,-2.5693,-2.5693,-2.5693,-2.5693,-2.5693,-2.5693,-2.5693,-2.5693,-2.5693,-2.5693,-2.5693,-2.5693,-2.5693,-2.5693,-2.5693,-2.5693,-2.5693,-2.5693,-2.5693,-2.5693,-2.5693,-2.5693,-2.5675,-2.564,-2.5577,-2.5341,-2.539,-2.539,-2.5428,-2.5495,-2.5489,-2.5498,-2.5515,-2.5515,-2.5486,-2.5486,-2.5486,-2.5495,-2.5511,-2.5517,-2.5512,-2.5512,-2.5512,-2.5511,-2.5514,-2.5515,-2.5509,-2.5527,-2.5566,-2.5605,-2.5605,-2.5654,-2.5244,-2.4443,-2.3535,-2.2269,-2.081,-2.0606,-2.0527,-2.0457,-2.0537,-2.0576,-2.0518,-2.0566,-2.0596,-2.0537,-1.9736,-1.9239,-1.909,-1.7547,-1.6633,-1.6488,-1.5716,-1.5317,-1.5309,-1.5336,-1.5332,-1.5313,-1.5317,-1.5317,-1.5318,-1.538,-1.541,-1.5458,-1.6094,-1.6541,-1.6694,-1.8064,-1.8965,-1.9277,-1.9912,-2.0371,-2.0586,-2.0596,-2.0605,-2.0654,-2.1279,-2.207,-2.2978,-2.374,-2.4629,-2.5342,-2.5644,-2.5693,-2.5693,-2.5684,-2.5693,-2.5684,-2.5684,-2.5693,-2.5684,-2.5674,-2.5684,-2.5693,-2.5684,-2.5693,-2.5693,-2.5693,-2.5693,-2.5693,-2.5693,-2.5693,-2.5693,-2.5693,-2.5693,-2.5693,-2.5693,-2.5693,-2.5693,-2.5693,-2.5693,-2.5693,-2.5693,-2.5693,-2.5693,-2.5693,-2.567,-2.5625,-2.5601,-2.558,-2.538,-2.539,-2.5441,-2.5495,-2.5553,-2.5556,-2.5573,-2.5614,-2.5613,-2.5615,-2.5609,-2.5617,-2.5585,-2.5553,-2.5596,-2.5609,-2.5629,-2.5629,-2.5615,-2.5617,-2.5617,-2.5608,-2.5625,-2.5635,-2.5654,-2.5664,-2.5693,-2.5518,-2.5,-2.3809,-2.2279,-2.0727,-2.0595,-2.0575,-2.0516,-2.0578,-2.0572,-2.0566,-2.0586,-2.0575,-2.0501,-2.0201,-1.9742,-1.9198,-1.8482,-1.786,-1.7336,-1.6537,-1.6082,-1.6121,-1.6105,-1.5833,-1.5332,-1.5935,-1.6008,-1.5413,-1.5829,-1.6108,-1.6116,-1.6864,-1.7534,-1.8037,-1.8769,-1.9409,-1.9922,-2.0361,-2.0596,-2.0596,-2.0605,-2.0781,-2.1289,-2.1689,-2.2432,-2.3623,-2.4228,-2.4747,-2.554,-2.5661,-2.5674,-2.5605,-2.5605,-2.5625,-2.5596,-2.5587,-2.5596,-2.5605,-2.5606,-2.5622,-2.5684,-2.5654,-2.5654,-2.5684,-2.5693,-2.5693,-2.5693,-2.5693,-2.5693,-2.5693,-2.5693,-2.5693,-2.5693,-2.5693,-2.5693,-2.5693,-2.5693,-2.5693,-2.5693,-2.5693,-2.5693,-2.5693,-2.5693,-2.568,-2.5619,-2.5604,-2.5601,-2.5438,-2.5475,-2.5522,-2.5596,-2.5624,-2.5633,-2.5653,-2.57,-2.5692,-2.5692,-2.5693,-2.5693,-2.5666,-2.5644,-2.5676,-2.5693,-2.5693,-2.5693,-2.5693,-2.5693,-2.5693,-2.5693,-2.5693,-2.5693,-2.5693,-2.5693,-2.5693,-2.5459,-2.4941,-2.3848,-2.2305,-2.082,-2.0599,-2.0599,-2.055,-2.058,-2.0585,-2.0555,-2.0552,-2.0535,-2.0486,-2.0458,-2.0131,-1.9538,-1.9243,-1.8802,-1.8204,-1.7359,-1.6817,-1.6663,-1.6796,-1.6618,-1.6046,-1.6613,-1.6601,-1.592,-1.6251,-1.6694,-1.6912,-1.7682,-1.84,-1.901,-1.93,-1.9767,-2.0314,-2.0555,-2.0575,-2.0576,-2.0955,-2.1543,-2.1742,-2.228,-2.3115,-2.4219,-2.4551,-2.5029,-2.5527,-2.5639,-2.5625,-2.5527,-2.5557,-2.5547,-2.5512,-2.5515,-2.5528,-2.556,-2.5532,-2.5525,-2.5626,-2.5596,-2.5596,-2.5654,-2.5644,-2.5644,-2.5684,-2.5693,-2.5693,-2.5693,-2.5693,-2.5693,-2.5693,-2.5693,-2.5693,-2.5693,-2.5693,-2.5693,-2.5693,-2.5693,-2.5693,-2.5693,-2.5693,-2.5693,-2.5654,-2.5635,-2.5635,-2.5524,-2.5598,-2.5658,-2.5693,-2.5693,-2.5693,-2.5693,-2.5693,-2.5693,-2.5693,-2.5693,-2.5693,-2.5693,-2.5693,-2.5693,-2.5693,-2.5693,-2.5693,-2.5693,-2.5693,-2.5693,-2.5693,-2.5693,-2.5693,-2.5693,-2.5693,-2.5693,-2.4893,-2.3418,-2.3223,-2.2285,-2.0615,-2.0566,-2.0545,-2.0452,-2.054,-2.0535,-2.045,-2.0472,-2.0466,-2.0405,-2.0343,-2.0302,-2.0131,-1.9523,-1.9098,-1.8879,-1.8119,-1.733,-1.6567,-1.7287,-1.7618,-1.7511,-1.7198,-1.7038,-1.6901,-1.6702,-1.6932,-1.7716,-1.8499,-1.9006,-1.9129,-1.9756,-2.0246,-2.0313,-2.0489,-2.0521,-2.0431,-2.1823,-2.2494,-2.2134,-2.3112,-2.4043,-2.4385,-2.5127,-2.5542,-2.5591,-2.5591,-2.5579,-2.5514,-2.5502,-2.5485,-2.5502,-2.5515,-2.5495,-2.5493,-2.5504,-2.5513,-2.5517,-2.5515,-2.5518,-2.5527,-2.5547,-2.5557,-2.5664,-2.5664,-2.5674,-2.5674,-2.5664,-2.5693,-2.5693,-2.5693,-2.5693,-2.5693,-2.5693,-2.5693,-2.5693,-2.5693,-2.5693,-2.5693,-2.5693,-2.5684,-2.5674,-2.5693,-2.5684,-2.5609,-2.5675,-2.5689,-2.5693,-2.5693,-2.5693,-2.5693,-2.5693,-2.5693,-2.5693,-2.5693,-2.5693,-2.5693,-2.5693,-2.5693,-2.5693,-2.5693,-2.5693,-2.5693,-2.5693,-2.5693,-2.5693,-2.5693,-2.5693,-2.5693,-2.5693,-2.5684,-2.4824,-2.332,-2.3144,-2.2266,-2.085,-2.0596,-2.0551,-2.0484,-2.0513,-2.0472,-2.0424,-2.0427,-2.0407,-2.0337,-2.0313,-2.0302,-2.0292,-2.0033,-1.986,-1.9813,-1.9037,-1.8465,-1.8225,-1.8522,-1.8384,-1.7922,-1.8609,-1.8549,-1.7641,-1.7903,-1.829,-1.8612,-1.9352,-1.9831,-1.986,-2.01,-2.0298,-2.031,-2.0396,-2.0442,-2.0718,-2.198,-2.2753,-2.2879,-2.3587,-2.4456,-2.5008,-2.5369,-2.5557,-2.5509,-2.5505,-2.5485,-2.5394,-2.5379,-2.537,-2.538,-2.537,-2.5399,-2.5418,-2.5399,-2.5418,-2.5467,-2.5462,-2.5444,-2.5496,-2.5515,-2.5518,-2.5547,-2.5566,-2.5566,-2.5586,-2.5596,-2.5625,-2.5644,-2.5674,-2.5684,-2.5684,-2.5684,-2.5693,-2.5693,-2.5693,-2.5693,-2.5693,-2.5693,-2.5693,-2.5693,-2.5693,-2.5693,-2.5656,-2.5693,-2.5693,-2.5693,-2.5693,-2.5693,-2.5693,-2.5693,-2.5693,-2.5693,-2.5693,-2.5693,-2.5693,-2.5693,-2.5693,-2.5693,-2.5693,-2.5693,-2.5693,-2.5693,-2.5693,-2.5693,-2.5693,-2.5693,-2.5693,-2.5693,-2.5693,-2.4844,-2.3359,-2.3135,-2.2197,-2.0654,-2.0571,-2.0527,-2.0478,-2.0466,-2.0443,-2.0388,-2.036,-2.035,-2.0302,-2.0302,-2.0302,-2.0321,-2.034,-2.0331,-2.0302,-1.9759,-1.9367,-1.9239,-1.9405,-1.9266,-1.8859,-1.9682,-1.9792,-1.8763,-1.8835,-1.9181,-1.9446,-1.9985,-2.0285,-2.0302,-2.0302,-2.0302,-2.0302,-2.035,-2.0379,-2.0733,-2.1959,-2.3033,-2.3396,-2.4075,-2.4832,-2.5383,-2.5512,-2.5473,-2.5428,-2.5447,-2.5409,-2.5332,-2.5313,-2.5313,-2.5303,-2.5303,-2.5332,-2.5361,-2.5332,-2.5341,-2.5399,-2.5399,-2.538,-2.5418,-2.5418,-2.5418,-2.5426,-2.5441,-2.5499,-2.5518,-2.5537,-2.5566,-2.5587,-2.5631,-2.5654,-2.5664,-2.5674,-2.5693,-2.5693,-2.5693,-2.5693,-2.5693,-2.5693,-2.5693,-2.5693,-2.5693,-2.5693,-2.5693,-2.5693,-2.5693,-2.5693,-2.5693,-2.5693,-2.5693,-2.5693,-2.5693,-2.5693,-2.5693,-2.5693,-2.5693,-2.5693,-2.5693,-2.5693,-2.5693,-2.5693,-2.5693,-2.5693,-2.5693,-2.5693,-2.5693,-2.5693,-2.5693,-2.5693,-2.5693,-2.4853,-2.3389,-2.3125,-2.2244,-2.0842,-2.0538,-2.0469,-2.041,-2.0396,-2.0361,-2.0321,-2.0321,-2.0302,-2.0302,-2.0302,-2.0331,-2.0369,-2.0389,-2.0348,-2.03,-2.0264,-1.9908,-1.9376,-1.9873,-2.0292,-2.0177,-2.0302,-2.0254,-2.0023,-1.9475,-1.9494,-2.011,-2.0265,-2.0302,-2.0302,-2.0302,-2.0302,-2.0302,-2.0312,-2.0321,-2.056,-2.1899,-2.3188,-2.3793,-2.4664,-2.5327,-2.5476,-2.5475,-2.5447,-2.5409,-2.539,-2.537,-2.5322,-2.5303,-2.5303,-2.5303,-2.5303,-2.5322,-2.5313,-2.5303,-2.5303,-2.5322,-2.5322,-2.5313,-2.5313,-2.5332,-2.5351,-2.5322,-2.5313,-2.539,-2.5459,-2.5488,-2.5507,-2.5517,-2.5543,-2.5603,-2.5615,-2.5684,-2.5693,-2.5693,-2.5693,-2.5693,-2.5693,-2.5693,-2.5693,-2.5693,-2.5693,-2.5693,-2.5693,-2.5693,-2.5693,-2.5693,-2.5693,-2.5693,-2.5693,-2.5693,-2.5693,-2.5693,-2.5693,-2.5693,-2.5693,-2.5693,-2.5693,-2.5693,-2.5693,-2.5693,-2.5693,-2.5693,-2.5693,-2.5693,-2.5693,-2.5693,-2.5693,-2.5693,-2.5693,-2.5107,-2.4043,-2.3361,-2.2462,-2.1444,-2.0711,-2.0413,-2.0337,-2.0332,-2.0321,-2.0302,-2.0302,-2.0302,-2.0302,-2.0302,-2.0321,-2.0321,-2.034,-2.0345,-2.036,-2.0424,-2.0284,-1.9977,-2.0275,-2.0429,-2.0398,-2.0378,-2.036,-2.0275,-2.0071,-1.9956,-2.0215,-2.0302,-2.0302,-2.0302,-2.0302,-2.0302,-2.0302,-2.0302,-2.0313,-2.0475,-2.192,-2.3221,-2.3848,-2.4807,-2.5388,-2.5361,-2.537,-2.537,-2.5351,-2.5332,-2.5332,-2.5313,-2.5303,-2.5303,-2.5303,-2.5303,-2.5303,-2.5303,-2.5303,-2.5303,-2.5303,-2.5303,-2.5303,-2.5303,-2.5303,-2.5303,-2.5303,-2.5303,-2.5341,-2.5399,-2.5418,-2.5438,-2.5443,-2.5499,-2.5545,-2.5605,-2.5674,-2.5693,-2.5693,-2.5693,-2.5693,-2.5693,-2.5693,-2.5693,-2.5693,-2.5693,-2.5693,-2.5693,-2.5693,-2.5693,-2.5693,-2.5693,-2.5693,-2.5693,-2.5693,-2.5693,-2.5693,-2.5693,-2.5693,-2.5693,-2.5693,-2.5693,-2.5684,-2.5662,-2.5693,-2.5693,-2.5674,-2.5693,-2.5693,-2.5693,-2.5671,-2.5638,-2.5636,-2.5635,-2.5156,-2.4248,-2.3446,-2.2589,-2.166,-2.0791,-2.0358,-2.0302,-2.0302,-2.0302,-2.0302,-2.0302,-2.0302,-2.0302,-2.0302,-2.0321,-2.0319,-2.032,-2.0349,-2.0408,-2.0446,-2.0443,-2.0414,-2.0437,-2.0437,-2.0369,-2.036,-2.0342,-2.0334,-2.0311,-2.0285,-2.0302,-2.0302,-2.0302,-2.0302,-2.0302,-2.0302,-2.0302,-2.0312,-2.0446,-2.1081,-2.2407,-2.3618,-2.4331,-2.4966,-2.539,-2.5322,-2.5313,-2.5303,-2.5303,-2.5303,-2.5303,-2.5303,-2.5303,-2.5303,-2.5303,-2.5303,-2.5303,-2.5303,-2.5303,-2.5303,-2.5303,-2.5303,-2.5303,-2.5303,-2.5303,-2.5303,-2.5303,-2.5303,-2.5303,-2.5332,-2.5351,-2.5361,-2.5368,-2.5462,-2.5537,-2.5625,-2.5693,-2.5693,-2.5693,-2.5693,-2.5693,-2.5693,-2.5693,-2.5693,-2.5693,-2.5693,-2.5693,-2.5693,-2.5692,-2.5693,-2.5693,-2.5684,-2.5693,-2.5693,-2.5693,-2.5693,-2.5693,-2.5693,-2.5693,-2.5684,-2.5684,-2.5674,-2.5645,-2.5611,-2.5644,-2.5644,-2.5625,-2.5654,-2.5674,-2.5664,-2.564,-2.5586,-2.5514,-2.5512,-2.5098,-2.4399,-2.3452,-2.2562,-2.1766,-2.0847,-2.0302,-2.0291,-2.0291,-2.0296,-2.0292,-2.0302,-2.0302,-2.0302,-2.0302,-2.0321,-2.0369,-2.0381,-2.0376,-2.0395,-2.0405,-2.0396,-2.0383,-2.0408,-2.0369,-2.0312,-2.0302,-2.0317,-2.0366,-2.0331,-2.0308,-2.0302,-2.0302,-2.0302,-2.0302,-2.0312,-2.03,-2.033,-2.0389,-2.0696,-2.1504,-2.2939,-2.4149,-2.4822,-2.5293,-2.5341,-2.5322,-2.5303,-2.5303,-2.5303,-2.5303,-2.5303,-2.5303,-2.5303,-2.5303,-2.5303,-2.5303,-2.5303,-2.5303,-2.5303,-2.5303,-2.5303,-2.5303,-2.5303,-2.5303,-2.5303,-2.5303,-2.5303,-2.5303,-2.5303,-2.5313,-2.5322,-2.5332,-2.5361,-2.5457,-2.5534,-2.5625,-2.5693,-2.5693,-2.5693,-2.5693,-2.5693,-2.5693,-2.5693,-2.5693,-2.5693,-2.5693,-2.5693,-2.5671,-2.5632,-2.5676,-2.5647,-2.5577,-2.5649,-2.5674,-2.5635,-2.5674,-2.5693,-2.5693,-2.5648,-2.5618,-2.5628,-2.558,-2.5547,-2.5547,-2.556,-2.5564,-2.5596,-2.5566,-2.5596,-2.5615,-2.5612,-2.5563,-2.5514,-2.549,-2.5348,-2.4992,-2.3589,-2.2758,-2.2427,-2.0972,-2.0302,-2.0296,-2.0297,-2.0292,-2.0292,-2.0302,-2.0302,-2.0302,-2.0302,-2.0302,-2.0312,-2.0325,-2.0343,-2.0382,-2.0385,-2.0381,-2.0387,-2.035,-2.0331,-2.0302,-2.03,-2.0311,-2.0313,-2.0301,-2.0302,-2.0302,-2.0302,-2.0302,-2.0302,-2.035,-2.0381,-2.0371,-2.0425,-2.0593,-2.1183,-2.2593,-2.39,-2.4178,-2.487,-2.5284,-2.5322,-2.5303,-2.5303,-2.5303,-2.5303,-2.5303,-2.5303,-2.5303,-2.5303,-2.5303,-2.5303,-2.5303,-2.5303,-2.5303,-2.5303,-2.5303,-2.5303,-2.5303,-2.5303,-2.5303,-2.5303,-2.5303,-2.5303,-2.5303,-2.5303,-2.5313,-2.5322,-2.5399,-2.5495,-2.5553,-2.5625,-2.5684,-2.5693,-2.5693,-2.5693,-2.5693,-2.5693,-2.5693,-2.5693,-2.5693,-2.5693,-2.5693,-2.5599,-2.5565,-2.5605,-2.5565,-2.5513,-2.557,-2.5598,-2.5566,-2.5596,-2.5642,-2.5639,-2.5598,-2.5543,-2.5544,-2.5528,-2.5485,-2.5471,-2.5493,-2.5497,-2.5493,-2.5508,-2.5518,-2.5513,-2.5525,-2.5476,-2.5428,-2.5418,-2.5188,-2.4678,-2.3495,-2.2722,-2.2045,-2.0953,-2.035,-2.0337,-2.0305,-2.0305,-2.0317,-2.0316,-2.0302,-2.0302,-2.0302,-2.0302,-2.0302,-2.0302,-2.0321,-2.035,-2.0369,-2.0379,-2.036,-2.035,-2.0331,-2.0339,-2.0334,-2.0334,-2.0308,-2.0302,-2.0302,-2.0302,-2.0292,-2.0311,-2.0334,-2.041,-2.0419,-2.041,-2.0461,-2.0526,-2.113,-2.2276,-2.3092,-2.388,-2.4755,-2.5264,-2.5313,-2.5303,-2.5303,-2.5303,-2.5303,-2.5303,-2.5303,-2.5303,-2.5303,-2.5303,-2.5303,-2.5303,-2.5303,-2.5303,-2.5303,-2.5303,-2.5303,-2.5303,-2.5303,-2.5303,-2.5303,-2.5303,-2.5303,-2.5303,-2.5303,-2.5322,-2.5332,-2.5415,-2.5508,-2.5567,-2.5614,-2.5666,-2.5693,-2.5693,-2.5693,-2.5693,-2.5693,-2.5693,-2.5693,-2.5693,-2.5693,-2.5693,-2.5488,-2.5486,-2.5491,-2.5485,-2.5482,-2.5488,-2.5509,-2.5492,-2.5498,-2.5541,-2.5577,-2.5524,-2.5486,-2.5476,-2.5466,-2.5447,-2.5399,-2.5438,-2.5438,-2.5436,-2.5452,-2.5457,-2.5398,-2.5423,-2.537,-2.5293,-2.5255,-2.4793,-2.4092,-2.3169,-2.2271,-2.1567,-2.0733,-2.0379,-2.0349,-2.0327,-2.032,-2.0342,-2.032,-2.0292,-2.0302,-2.0302,-2.0302,-2.0302,-2.0302,-2.0302,-2.0331,-2.0369,-2.0385,-2.033,-2.0386,-2.0415,-2.0412,-2.0424,-2.0375,-2.0318,-2.0302,-2.0302,-2.03,-2.0313,-2.0318,-2.0366,-2.0447,-2.0469,-2.0426,-2.0466,-2.0684,-2.111,-2.1603,-2.2774,-2.4033,-2.4889,-2.512,-2.5236,-2.5303,-2.5303,-2.5303,-2.5303,-2.5303,-2.5303,-2.5303,-2.5303,-2.5303,-2.5303,-2.5303,-2.5303,-2.5303,-2.5303,-2.5303,-2.5303,-2.5303,-2.5303,-2.5303,-2.5303,-2.5303,-2.5303,-2.5303,-2.5303,-2.5341,-2.5361,-2.5427,-2.5511,-2.5567,-2.5625,-2.5664,-2.5684,-2.5693,-2.5693,-2.5693,-2.5693,-2.5693,-2.5693,-2.5693,-2.5693,-2.5693,-2.5492,-2.5435,-2.5486,-2.5438,-2.5378,-2.5457,-2.5465,-2.542,-2.5468,-2.5487,-2.5505,-2.5457,-2.5418,-2.5418,-2.537,-2.5341,-2.5322,-2.5351,-2.5332,-2.5332,-2.539,-2.537,-2.5287,-2.5235,-2.5303,-2.5139,-2.463,-2.4255,-2.3746,-2.2581,-2.1702,-2.1394,-2.0695,-2.0302,-2.0306,-2.0305,-2.0298,-2.0305,-2.0298,-2.0292,-2.0302,-2.0302,-2.0302,-2.0302,-2.0302,-2.0302,-2.0321,-2.036,-2.0385,-2.0415,-2.0488,-2.0527,-2.0547,-2.0547,-2.0477,-2.0366,-2.03,-2.0302,-2.0298,-2.0341,-2.0352,-2.0351,-2.0421,-2.0475,-2.0424,-2.0462,-2.0502,-2.0871,-2.185,-2.3053,-2.4457,-2.4524,-2.4774,-2.513,-2.5303,-2.5303,-2.5303,-2.5303,-2.5303,-2.5303,-2.5303,-2.5303,-2.5303,-2.5303,-2.5303,-2.5303,-2.5303,-2.5303,-2.5303,-2.5303,-2.5303,-2.5303,-2.5303,-2.5303,-2.5303,-2.5303,-2.5303,-2.5303,-2.5332,-2.5341,-2.5422,-2.5492,-2.5548,-2.5605,-2.5664,-2.5674,-2.5684,-2.5693,-2.5693,-2.5693,-2.5693,-2.5693,-2.5693,-2.5693,-2.5693,-2.539,-2.5361,-2.539,-2.537,-2.5313,-2.537,-2.538,-2.537,-2.538,-2.5399,-2.5409,-2.5361,-2.5361,-2.5361,-2.5322,-2.5303,-2.5303,-2.5293,-2.5082,-2.4822,-2.4726,-2.4534,-2.4159,-2.4216,-2.4302,-2.4514,-2.389,-2.3362,-2.269,-2.2023,-2.1326,-2.0943,-2.0485,-2.0321,-2.0292,-2.0296,-2.0292,-2.0294,-2.0302,-2.0302,-2.0302,-2.0302,-2.0302,-2.0302,-2.0302,-2.0302,-2.0302,-2.0331,-2.0354,-2.04,-2.0508,-2.0596,-2.0596,-2.0596,-2.0537,-2.047,-2.0337,-2.0327,-2.0359,-2.036,-2.0359,-2.0352,-2.0408,-2.0395,-2.0386,-2.0412,-2.0394,-2.0494,-2.1216,-2.235,-2.3899,-2.4322,-2.4476,-2.5082,-2.5303,-2.5303,-2.5303,-2.5303,-2.5303,-2.5303,-2.5303,-2.5303,-2.5303,-2.5303,-2.5303,-2.5303,-2.5303,-2.5303,-2.5303,-2.5303,-2.5303,-2.5303,-2.5303,-2.5303,-2.5303,-2.5303,-2.5303,-2.5303,-2.5313,-2.5322,-2.534,-2.5428,-2.5511,-2.5576,-2.5635,-2.5664,-2.5674,-2.5684,-2.5693,-2.5693,-2.5693,-2.5693,-2.5693,-2.5693,-2.5693,-2.5303,-2.5303,-2.5303,-2.5303,-2.5303,-2.5313,-2.5313,-2.5303,-2.5303,-2.5313,-2.5303,-2.5303,-2.5313,-2.5303,-2.5303,-2.5303,-2.5303,-2.5255,-2.4986,-2.4303,-2.4245,-2.3793,-2.3217,-2.2937,-2.2992,-2.355,-2.2959,-2.2249,-2.1787,-2.135,-2.0924,-2.0417,-2.0321,-2.0302,-2.0292,-2.0292,-2.0291,-2.0302,-2.0302,-2.0302,-2.0302,-2.0302,-2.0302,-2.0302,-2.0302,-2.0302,-2.0302,-2.0302,-2.031,-2.0327,-2.0451,-2.0544,-2.0569,-2.0559,-2.0573,-2.0558,-2.0384,-2.0335,-2.036,-2.0337,-2.0324,-2.0376,-2.0392,-2.0367,-2.0339,-2.0366,-2.0369,-2.0446,-2.0869,-2.1629,-2.2841,-2.3687,-2.4466,-2.5082,-2.5303,-2.5303,-2.5303,-2.5303,-2.5303,-2.5303,-2.5303,-2.5303,-2.5303,-2.5303,-2.5303,-2.5303,-2.5303,-2.5303,-2.5303,-2.5303,-2.5303,-2.5303,-2.5303,-2.5303,-2.5303,-2.5303,-2.5303,-2.5313,-2.5313,-2.5313,-2.5313,-2.5383,-2.5473,-2.5544,-2.5596,-2.5635,-2.5674,-2.5693,-2.5693,-2.5693,-2.5693,-2.5693,-2.5693,-2.5693,-2.5693,-2.5303,-2.5303,-2.5303,-2.5303,-2.5303,-2.5303,-2.5303,-2.5303,-2.5303,-2.5303,-2.5303,-2.5303,-2.5303,-2.5303,-2.5303,-2.5303,-2.5226,-2.512,-2.4726,-2.4015,-2.3851,-2.3397,-2.2559,-2.1963,-2.1874,-2.1857,-2.1756,-2.1586,-2.1316,-2.0852,-2.0542,-2.0331,-2.0302,-2.0302,-2.0302,-2.0302,-2.0302,-2.0302,-2.0302,-2.0302,-2.0302,-2.0302,-2.0302,-2.0302,-2.0302,-2.0302,-2.0302,-2.0302,-2.0302,-2.0292,-2.0323,-2.0373,-2.0414,-2.0388,-2.0405,-2.0419,-2.0365,-2.0312,-2.0321,-2.0312,-2.0291,-2.0313,-2.0346,-2.0358,-2.0348,-2.0417,-2.0494,-2.0735,-2.1283,-2.2245,-2.3716,-2.4004,-2.4457,-2.5024,-2.5303,-2.5303,-2.5303,-2.5303,-2.5303,-2.5303,-2.5303,-2.5303,-2.5303,-2.5303,-2.5303,-2.5303,-2.5303,-2.5303,-2.5303,-2.5303,-2.5303,-2.5303,-2.5303,-2.5303,-2.5303,-2.5303,-2.5303,-2.5322,-2.5322,-2.5322,-2.5341,-2.537,-2.5429,-2.5533,-2.559,-2.5635,-2.5664,-2.5693,-2.5693,-2.5693,-2.5693,-2.5693,-2.5693,-2.5693,-2.5693,-2.5303,-2.5303,-2.5303,-2.5303,-2.5303,-2.5303,-2.5303,-2.5303,-2.5303,-2.5303,-2.5303,-2.5303,-2.5303,-2.5303,-2.5303,-2.5111,-2.4774,-2.4668,-2.3967,-2.3055,-2.2717,-2.231,-2.1623,-2.1049,-2.0933,-2.0897,-2.089,-2.0911,-2.0863,-2.0534,-2.0304,-2.0302,-2.0302,-2.0302,-2.0302,-2.0302,-2.0302,-2.0302,-2.0302,-2.0302,-2.0302,-2.0302,-2.0302,-2.0302,-2.0302,-2.0302,-2.0302,-2.0302,-2.0302,-2.0302,-2.0292,-2.0321,-2.0321,-2.0319,-2.0321,-2.0344,-2.0316,-2.0302,-2.0302,-2.0302,-2.0292,-2.0292,-2.0331,-2.033,-2.0323,-2.0395,-2.0696,-2.1427,-2.1581,-2.2572,-2.3908,-2.4072,-2.4495,-2.5091,-2.5284,-2.5274,-2.5303,-2.5303,-2.5303,-2.5303,-2.5303,-2.5303,-2.5303,-2.5303,-2.5303,-2.5303,-2.5303,-2.5303,-2.5303,-2.5303,-2.5303,-2.5303,-2.5303,-2.5303,-2.5313,-2.5313,-2.5322,-2.5341,-2.5351,-2.5351,-2.537,-2.5418,-2.5476,-2.5551,-2.5599,-2.5636,-2.5664,-2.5693,-2.5693,-2.5693,-2.5693,-2.5693,-2.5693,-2.5693,-2.5693,-2.5264,-2.5303,-2.5254,-2.5264,-2.5293,-2.5303,-2.5303,-2.5303,-2.5303,-2.5303,-2.5303,-2.5303,-2.5303,-2.5303,-2.5207,-2.4889,-2.4158,-2.4149,-2.3218,-2.1952,-2.1673,-2.1141,-2.0515,-2.0302,-2.0369,-2.0446,-2.0408,-2.0302,-2.039,-2.0323,-2.0304,-2.0302,-2.0302,-2.0302,-2.0302,-2.0302,-2.0302,-2.0302,-2.0302,-2.0302,-2.0302,-2.0302,-2.0302,-2.0302,-2.0302,-2.0302,-2.0302,-2.0302,-2.0302,-2.0302,-2.0302,-2.0302,-2.0302,-2.0302,-2.0302,-2.0302,-2.0302,-2.0302,-2.0302,-2.0302,-2.0302,-2.0302,-2.0296,-2.0295,-2.0295,-2.0415,-2.0773,-2.1966,-2.2928,-2.286,-2.3696,-2.3995,-2.4485,-2.5014,-2.5149,-2.5091,-2.5245,-2.5303,-2.5303,-2.5303,-2.5303,-2.5303,-2.5303,-2.5303,-2.5303,-2.5303,-2.5303,-2.5303,-2.5303,-2.5303,-2.5303,-2.5303,-2.5303,-2.5303,-2.5313,-2.5332,-2.5341,-2.537,-2.5399,-2.5409,-2.5438,-2.5466,-2.5533,-2.559,-2.563,-2.5664,-2.5684,-2.5693,-2.5693,-2.5693,-2.5693,-2.5693,-2.5693,-2.5693,-2.5693,-2.5122,-2.5293,-2.5111,-2.5122,-2.5284,-2.5303,-2.5293,-2.5284,-2.5284,-2.5303,-2.5253,-2.5293,-2.5274,-2.5197,-2.5149,-2.4745,-2.4187,-2.3764,-2.2909,-2.15,-2.1345,-2.0988,-2.039,-2.0294,-2.0302,-2.0302,-2.0302,-2.0302,-2.0302,-2.0302,-2.0302,-2.0302,-2.0302,-2.0302,-2.0302,-2.0302,-2.0302,-2.0302,-2.0302,-2.0302,-2.0302,-2.0302,-2.0302,-2.0302,-2.0302,-2.0302,-2.0302,-2.0302,-2.0302,-2.0302,-2.0302,-2.0302,-2.0302,-2.0302,-2.0302,-2.0302,-2.0302,-2.0302,-2.0302,-2.0302,-2.0302,-2.0298,-2.0288,-2.0299,-2.0304,-2.0313,-2.0475,-2.0581,-2.2764,-2.3822,-2.3331,-2.3706,-2.4418,-2.4755,-2.4841,-2.4938,-2.512,-2.5303,-2.5303,-2.5303,-2.5303,-2.5303,-2.5303,-2.5303,-2.5303,-2.5303,-2.5303,-2.5303,-2.5303,-2.5303,-2.5322,-2.5322,-2.5313,-2.5313,-2.5322,-2.5341,-2.5361,-2.539,-2.5398,-2.5445,-2.5499,-2.5528,-2.5554,-2.5609,-2.5644,-2.5674,-2.5693,-2.5693,-2.5693,-2.5693,-2.5693,-2.5693,-2.5693,-2.5693,-2.5693,-2.4881,-2.5131,-2.5142,-2.5214,-2.5293,-2.5303,-2.5234,-2.5143,-2.5138,-2.5075,-2.5044,-2.5098,-2.4947,-2.4601,-2.4149,-2.339,-2.2774,-2.2687,-2.2023,-2.1084,-2.0834,-2.0632,-2.0381,-2.0302,-2.0302,-2.0302,-2.0302,-2.0302,-2.0302,-2.0302,-2.0302,-2.0302,-2.0302,-2.0302,-2.0302,-2.0302,-2.0302,-2.0302,-2.0302,-2.0302,-2.0302,-2.0302,-2.0302,-2.0302,-2.0302,-2.0302,-2.0302,-2.0302,-2.0302,-2.0302,-2.0302,-2.0302,-2.0302,-2.0302,-2.0302,-2.0302,-2.0302,-2.0302,-2.0302,-2.0302,-2.0302,-2.0292,-2.0306,-2.0318,-2.0329,-2.0331,-2.0646,-2.1317,-2.1878,-2.2447,-2.2956,-2.3619,-2.411,-2.4457,-2.4649,-2.4928,-2.5139,-2.5216,-2.5303,-2.5303,-2.5303,-2.5303,-2.5303,-2.5303,-2.5303,-2.5303,-2.5303,-2.5303,-2.5303,-2.5303,-2.5322,-2.5351,-2.5341,-2.5332,-2.5341,-2.5351,-2.5367,-2.5383,-2.5352,-2.5412,-2.5525,-2.5573,-2.5605,-2.5635,-2.5674,-2.5693,-2.5693,-2.5693,-2.5693,-2.5693,-2.5693,-2.5693,-2.5693,-2.5693,-2.5693,-2.4454,-2.4907,-2.5084,-2.5192,-2.5224,-2.5293,-2.5214,-2.509,-2.5099,-2.5022,-2.4888,-2.4798,-2.4332,-2.3649,-2.3044,-2.2524,-2.1582,-2.1477,-2.0996,-2.0534,-2.0302,-2.0323,-2.0302,-2.0302,-2.0302,-2.0285,-2.0302,-2.0302,-2.0302,-2.0302,-2.0302,-2.0302,-2.0302,-2.0302,-2.0302,-2.0302,-2.0302,-2.0302,-2.0302,-2.0302,-2.0302,-2.0302,-2.0302,-2.0302,-2.0302,-2.0302,-2.0302,-2.0302,-2.0302,-2.0302,-2.0302,-2.0302,-2.0302,-2.0302,-2.0302,-2.0302,-2.0302,-2.0302,-2.0302,-2.0302,-2.0302,-2.0302,-2.0302,-2.0317,-2.035,-2.036,-2.0494,-2.1249,-2.0954,-2.1504,-2.2427,-2.3417,-2.3995,-2.4389,-2.4716,-2.5014,-2.5245,-2.5274,-2.5303,-2.5303,-2.5303,-2.5303,-2.5303,-2.5303,-2.5303,-2.5303,-2.5303,-2.5303,-2.5303,-2.5303,-2.5341,-2.537,-2.537,-2.5361,-2.5399,-2.5408,-2.5403,-2.5412,-2.5367,-2.5417,-2.5556,-2.5605,-2.5625,-2.5654,-2.5693,-2.5693,-2.5693,-2.5693,-2.5693,-2.5693,-2.5693,-2.5693,-2.5693,-2.5693,-2.5693,-2.3838,-2.4552,-2.4723,-2.4875,-2.5044,-2.5214,-2.5274,-2.5086,-2.5184,-2.5122,-2.4828,-2.4399,-2.3285,-2.2524,-2.2419,-2.211,-2.1466,-2.1485,-2.0956,-2.0504,-2.0285,-2.0275,-2.0265,-2.0275,-2.0285,-2.0265,-2.0285,-2.0302,-2.0302,-2.0302,-2.0302,-2.0302,-2.0302,-2.0302,-2.0302,-2.0302,-2.0302,-2.0302,-2.0302,-2.0302,-2.0302,-2.0302,-2.0302,-2.0302,-2.0302,-2.0302,-2.0302,-2.0302,-2.0302,-2.0302,-2.0302,-2.0302,-2.0302,-2.0302,-2.0302,-2.0302,-2.0302,-2.0302,-2.0302,-2.0302,-2.0302,-2.0302,-2.0302,-2.0302,-2.0321,-2.0312,-2.0427,-2.057,-2.0408,-2.1014,-2.2072,-2.2994,-2.363,-2.4149,-2.4543,-2.4957,-2.5168,-2.5284,-2.5303,-2.5303,-2.5303,-2.5303,-2.5303,-2.5303,-2.5303,-2.5303,-2.5303,-2.5303,-2.5303,-2.5313,-2.5361,-2.539,-2.539,-2.5409,-2.5485,-2.5491,-2.548,-2.5485,-2.549,-2.5535,-2.5636,-2.5654,-2.5625,-2.5664,-2.5693,-2.5693,-2.5693,-2.5693,-2.5693,-2.5693,-2.5693,-2.5693,-2.5693,-2.5693,-2.5693,-2.2574,-2.2841,-2.3011,-2.3776,-2.4881,-2.5041,-2.4767,-2.4286,-2.4322,-2.4038,-2.3582,-2.2702,-2.2101,-2.1721,-2.1246,-2.11,-2.0773,-2.0764,-2.0552,-2.0427,-2.0285,-2.0227,-2.0208,-2.0217,-2.0236,-2.0169,-2.0217,-2.0302,-2.0302,-2.0302,-2.0302,-2.0302,-2.0302,-2.0302,-2.0302,-2.0302,-2.0302,-2.0302,-2.0302,-2.0302,-2.0302,-2.0302,-2.0302,-2.0302,-2.0302,-2.0302,-2.0302,-2.0302,-2.0302,-2.0294,-2.0285,-2.0302,-2.0302,-2.0302,-2.0302,-2.0302,-2.0302,-2.0302,-2.0302,-2.0302,-2.0302,-2.0302,-2.0302,-2.0302,-2.0302,-2.0302,-2.0302,-2.0312,-2.0302,-2.085,-2.1091,-2.2177,-2.3139,-2.3745,-2.4341,-2.487,-2.512,-2.5264,-2.5303,-2.5303,-2.5303,-2.5303,-2.5303,-2.5303,-2.5303,-2.5303,-2.5303,-2.5303,-2.5303,-2.5313,-2.5361,-2.5399,-2.5408,-2.5451,-2.5517,-2.5541,-2.5541,-2.5561,-2.5582,-2.5621,-2.5662,-2.5635,-2.5625,-2.5664,-2.5693,-2.5693,-2.5693,-2.5693,-2.5693,-2.5693,-2.5693,-2.5693,-2.5693,-2.5693,-2.5693,-2.1556,-2.1765,-2.1705,-2.2562,-2.3987,-2.4214,-2.3914,-2.3393,-2.3398,-2.3063,-2.2302,-2.1562,-2.1162,-2.1001,-2.0648,-2.0361,-2.0379,-2.0369,-2.0331,-2.0302,-2.0275,-2.0179,-2.0131,-2.015,-2.0208,-2.0083,-2.0179,-2.0302,-2.0302,-2.0302,-2.0302,-2.0302,-2.0302,-2.0302,-2.0302,-2.0302,-2.0302,-2.0302,-2.0302,-2.0302,-2.0302,-2.0302,-2.0302,-2.0302,-2.0302,-2.0241,-2.0241,-2.0232,-2.0251,-2.0241,-2.0259,-2.0285,-2.0302,-2.0302,-2.0302,-2.0302,-2.0302,-2.0302,-2.0302,-2.0302,-2.0302,-2.0302,-2.0302,-2.0302,-2.0302,-2.0302,-2.0302,-2.0302,-2.0312,-2.0446,-2.0744,-2.2235,-2.3351,-2.412,-2.4726,-2.5207,-2.5216,-2.5303,-2.5303,-2.5303,-2.5303,-2.5303,-2.5303,-2.5303,-2.5303,-2.5303,-2.5303,-2.5303,-2.5303,-2.5322,-2.5351,-2.5408,-2.5441,-2.5489,-2.5541,-2.5579,-2.5609,-2.5583,-2.5599,-2.5615,-2.5632,-2.5615,-2.5625,-2.5674,-2.5693,-2.5693,-2.5693,-2.5693,-2.5693,-2.5693,-2.5693,-2.5684,-2.5693,-2.5693,-2.5693,-2.0996,-2.1691,-2.1071,-2.141,-2.2369,-2.2599,-2.2746,-2.2671,-2.2546,-2.2267,-2.1796,-2.1328,-2.0876,-2.0486,-2.0305,-2.0302,-2.0302,-2.0302,-2.0302,-2.0302,-2.0285,-2.0179,-2.0134,-2.0163,-2.0196,-2.0084,-2.0179,-2.0302,-2.0302,-2.0302,-2.0302,-2.0302,-2.0302,-2.0302,-2.0302,-2.0302,-2.0302,-2.0302,-2.0302,-2.0302,-2.0302,-2.0302,-2.0302,-2.0302,-2.0259,-2.0179,-2.0125,-2.0143,-2.0125,-2.0069,-2.0189,-2.0252,-2.0294,-2.0294,-2.0302,-2.0302,-2.0302,-2.0302,-2.0302,-2.0302,-2.0302,-2.0302,-2.0302,-2.0302,-2.0302,-2.0302,-2.0302,-2.0302,-2.0302,-2.1004,-2.1879,-2.2793,-2.3572,-2.4187,-2.4726,-2.5303,-2.5303,-2.5303,-2.5303,-2.5303,-2.5303,-2.5303,-2.5303,-2.5303,-2.5303,-2.5303,-2.5303,-2.5303,-2.5303,-2.5322,-2.5351,-2.5399,-2.5452,-2.5511,-2.5568,-2.5649,-2.5672,-2.5632,-2.5613,-2.5625,-2.5625,-2.5615,-2.5635,-2.5684,-2.5674,-2.5654,-2.5674,-2.5693,-2.567,-2.5639,-2.5668,-2.5674,-2.5684,-2.5684,-2.5674,-1.9867,-2.0138,-2.0042,-2.024,-2.0802,-2.2025,-2.2255,-2.1683,-2.1144,-2.075,-2.0559,-2.0423,-2.0367,-2.017,-2.0251,-2.0302,-2.0302,-2.0302,-2.0302,-2.0302,-2.0302,-2.0179,-2.0126,-2.0163,-2.0193,-2.0108,-2.0188,-2.0302,-2.0302,-2.0302,-2.0302,-2.0302,-2.0302,-2.0302,-2.0302,-2.0302,-2.0302,-2.0302,-2.0302,-2.0302,-2.0302,-2.0302,-2.0302,-2.0294,-2.0197,-2.0078,-1.9993,-2.0031,-1.9952,-1.99,-2.004,-2.0163,-2.026,-2.0302,-2.0302,-2.0302,-2.0302,-2.0302,-2.0302,-2.0302,-2.0302,-2.0302,-2.0302,-2.0302,-2.0302,-2.0302,-2.0302,-2.0302,-2.0302,-2.0783,-2.0975,-2.2254,-2.311,-2.3524,-2.413,-2.5014,-2.5303,-2.5303,-2.5303,-2.5303,-2.5303,-2.5303,-2.5303,-2.5303,-2.5303,-2.5303,-2.5303,-2.5313,-2.5322,-2.5322,-2.5341,-2.5409,-2.5473,-2.5534,-2.5598,-2.5648,-2.5662,-2.5619,-2.561,-2.5608,-2.5605,-2.5605,-2.5615,-2.5644,-2.5625,-2.5609,-2.5609,-2.5599,-2.5583,-2.5572,-2.5579,-2.559,-2.5605,-2.5615,-2.5635,-1.9295,-1.932,-1.9513,-1.9653,-1.991,-2.1109,-2.1261,-2.067,-2.0106,-1.981,-1.9797,-1.9888,-1.9983,-2.0059,-2.0197,-2.0294,-2.0302,-2.0302,-2.0302,-2.0302,-2.0302,-2.0169,-2.012,-2.0174,-2.0153,-2.0107,-2.0179,-2.0302,-2.0302,-2.0302,-2.0302,-2.0302,-2.0302,-2.0302,-2.0302,-2.0302,-2.0302,-2.0302,-2.0302,-2.0302,-2.0302,-2.0302,-2.0302,-2.0241,-2.0134,-1.9993,-1.9933,-1.9847,-1.9776,-1.9797,-1.9885,-2.006,-2.0208,-2.0246,-2.0256,-2.0265,-2.0302,-2.0302,-2.0302,-2.0302,-2.0302,-2.0302,-2.0302,-2.0302,-2.0302,-2.0302,-2.0302,-2.0302,-2.0302,-2.0504,-2.0869,-2.2158,-2.2802,-2.3235,-2.4033,-2.4938,-2.5168,-2.5159,-2.5216,-2.5216,-2.5293,-2.5293,-2.5303,-2.5303,-2.5303,-2.5303,-2.5303,-2.5322,-2.5341,-2.5341,-2.5361,-2.5438,-2.5486,-2.5548,-2.5593,-2.5627,-2.563,-2.561,-2.5605,-2.5601,-2.5615,-2.5625,-2.5615,-2.5598,-2.5569,-2.5538,-2.551,-2.549,-2.5492,-2.5466,-2.5439,-2.5473,-2.5496,-2.5532,-2.5569,-1.9295,-1.9335,-1.9513,-1.9596,-1.9658,-2.0028,-2.0003,-1.9824,-1.9692,-1.9625,-1.9604,-1.9757,-1.9889,-2.0031,-2.0207,-2.0294,-2.0302,-2.0302,-2.0302,-2.0302,-2.0302,-2.016,-2.014,-2.0201,-2.0184,-2.0153,-2.0198,-2.0302,-2.0302,-2.0302,-2.0302,-2.0302,-2.0302,-2.0302,-2.0302,-2.0302,-2.0302,-2.0302,-2.0302,-2.0302,-2.0302,-2.0302,-2.0302,-2.0241,-2.0125,-1.9973,-1.9901,-1.9834,-1.9759,-1.9741,-1.9773,-1.9979,-2.0097,-2.0113,-2.0169,-2.0227,-2.0285,-2.0302,-2.0302,-2.0302,-2.0302,-2.0302,-2.0302,-2.0302,-2.0302,-2.0302,-2.0302,-2.0302,-2.0321,-2.0756,-2.1293,-2.2062,-2.283,-2.3505,-2.4274,-2.4726,-2.4899,-2.4986,-2.5062,-2.513,-2.5235,-2.5274,-2.5303,-2.5303,-2.5303,-2.5303,-2.5313,-2.5341,-2.5361,-2.537,-2.5409,-2.5486,-2.5534,-2.5553,-2.5596,-2.5635,-2.5625,-2.5611,-2.5611,-2.5609,-2.5624,-2.561,-2.5564,-2.5524,-2.5503,-2.5466,-2.5433,-2.5415,-2.5408,-2.5389,-2.5368,-2.5377,-2.5427,-2.5461,-2.5489,-1.9295,-1.932,-1.9523,-1.9596,-1.9609,-1.9691,-1.9691,-1.9671,-1.9698,-1.9625,-1.9399,-1.9779,-1.9891,-1.9889,-2.0143,-2.0259,-2.0302,-2.0302,-2.0302,-2.0302,-2.0302,-2.0246,-2.0236,-2.0256,-2.0246,-2.0236,-2.0265,-2.0285,-2.0275,-2.0275,-2.0275,-2.0302,-2.0265,-2.0275,-2.0285,-2.0302,-2.0302,-2.0302,-2.0302,-2.0302,-2.0302,-2.0302,-2.0302,-2.0241,-2.0106,-1.9983,-1.9933,-1.9845,-1.9774,-1.9771,-1.9874,-1.9978,-1.976,-2.0041,-2.0265,-2.0275,-2.0302,-2.0302,-2.0302,-2.0302,-2.0302,-2.0302,-2.0302,-2.0302,-2.0302,-2.0302,-2.0302,-2.0302,-2.0302,-2.0631,-2.0956,-2.16,-2.2168,-2.2716,-2.3437,-2.387,-2.4091,-2.4428,-2.4553,-2.4947,-2.5072,-2.5293,-2.5303,-2.5303,-2.5303,-2.5303,-2.5313,-2.5351,-2.538,-2.5399,-2.5448,-2.5524,-2.5579,-2.5601,-2.5625,-2.5654,-2.5625,-2.5603,-2.5615,-2.5616,-2.5608,-2.5589,-2.5511,-2.5466,-2.5444,-2.5409,-2.5351,-2.5351,-2.5361,-2.5341,-2.5322,-2.5332,-2.5341,-2.539,-2.5428,-1.9295,-1.9311,-1.9418,-1.9485,-1.9467,-1.9494,-1.949,-1.9505,-1.9556,-1.9457,-1.936,-1.9667,-1.9811,-1.9834,-2.006,-2.0215,-2.0302,-2.0302,-2.0302,-2.0302,-2.0302,-2.0285,-2.0285,-2.0302,-2.0285,-2.0302,-2.0275,-2.0246,-2.02,-2.0123,-2.0102,-2.016,-2.0188,-2.0246,-2.0275,-2.0302,-2.0302,-2.0302,-2.0302,-2.0302,-2.0302,-2.0302,-2.0302,-2.0259,-2.0106,-2.0031,-1.9984,-1.9889,-1.9832,-1.9809,-1.9907,-1.986,-1.9764,-2.0079,-2.0285,-2.0302,-2.0302,-2.0302,-2.0302,-2.0302,-2.0302,-2.0302,-2.0302,-2.0302,-2.0302,-2.0302,-2.0302,-2.0302,-2.0302,-2.0389,-2.0667,-2.0966,-2.1264,-2.1563,-2.2187,-2.2802,-2.3245,-2.3706,-2.4149,-2.463,-2.4937,-2.5207,-2.5303,-2.5303,-2.5303,-2.5303,-2.5322,-2.5351,-2.5387,-2.5424,-2.5485,-2.5556,-2.5595,-2.5625,-2.5654,-2.5654,-2.5635,-2.5626,-2.5642,-2.5638,-2.5619,-2.5599,-2.5555,-2.5472,-2.5405,-2.536,-2.5322,-2.5313,-2.5313,-2.5303,-2.5303,-2.5313,-2.5322,-2.5332,-2.5351,-1.9295,-1.9295,-1.9295,-1.932,-1.9295,-1.9305,-1.9311,-1.9295,-1.9316,-1.9291,-1.9345,-1.9523,-1.9682,-1.9729,-1.9944,-2.0115,-2.0205,-2.0259,-2.0302,-2.0275,-2.0302,-2.0302,-2.0302,-2.0302,-2.0302,-2.0302,-2.0267,-2.0212,-2.0034,-1.9964,-1.9984,-1.9986,-2.0073,-2.014,-2.0208,-2.0275,-2.0302,-2.0302,-2.0302,-2.0302,-2.0302,-2.0302,-2.0285,-2.0277,-2.0152,-2.0041,-2.0003,-1.9922,-1.9843,-1.9843,-1.9864,-1.9873,-1.999,-2.0126,-2.0251,-2.0302,-2.0302,-2.0302,-2.0302,-2.0302,-2.0302,-2.0302,-2.0302,-2.0302,-2.0302,-2.0302,-2.0302,-2.0302,-2.0302,-2.0302,-2.0523,-2.0735,-2.0975,-2.1139,-2.1523,-2.186,-2.21,-2.2908,-2.3995,-2.4524,-2.5082,-2.5303,-2.5303,-2.5303,-2.5303,-2.5303,-2.5313,-2.5341,-2.5379,-2.543,-2.5482,-2.5554,-2.5576,-2.5605,-2.5625,-2.5625,-2.5635,-2.5645,-2.5634,-2.5625,-2.5576,-2.5578,-2.5611,-2.5476,-2.5351,-2.5332,-2.5303,-2.5303,-2.5303,-2.5303,-2.5303,-2.5303,-2.5303,-2.5303,-2.5313,-1.9295,-1.9295,-1.9295,-1.9295,-1.9286,-1.9295,-1.9295,-1.9295,-1.9295,-1.9295,-1.935,-1.9581,-1.9638,-1.9532,-1.9747,-1.9907,-1.9992,-1.9863,-2.0219,-2.019,-2.0171,-2.0179,-2.0285,-2.0275,-2.0285,-2.0302,-2.0259,-2.0181,-2.002,-1.9948,-1.9913,-1.9907,-2.0026,-2.0169,-2.0131,-2.0217,-2.0256,-2.0252,-2.0243,-2.0251,-2.0267,-2.0285,-2.0285,-2.0285,-2.0215,-2.0205,-2.0188,-2.018,-2.0172,-2.0181,-2.0181,-2.0181,-2.0198,-2.0269,-2.0294,-2.0302,-2.0302,-2.0302,-2.0302,-2.0302,-2.0302,-2.0302,-2.0302,-2.0302,-2.0302,-2.0302,-2.0302,-2.0302,-2.0302,-2.0302,-2.035,-2.0533,-2.0677,-2.0783,-2.0879,-2.0966,-2.1071,-2.2341,-2.3706,-2.4466,-2.5111,-2.5264,-2.5255,-2.5303,-2.5303,-2.5303,-2.5303,-2.5322,-2.5332,-2.5377,-2.5427,-2.5479,-2.5525,-2.5545,-2.5577,-2.5595,-2.5595,-2.5557,-2.5531,-2.5531,-2.5535,-2.5524,-2.5495,-2.5399,-2.5303,-2.5303,-2.5303,-2.5303,-2.5303,-2.5303,-2.5303,-2.5303,-2.5303,-2.5303,-2.5303,-1.8876,-1.8317,-1.8619,-1.8766,-1.8831,-1.9148,-1.9295,-1.9295,-1.9295,-1.9295,-1.9295,-1.948,-1.9495,-1.928,-1.9369,-1.9341,-1.9305,-1.9048,-1.9172,-1.9391,-1.9689,-1.9902,-2.0007,-2.0169,-2.0285,-2.0285,-2.019,-2.0087,-1.9989,-1.9926,-1.9872,-1.9898,-2.0087,-2.0146,-2.0083,-2.0161,-2.0159,-2.0146,-2.0117,-2.0117,-2.018,-2.0233,-2.0285,-2.0302,-2.0302,-2.0302,-2.0302,-2.0302,-2.0294,-2.0294,-2.0277,-2.0277,-2.0269,-2.0285,-2.0294,-2.0302,-2.0302,-2.0294,-2.0285,-2.0285,-2.0294,-2.0302,-2.0302,-2.0302,-2.0302,-2.0302,-2.0302,-2.0302,-2.0302,-2.0302,-2.0302,-2.0437,-2.0456,-2.0514,-2.061,-2.0706,-2.1052,-2.185,-2.3158,-2.4254,-2.4716,-2.4908,-2.5005,-2.5303,-2.5303,-2.5303,-2.5303,-2.5303,-2.5322,-2.5332,-2.5375,-2.5423,-2.5458,-2.5506,-2.5541,-2.5546,-2.5532,-2.5491,-2.5443,-2.548,-2.5498,-2.5436,-2.538,-2.5341,-2.5322,-2.5303,-2.5303,-2.5303,-2.5303,-2.5303,-2.5303,-2.5303,-2.5303,-2.5303,-2.5303,-1.8161,-1.7083,-1.7674,-1.795,-1.805,-1.8656,-1.8922,-1.8916,-1.8944,-1.8922,-1.8836,-1.8858,-1.9127,-1.9031,-1.8634,-1.847,-1.8289,-1.8108,-1.8145,-1.8403,-1.8611,-1.892,-1.9409,-1.9873,-2.0012,-2.0089,-2.0031,-1.9964,-1.9893,-1.9834,-1.9821,-1.9926,-1.9997,-2.0051,-2.0108,-2.0089,-1.9991,-1.9968,-1.9936,-1.9894,-2.0011,-2.0171,-2.0233,-2.0277,-2.0302,-2.0302,-2.0302,-2.0302,-2.0302,-2.0302,-2.0302,-2.0302,-2.0243,-2.0216,-2.0162,-2.0153,-2.0197,-2.0215,-2.0251,-2.0267,-2.0285,-2.0302,-2.0302,-2.0302,-2.0302,-2.0302,-2.0302,-2.0302,-2.0302,-2.0302,-2.0302,-2.0302,-2.0302,-2.0312,-2.0408,-2.0589,-2.106,-2.1503,-2.2609,-2.3841,-2.4236,-2.4466,-2.4937,-2.5235,-2.5274,-2.5293,-2.5303,-2.5303,-2.5303,-2.5313,-2.5331,-2.5368,-2.5403,-2.545,-2.5476,-2.5476,-2.5457,-2.5447,-2.5408,-2.5447,-2.5466,-2.5399,-2.5361,-2.537,-2.5341,-2.5313,-2.5303,-2.5303,-2.5303,-2.5303,-2.5303,-2.5303,-2.5303,-2.5303,-2.5303,-1.7183,-1.6917,-1.7064,-1.7128,-1.7142,-1.7321,-1.7366,-1.736,-1.7406,-1.7353,-1.7459,-1.744,-1.7595,-1.8042,-1.765,-1.7447,-1.7405,-1.7155,-1.7416,-1.7781,-1.7729,-1.7946,-1.8408,-1.915,-1.9573,-1.9745,-1.9792,-1.972,-1.9779,-1.9713,-1.9585,-1.9528,-1.9781,-1.982,-1.9743,-1.9762,-1.9846,-1.9822,-1.9811,-1.978,-1.9841,-1.9992,-2.0162,-2.0233,-2.0302,-2.0302,-2.0302,-2.0302,-2.0302,-2.0302,-2.0302,-2.0302,-2.0225,-2.0088,-1.9961,-1.9941,-1.9982,-2.0078,-2.0106,-2.0197,-2.0233,-2.0302,-2.0302,-2.0302,-2.0302,-2.0302,-2.0302,-2.0302,-2.0302,-2.0302,-2.0302,-2.0302,-2.0302,-2.0302,-2.036,-2.0714,-2.1136,-2.1453,-2.2079,-2.3043,-2.3755,-2.4351,-2.5139,-2.5264,-2.5197,-2.5216,-2.5303,-2.5303,-2.5303,-2.5303,-2.5303,-2.5332,-2.5351,-2.5332,-2.5341,-2.537,-2.5361,-2.5351,-2.5361,-2.538,-2.538,-2.5341,-2.5322,-2.5341,-2.5332,-2.5313,-2.5303,-2.5303,-2.5303,-2.5303,-2.5303,-2.5303,-2.5303,-2.5303,-2.5303]}]]